     2              OBSERVATION DATA    GPS                 RINEX VERSION / TYPE
teqc 1997Jun30 19970702                                     PGM / RUN BY / DATE
                                                            COMMENT
BIT 2 OF LLI FLAGS DATA COLLECTED UNDER A-S CONDITION       COMMENT
BIT 2 OF LLI FLAGS DATA COLLECTED UNDER A-S CONDITION       COMMENT
Original Marker Name: HMCP                                  COMMENT
Campaign Name: HMC San Gabriel Valley 1993-1996             COMMENT
4-Character Station Name: HMCP                              COMMENT
6-Character Antenna Code: DMRCHT                            COMMENT
Vertical Measurement Point: BPA                             COMMENT
Vertical Offset to Rinex Ref. Point: 0.0000                 COMMENT
Radial Measurement Point: RRP                               COMMENT
Radial Offset to Rinex Ref. Point: 0.0000                   COMMENT
Antenna Height from Field Measurement: 0.0000 m             COMMENT
Additional Antenna Identification Info.:                    COMMENT
Turborogue and Ashtech Choke Ring                           COMMENT
Fixed antenna mounting on roof of Parsons                   COMMENT
building, HMC.                                              COMMENT
Original XYZ: -2458615.3581 -4680493.3967 3556457.0966      COMMENT
New XYZ position is based on association with SCEC monument COMMENT
E1D0R2C7+0011. Position of that monument is believed to be  COMMENT
valid to within 1 m horizontally; vertical accuracy         COMMENT
should be no worse than 3-times this value.                 COMMENT
                                                            COMMENT
Revised Rinex header created by UCSD GPS archive for        COMMENT
GSAC on 13-Apr-1999 (1999:103) 19:33:19 GMT                 COMMENT
For assistance contact dagnew@ucsd.edu or hjohnson@ucsd.edu COMMENT
                                                            COMMENT
HARVEY MUDD COLLEGE PHYSICS                                 MARKER NAME
MGB HARVEY MUDD COLLEGE                                     OBSERVER / AGENCY
T-262/263 TURBOROGUE SNR-8000 95.03.08                      REC # / TYPE / VERS
260/329 DORNE-MARGOL. TYPE T                                ANT # / TYPE
 -2458598.0000 -4680494.0000  3556451.0000                  APPROX POSITION XYZ
        0.0000        0.0000        0.0000                  ANTENNA: DELTA H/E/N
     1     1     0                                          WAVELENGTH FACT L1/2
     5    L1    L2    C1    P2    P1                        # / TYPES OF OBSERV
     0                                                      INTERVAL
  1996     2    25     0     0    0.000000                  TIME OF FIRST OBS
  1996     2    25    23    59   30.000000                  TIME OF LAST OBS
     0                                                      # OF SATELLITES
                                                            END OF HEADER
 96  2 25  0  0  0.0000000  0  7G 4G27G 7G12G 2G26G 9
 -10799620.88144  -8415280.74244  21958060.4484   21958060.5294
  -9832268.53944  -7661504.64344  23497305.8464   23497307.6514
 -24084726.48244 -18767291.42544  20491069.6674   20491069.8394
 -20224620.826 4 -15759428.241 4  20995068.524    20995067.267
 -15979301.28744 -12451386.86344  21779546.7334   21779546.9374
  -5094927.98044  -3970071.64144  23435121.2414   23435120.9354
 -13923357.28544 -10849362.43644  22394075.6674   22394075.1094
 96  2 25  0  0 30.0000000  0  7G 4G27G 7G12G 2G26G 9
 -10882014.28244  -8479483.33744  21942381.5154   21942381.4514
  -9720123.01344  -7574118.56344  23518646.5284   23518647.2474
 -24050823.85844 -18740873.78344  20497521.0074   20497521.1534
 -20198351.423 4 -15738958.578 4  21000067.413    21000066.190
 -15941502.08144 -12421932.93544  21786739.8284   21786740.3754
  -5038355.60344  -3925989.25644  23445885.6484   23445883.6724
 -14001592.83944 -10910325.17244  22379187.4274   22379187.4854
 96  2 25  0  1  0.0000000  0  7G 4G27G 7G12G 2G26G 9
 -10964065.69744  -8543419.44244  21926767.8724   21926768.3874
  -9607776.85244  -7486576.12944  23540024.9404   23540027.5794
 -24016593.39144 -18714200.68144  20504034.7724   20504034.7704
 -20171680.076 4 -15718175.709 4  21005142.765    21005141.581
 -15903484.31944 -12392308.71344  21793974.2474   21793974.2284
  -4981478.40944  -3881669.38944  23456708.8164   23456708.9384
 -14079481.03244 -10971017.22944  22364365.7014   22364365.3354
 96  2 25  0  1 30.0000000  0  7G 4G27G 7G12G 2G26G 9
 -11045741.13744  -8607062.58444  21911225.5944   21911225.2364
  -9495214.11844  -7398864.95044  23561445.4204   23561446.8994
 -23982010.62044 -18687253.05344  20510615.5444   20510615.9324
 -20144582.111 4 -15697060.412 4  21010299.319    21010298.155
 -15865220.04844 -12362492.39944  21801255.9164   21801255.5794
  -4924271.54744  -3837092.65444  23467594.7934   23467596.7184
 -14157001.10944 -11031422.45744  22349614.2564   22349613.7714
 96  2 25  0  2  0.0000000  0  8G 4G27G 7G12G 2G26G 9G24
 -11127043.04144  -8670414.65844  21895753.8854   21895754.0934
  -9382439.46944  -7310988.62944  23582905.6514   23582905.2954
 -23947085.67344 -18660038.80344  20517261.5204   20517261.9854
 -20117068.566 4 -15675621.284 4  21015535.011    21015533.886
 -15826699.81644 -12332476.63444  21808585.7394   21808586.1244
  -4866742.15844  -3792264.57844  23478542.5484   23478544.8144
 -14234173.89544 -11091557.06844  22334928.7354   22334928.5584
        -0.40354                  24268901.6994
 96  2 25  0  2 30.0000000  0  8G 4G27G 7G12G 2G26G 9G24
 -11207990.91644  -8733490.86844  21880350.3464   21880350.4474
  -9269476.11144  -7222965.28244  23604401.7304   23604404.5884
 -23911843.97744 -18632577.73244  20523967.9934   20523967.8294
 -20089164.019 4 -15653877.479 4  21020845.028    21020843.901
 -15787935.29844 -12302270.51744  21815962.1584   21815962.5134
  -4808921.89744  -3747209.85244  23489545.1454   23489546.3374
 -14311028.60844 -11151443.83644  22320304.2144   22320303.8064
   -108070.58444                  24248339.0624
 96  2 25  0  3  0.0000000  0  8G 4G27G 7G12G 2G26G 9G24
 -11288596.19344  -8796300.11644  21865011.5664   21865011.5054
  -9156344.66344  -7134810.93544  23625929.3844   23625933.5694
 -23876301.44344 -18604882.24244  20530731.5484   20530731.5124
 -20060885.393 4 -15631842.184 4  21026226.267    21026225.053
 -15748940.04444 -12271884.60344  21823383.0234   21823382.9454
  -4750822.82544  -3701937.84944  23500601.5024   23500601.2734
 -14387590.42844 -11211102.36644  22305734.7254   22305734.5244
   -216127.07144                  24227774.9454
 96  2 25  0  3 30.0000000  0  8G 4G27G 7G12G 2G26G 9G24
 -11368821.73244  -8858813.47044  21849745.4924   21849745.3544
  -9043032.45644  -7046515.75844  23647492.5214   23647494.5944
 -23840435.56144 -18576934.79644  20537556.4464   20537556.6804
 -20032213.605 4 -15609500.528 4  21031682.367    21031681.264
 -15709698.30044 -12241306.61844  21830850.6684   21830851.1574
  -4692419.45244  -3656428.75244  23511715.0294   23511717.3644
 -14463839.80544 -11270517.44744  22291225.1014   22291224.6454
   -324145.84944                  24207217.5284
 96  2 25  0  4  0.0000000  0  8G 4G27G 7G12G 2G26G 9G24
 -11448720.74244  -8921072.38544  21834541.0034   21834540.6734
  -8929591.17844  -6958119.97044  23669079.5904   23669079.1494
 -23804301.27444 -18548778.20544  20544432.4444   20544432.5334
 -20003202.753 4 -15586894.670 4  21037202.838    21037201.749
 -15670271.24244 -12210584.23444  21838353.0364   21838353.4124
  -4633767.55244  -3610725.99744  23522876.4134   23522876.5394
 -14539818.28244 -11329721.44544  22276767.0134   22276766.4824
   -432203.42744                  24186655.2074
 96  2 25  0  4 30.0000000  0  8G 4G27G 7G12G 2G26G 9G24
 -11528290.58944  -8983074.81844  21819399.0994   21819399.0004
  -8816026.17644  -6869627.77144  23690690.8834   23690693.2564
 -23767902.49044 -18520415.51344  20551359.1504   20551359.1274
 -19973843.812 4 -15564017.572 4  21042789.697    21042788.601
 -15630670.61744 -12179726.60544  21845888.9034   21845888.9784
  -4574856.73344  -3564821.47444  23534086.7764   23534088.2404
 -14615501.51844 -11388695.36944  22262364.5904   22262364.1944
   -540309.67444   -421019.59944  24166084.1114
 96  2 25  0  5  0.0000000  0  7G 4G27G 7G12G 2G 9G24
 -11607484.07744  -9044783.98044  21804329.1874   21804329.1604
  -8702294.21944  -6781005.50144  23712333.1114   23712334.3624
 -23731209.98244 -18491823.94244  20558341.5024   20558341.6054
 -19944090.495 4 -15540833.167 4  21048451.644    21048450.483
 -15590870.22444 -12148713.31044  21853462.3854   21853462.5974
 -14690845.95244 -11447405.27444  22248027.1194   22248026.7884
   -648417.50744   -505259.34744  24145511.7434   24145511.8924
 96  2 25  0  5 30.0000000  0  7G 4G27G 7G12G 2G 9G24
 -11686292.90344  -9106193.41144  21789332.0544   21789331.8624
  -8588387.96044  -6692247.40044  23734008.7824   23734009.2564
 -23694215.60044 -18462997.14744  20565381.4474   20565381.4884
 -19913931.589 4 -15517332.720 4  21054190.513    21054189.389
 -15550858.08044 -12117535.01244  21861076.5184   21861076.9634
 -14765836.17244 -11505839.18544  22233757.0244   22233756.7314
   -756524.19044   -589498.20644  24124939.6524   24124942.9884
 96  2 25  0  6  0.0000000  0  7G 4G27G 7G12G 2G 9G24
 -11764735.54344  -9167317.50244  21774405.1954   21774404.7364
  -8474309.14644  -6603354.84244  23755716.9524   23755720.7384
 -23656933.52944 -18433946.18144  20572475.8724   20572475.8514
 -19883376.142 4 -15493523.279 4  21060005.252    21060004.080
 -15510630.55244 -12086188.89344  21868731.6264   21868731.9254
 -14840478.91744 -11564002.34344  22219552.7164   22219551.8834
   -864639.30344   -673743.63344  24104365.8474   24104368.9404
 96  2 25  0  6 30.0000000  0  7G 4G27G 7G12G 2G 9G24
 -11842796.37044  -9228144.07944  21759550.4624   21759550.7034
  -8360061.15944  -6514330.48744  23777457.0754   23777459.6684
 -23619354.92344 -18404664.14644  20579626.7574   20579626.7714
 -19852418.813 4 -15469400.685 4  21065896.200    21065895.006
 -15470175.94844 -12054665.82844  21876429.7034   21876430.0164
 -14914778.49844 -11621898.10344  22205413.8354   22205413.5034
   -972726.40744   -757967.20044  24083796.6874   24083800.1334
 96  2 25  0  7  0.0000000  0  8G 4G27G 7G12G 2G 5G 9G24
 -11920439.94544  -9288645.53244  21744775.4834   21744775.3674
  -8245611.12944  -6425148.67144  23799236.4794   23799240.7594
 -23581445.29044 -18375124.17244  20586840.4744   20586840.6604
 -19821037.243 4 -15444947.514 4  21071867.900    21071866.773
 -15429459.30044 -12022938.56844  21884178.1194   21884178.1004
        -1.15054        -0.51154  25309622.1814   25309627.7904
 -14988702.10544 -11679500.88344  22191346.6484   22191346.5264
  -1080740.19144   -842133.63144  24063242.3064   24063245.5084
 96  2 25  0  7 30.0000000  0  8G 4G27G 7G12G 2G 5G 9G24
 -11997701.04044  -9348848.94744  21730073.1974   21730073.0784
  -8131001.60044  -6335842.61044  23821046.3054
 -23543238.27244 -18345352.46444  20594111.2424   20594111.1774
 -19789278.325 4 -15420200.302 4  21077911.349    21077910.233
 -15388509.68144 -11991029.77344  21891970.6014   21891971.0464
    -79659.22844    -62071.65344  25294464.4604   25294466.4644
 -15062272.23044 -11736828.21744  22177346.5204   22177346.5614
  -1188709.68944   -926265.53944  24042696.9834   24042699.5274
 96  2 25  0  8  0.0000000  0  8G 4G27G 7G12G 2G 5G 9G24
 -12074578.37344  -9408753.33044  21715443.9144   21715443.6414
  -8016254.84844  -6246429.57344  23842881.4504
 -23504753.27244 -18315364.15344  20601434.5744   20601434.8274
 -19757157.306 4 -15395170.936 4  21084023.880    21084022.657
 -15347344.25444 -11958952.81944  21899803.8854   21899804.3644
   -159410.68044   -124215.59844  25279288.6334   25279289.2994
 -15135510.27344 -11793896.80244  22163410.2794   22163409.7404
  -1296630.99844  -1010359.90144  24022160.0674   24022162.4144
 96  2 25  0  8 30.0000000  0  8G 4G27G 7G12G 2G 5G 9G24
 -12151076.24044  -9468362.01644  21700886.6734   21700886.7334
  -7901391.49444  -6156925.71844  23864740.5644
 -23465995.65244 -18285163.40644  20608810.1084   20608809.8314
 -19724681.487 4 -15369865.104 4  21090203.725    21090202.597
 -15305986.18444 -11926725.75044  21907674.4324   21907674.7544
   -239249.80244   -186427.92744  25264097.1494   25264100.7984
 -15208425.79444 -11850714.06744  22149534.8974   22149534.7394
  -1404504.66944  -1094417.13044  24001632.1774   24001633.5864
 96  2 25  0  9  0.0000000  0  8G 4G27G 7G12G 2G 5G 9G24
 -12227187.86944  -9527669.74544  21686402.7924   21686402.3904
  -7786395.12544                  23886623.4904
 -23426956.32744 -18254743.14644  20616239.0814   20616239.0914
 -19691833.936 4 -15344269.612 4  21096454.425    21096453.297
 -15264417.62944 -11894334.67344  21915584.4434   21915584.8684
   -319152.24244                  25248891.9694
 -15281000.97544 -11907266.12244  22135724.1344   22135723.7964
  -1512326.85144  -1178434.26544  23981113.9384   23981118.2514
 96  2 25  0  9 30.0000000  0  8G 4G27G 7G12G 2G 5G 9G24
 -12302908.03444  -9586672.43644  21671993.9834   21671993.7444
  -7671268.95444  -5977609.49044  23908530.3074
 -23387636.95844 -18224104.67344  20623721.0054   20623721.1554
 -19658601.645 4 -15318374.319 4  21102778.248    21102777.142
 -15222628.99844 -11861772.10844  21923536.2934   21923536.7104
   -399103.08544   -310988.73044  25233678.7584
 -15353245.85544 -11963560.81644  22121976.5794   22121976.2304
  -1620088.21044  -1262403.97744  23960607.5844   23960610.3444
 96  2 25  0 10  0.0000000  0  8G 4G27G 7G12G 2G 5G 9G24
 -12378226.65244  -9645362.23544  21657661.3914   21657660.7544
  -7556009.97444  -5887797.37944  23930463.6384
 -23348030.03644 -18193242.13144  20631258.0364   20631258.3174
 -19624961.675 4 -15292161.355 4  21109179.795    21109178.569
 -15180608.46144 -11829028.83044  21931532.4294   21931533.3094
   -479067.97044   -373298.97644  25218459.7514
 -15425144.21644 -12019585.47744  22108294.5824   22108294.6284
  -1727781.75144  -1346320.87544  23940114.1014   23940116.5134
 96  2 25  0 10 30.0000000  0  8G 4G27G 7G12G 2G 5G 9G24
 -12453157.66744  -9703750.00744  21643402.6464   21643402.3144
  -7440625.47944                  23952420.6654
 -23308153.11244 -18162169.19844  20638846.3554   20638846.6814
 -19590922.098 4 -15265637.009 4  21115657.329    21115656.137
 -15138365.89744 -11796112.54044  21939570.8864   21939572.1214
   -559060.13644                  25203239.4774
 -15496672.47144 -12075321.74944  22094683.3184   22094683.0474
  -1835420.31844  -1430194.93444  23919631.4134   23919632.4464
 96  2 25  0 11  0.0000000  0  8G 4G27G 7G12G 2G 5G 9G24
 -12527681.34544  -9761820.36544  21629221.0534   21629220.8354
  -7325101.54844                  23974404.2374
 -23268005.41144 -18130885.26644  20646486.2504   20646486.4094
 -19556471.620 4 -15238792.481 4  21122213.117    21122211.747
 -15095881.13744 -11763007.53444  21947655.6534   21947656.0674
   -639085.38544   -497987.75944  25188009.2554
 -15567811.33744 -12130754.61044  22081145.8894   22081144.9494
  -1942992.63444  -1514017.35144  23899160.6494   23899165.0704
 96  2 25  0 11 30.0000000  0  8G 4G27G 7G12G 2G 5G 9G24
 -12601791.25744  -9819568.31144  21615118.2794   21615117.8824
  -7209449.48844                  23996412.1384
 -23227593.30544 -18099395.30844  20654176.3324   20654176.6024
 -19521615.723 4 -15211632.042 4  21128845.836    21128844.709
 -15053159.26344 -11729717.76844  21955785.6654   21955785.8794
   -719144.39844   -560371.32644  25172776.5584   25172773.3334
 -15638554.50144 -12185879.13244  22067683.8334   22067682.9214
  -2050490.43544  -1597781.74544  23878704.0654   23878705.5314
 96  2 25  0 12  0.0000000  0  8G 4G27G 7G12G 2G 5G 9G24
 -12675529.02244  -9877026.27344  21601086.8394   21601086.6564
  -7093712.50544                  24018435.5654
 -23186958.31544 -18067731.67544  20661909.0234   20661909.3664
 -19486402.113 4 -15184192.866 4  21135546.820    21135545.671
 -15010248.68644 -11696280.96344  21963951.1234   21963951.4344
   -799280.64144   -622815.12744  25157525.3794
 -15708936.84544 -12240722.48444  22054290.2454   22054289.7094
  -2157962.48344  -1681526.06144  23858253.0224   23858255.5034
 96  2 25  0 12 30.0000000  0  8G 4G27G 7G12G 2G 5G 9G24
 -12748883.44644  -9934185.52944  21587127.2394   21587127.4004
  -6977863.91244                  24040481.2944
 -23146079.71344 -18035878.20744  20669687.7914   20669687.7404
 -19450821.217 4 -15156467.495 4  21142317.591    21142316.432
 -14967138.99044 -11662689.00144  21972154.3924   21972154.9244
   -879500.05644                  25142260.1694
 -15778967.41544 -12295291.72944  22040964.0714   22040963.4534
  -2265389.29744  -1765235.14744  23837810.7854   23837812.7984
 96  2 25  0 13  0.0000000  0  8G 4G27G 7G12G 2G 5G 9G24
 -12821850.94944  -9991043.28544  21573242.2534   21573241.9424
  -6861910.70444                  24062548.0204
 -23104935.23344 -18003817.56044  20677517.5484   20677517.4484
 -19414871.471 4 -15128454.706 4  21149158.587    21149157.551
 -14923826.76244 -11628939.21544  21980396.7574   21980397.1794
   -959795.73644                  25126979.7484
 -15848673.35844 -12349608.02544  22027699.4014   22027698.4024
  -2372768.97944  -1848907.50644  23817376.0484   23817379.1014
 96  2 25  0 13 30.0000000  0  8G 4G27G 7G12G 2G 5G 9G24
 -12894430.00244 -10047598.35944  21559430.8034   21559430.5874
  -6745845.39644                  24084632.9164
 -23063508.74644 -17971537.16944  20685400.7244   20685400.7694
 -19378546.910 4 -15100149.851 4  21156070.928    21156069.777
 -14880299.91644 -11595022.18944  21988679.6964   21988680.0324
  -1040150.65144                  25111687.8114
 -15918047.87144 -12403666.06544  22014497.6474   22014497.9264
  -2480104.86544  -1932545.73444  23796951.1694   23796952.7084
 96  2 25  0 14  0.0000000  0  8G 4G27G 7G12G 2G 5G 9G24
 -12966626.39444 -10103855.25344  21545692.5424   21545692.4224
  -6629669.11244                  24106740.7304
 -23021809.70644 -17939044.39744  20693335.7874   20693335.7454
 -19341853.542 4 -15071557.617 4  21163053.447    21163052.301
 -14836566.88544 -11560944.51344  21997001.4094   21997001.5584
  -1120580.19344   -873178.14244  25096381.8534
 -15987100.40644 -12457473.21144  22001357.1144   22001357.4454
  -2587413.59044  -2016162.84144  23776530.4704   23776533.0574
 96  2 25  0 14 30.0000000  0  8G 4G27G 7G12G 2G 5G 9G24
 -13038398.46544 -10159781.50544  21532034.5024   21532034.6844
  -6513363.15744                  24128874.3074
 -22979810.88944 -17906318.03444  20701327.9404   20701327.9064
 -19304765.898 4 -15042658.155 4  21170110.999    21170109.844
 -14792597.28744 -11526682.48344  22005368.5674   22005368.8144
  -1201052.25644   -935883.54044  25081066.8194
 -16055799.19344 -12511004.70244  21988284.5504   21988284.8534
  -2694662.82644  -2099733.58244  23756122.4574   23756123.3514
 96  2 25  0 15  0.0000000  0  8G 4G27G 7G12G 2G 5G 9G24
 -13109728.79544 -10215363.53644  21518461.0094   21518460.6474
  -6396935.05444                  24151028.1534
 -22937522.27244 -17873365.84744  20709375.1884   20709374.8924
 -19267283.161 4 -15013450.831 4  21177243.802    21177242.432
 -14748384.93844 -11492231.31144  22013782.2194   22013782.6214
  -1281554.33944   -998612.38344  25065749.4114   25065749.1654
 -16124111.47344 -12564235.03144  21975285.2304   21975284.4314
  -2801848.12944  -2183254.46444  23735724.9294   23735726.6454
 96  2 25  0 15 30.0000000  0  8G 4G27G 7G12G 2G 5G 9G24
 -13180534.40444 -10270536.70544  21504987.0174   21504987.0664
  -6280311.17844                  24173223.1324
 -22894903.97744 -17840156.77444  20717485.1054   20717485.1434
 -19229333.710 4 -14983879.834 4  21184465.351    21184464.163
 -14703875.36444 -11457548.53444  22022252.2964   22022252.5114
  -1362021.42944  -1061313.90944  25050436.8764   25050438.7504
 -16191947.05644 -12617093.91144  21962376.4844   21962375.9704
  -2908889.33744  -2266663.05144  23715355.9694   23715357.6624
 96  2 25  0 16  0.0000000  0  8G 4G27G 7G12G 2G 5G 9G24
 -13250795.26544 -10325285.39344  21491616.5064   21491616.2694
  -6163484.82544                  24195452.4314
 -22851959.00144 -17806693.14144  20725657.2094   20725657.1044
 -19190903.088 4 -14953933.901 4  21191778.543    21191777.263
 -14659070.11244 -11422635.35844  22030778.0254   22030779.1044
  -1442446.28244  -1123982.50644  25035132.7814
 -16259293.39344 -12669571.56044  21949561.0054   21949560.0054
  -3015757.79444  -2349937.06444  23695019.5304   23695021.3034
 96  2 25  0 16 30.0000000  0  8G 4G27G 7G12G 2G 5G 9G24
 -13320659.48344 -10379725.00344  21478321.7844   21478321.7594
  -6046600.81944                  24217693.8284
 -22808826.56344 -17773083.43744  20733864.8794   20733864.6494
 -19152129.269 4 -14923720.540 4  21199156.890    21199155.701
 -14614103.93444 -11387596.78144  22039334.7084   22039335.7744
  -1522967.86344  -1186726.47944  25019811.3954   25019812.2794
 -16326286.59544 -12721774.03444  21936812.7544   21936812.3524
  -3122581.56544  -2433176.21144  23674690.3784   23674693.4454
 96  2 25  0 17  0.0000000  0  8G 4G27G 7G12G 2G 5G 9G24
 -13390144.32244 -10433868.99744  21465099.0754   21465098.8874
  -5929656.52444                  24239950.1364
 -22765517.16744 -17739335.84944  20742106.2574   20742106.5314
 -19113009.763 4 -14893237.814 4  21206601.110    21206599.764
 -14568976.50244 -11352432.55444  22047922.1304   22047923.0104
  -1603599.16744  -1249556.00244  25004468.3844   25004468.7484
 -16392929.50744 -12773703.55844  21924130.9354   21924130.5294
  -3229357.51144  -2516378.10544  23654372.2424   23654374.5744
 96  2 25  0 17 30.0000000  0  8G 4G27G 7G12G 2G 5G 9G24
 -13459148.56344 -10487638.49644  21451968.3864   21451968.1314
  -5812543.17144                  24262234.1924
 -22721917.06044 -17705361.73644  20750402.9794   20750403.1144
 -19073429.591 4 -14862396.127 4  21214133.002    21214131.703
 -14523564.18644 -11317046.34644  22056563.6874   22056564.0054
  -1684227.55044  -1312383.28644  24989125.4044
 -16459133.68844 -12825291.22044  21911532.7244   21911532.2334
  -3335977.17544  -2599458.22144  23634083.5094   23634086.3044
 96  2 25  0 18  0.0000000  0  8G 4G27G 7G12G 2G 5G 9G24
 -13527730.41844 -10541078.86644  21438918.0184   21438917.4484
  -5695306.86844                  24284543.8974
 -22678050.76044 -17671180.19744  20758750.9284   20758750.7534
 -19033430.677 4 -14831228.146 4  21221744.592    21221743.230
 -14477877.26044 -11281446.15544  22065258.2064   22065258.4714
  -1764886.49244  -1375234.30944  24973774.3274   24973780.3794
 -16524946.32844 -12876573.79444  21899008.9194   21899008.4254
  -3442481.78744  -2682448.66144  23613815.8724   23613819.2274
 96  2 25  0 18 30.0000000  0  8G 4G27G 7G12G 2G 5G 9G24
 -13595909.78044 -10594205.60644  21425943.2714   21425942.9404
  -5577983.27844                  24306872.2454
 -22633940.13144 -17636808.26744  20767144.4664   20767144.1654
 -18993042.880 4 -14799757.140 4  21229430.045    21229428.768
 -14431938.06544 -11245649.38944  22073999.9084   22074000.5034
  -1845603.02444  -1438130.17944  24958416.0474   24958420.5314
 -16590395.35144 -12927573.00644  21886554.4834   21886553.9734
  -3548896.68744  -2765369.23644  23593566.1154   23593569.8694
 96  2 25  0 19  0.0000000  0  8G 4G27G 7G12G 2G 5G 9G24
 -13663614.22144 -10646962.28144  21413059.5154   21413059.1244
  -5460541.12044                  24329219.3334
 -22589543.22744 -17602213.27044  20775593.5124   20775593.2914
 -18952225.068 4 -14767951.056 4  21237197.421    21237196.263
 -14385721.72444 -11209636.65744  22082794.4754   22082794.8834
  -1926331.36344  -1501035.24644  24943052.8154
 -16655440.51744 -12978257.53744  21874176.3934   21874175.9644
  -3655186.44044  -2848192.27644  23573339.4814   23573340.0934
 96  2 25  0 19 30.0000000  0  8G 4G27G 7G12G 2G 5G 9G24
 -13730906.64444 -10699397.89744  21400253.8944   21400253.9804
  -5343057.54044                  24351574.7014
 -22544931.02444 -17567450.51244  20784082.5914   20784082.5654
 -18911054.799 4 -14735870.330 4  21245031.846    21245030.579
 -14339311.86344 -11173473.13544  22091626.4794   22091626.9144
  -2007133.68444                  24927676.6704
 -16720142.02244 -13028674.28344  21861864.5544   21861864.0874
  -3761423.67744  -2930974.39044  23553122.3984   23553125.0414
 96  2 25  0 20  0.0000000  0  8G 4G27G 7G12G 2G 5G 9G24
 -13797815.54144 -10751534.66844  21387521.8154   21387521.7174
  -5225578.16744                  24373932.3384
 -22500143.49044 -17532551.13244  20792605.5374   20792605.7974
 -18869576.931 4 -14703549.917 4  21252924.742    21252923.577
 -14292765.53244 -11137203.27744  22100483.7924   22100484.1554
  -2088060.22344  -1627057.61244  24912276.5044   24912281.1474
 -16784527.15544 -13078844.50744  21849612.4424   21849612.0414
  -3867642.33944  -3013742.03444  23532909.8844   23532912.0904
 96  2 25  0 20 30.0000000  0  8G 4G27G 7G12G 2G 5G 9G24
 -13864225.12244 -10803282.36244  21374884.7004   21374884.3744
  -5108012.90544                  24396301.7214
 -22455092.41844 -17497446.39944  20801178.2554   20801178.7004
 -18827699.499 4 -14670918.158 4  21260893.901    21260892.639
 -14246014.41544 -11100773.84944  22109380.1024   22109380.4574
  -2169025.61144  -1690147.36344  24896869.3074   24896876.6954
 -16848498.20644 -13128692.06244  21837438.4294   21837438.2954
  -3973755.57344  -3096427.54144  23512717.4324   23512718.9444
 96  2 25  0 21  0.0000000  0  8G 4G27G 7G12G 2G 5G 9G24
 -13930093.22944 -10854608.13244  21362350.5144   21362350.1064
  -4990301.33744                  24418701.9944
 -22409720.44544 -17462091.61844  20809812.2894   20809812.3884
 -18785366.157 4 -14637931.146 4  21268949.605    21268948.306
 -14198993.57944 -11064134.23744  22118327.5124   22118328.2574
  -2249967.99944  -1753219.23644  24881467.5394   24881472.6024
 -16911985.39744 -13178162.58944  21825357.7124   21825357.1814
  -4079710.10744  -3178989.36944  23492554.7184   23492557.4874
 96  2 25  0 21 30.0000000  0  8G 4G27G 7G12G 2G 5G 9G24
 -13995477.43844 -10905556.83544  21349907.9914   21349907.7714
  -4872475.98244                  24441123.1994
 -22364071.90344 -17426521.32444  20818499.1404   20818498.8804
 -18742611.965 4 -14604616.195 4  21277085.386    21277084.252
 -14151707.28944 -11027287.78744  22127326.4064   22127326.9204
  -2330924.00844  -1816301.80744  24866060.8604   24866064.5044
 -16975015.62444 -13227277.03944  21813363.4304   21813362.8684
  -4185528.15544  -3261444.80644  23472417.6984   23472420.0774
 96  2 25  0 22  0.0000000  0  8G 4G27G 7G12G 2G 5G 9G24
 -14060395.04844 -10956141.95944  21337554.3724   21337554.0434
  -4754566.40544                  24463561.1934
 -22318168.95944 -17390752.79644  20827234.0694   20827233.9714
 -18699451.481 4 -14570984.655 4  21285298.577    21285297.506
 -14104164.33944 -10990241.33544  22136373.0404   22136373.3884
  -2411914.55344  -1879411.29144  24850648.3234   24850655.2824
 -17037617.95344 -13276058.06244  21801450.5534   21801450.1014
  -4291223.87544  -3343804.96144  23452304.4614   23452306.7864
 96  2 25  0 22 30.0000000  0  8G 4G27G 7G12G 2G 5G 9G24
 -14124860.58044 -11006374.81244  21325287.1714   21325286.6284
  -4636580.96944                  24486014.7834
 -22272022.11144 -17354794.21544  20836015.4724   20836015.4614
 -18655889.786 4 -14537040.484 4  21293588.267    21293586.919
 -14056369.36044 -10952998.50144  22145468.0574   22145468.6934
  -2492937.78944  -1942546.14244  24835230.6224
 -17099793.15444 -13324506.25744  21789619.0924   21789618.5414
  -4396794.74144  -3426067.81944  23432215.0654   23432215.7934
 96  2 25  0 23  0.0000000  0  8G 4G27G 7G12G 2G 5G 9G24
 -14188887.59644 -11056265.96644  21313103.1434   21313102.6164
  -4518525.85644                  24508479.1874
 -22225638.90044 -17318651.46044  20844841.7884   20844842.0074
 -18611926.015 4 -14502783.009 4  21301954.131    21301953.051
 -14008309.51244 -10915549.26644  22154613.3584   22154614.0064
  -2573993.99944  -2005706.74144  24819807.2884   24819807.6274
 -17161541.97944 -13372622.21344  21777868.3854   21777867.7984
  -4502224.32544  -3508220.59944  23412152.8274   23412154.8414
 96  2 25  0 23 30.0000000  0  8G 4G27G 7G12G 2G 5G 9G24
 -14252497.20744 -11105831.86744  21300998.7144   21300998.3824
  -4400434.85144                  24530952.1744
 -22179058.97644 -17282355.41744  20853705.8264   20853705.6874
 -18567593.575 4 -14468238.257 4  21310390.360    21310389.231
 -13960031.23544 -10877929.83744  22163801.1434   22163801.2184
  -2655126.50744  -2068926.84044  24804368.4824
 -17222900.94944 -13420434.38444  21766192.3034   21766191.9834
  -4607538.42444  -3590283.40544  23392111.0694   23392112.9894
 96  2 25  0 24  0.0000000  0  8G 4G27G 7G12G 2G 5G 9G24
 -14315667.11144 -11155055.14444  21288977.7594   21288977.3734
  -4282293.60044                  24553433.3844
 -22132264.92644 -17245892.52044  20862610.6794   20862610.4544
 -18522883.364 4 -14433399.139 4  21318898.629    21318897.288
 -13911542.17544 -10840146.16644  22173027.9564   22173028.6414
  -2736324.81344  -2132198.13044  24788917.2544   24788916.8834
 -17283865.61244 -13467939.30644  21754591.1054   21754590.6984
  -4712734.65144  -3672254.38444  23372093.0634   23372094.9554
 96  2 25  0 24 30.0000000  0  8G 4G27G 7G12G 2G 5G 9G24
 -14378353.57344 -11203901.70944  21277048.9984   21277048.6984
  -4164054.24044                  24575932.4484
 -22085220.68844 -17209234.67544  20871562.3864   20871562.5104
 -18477754.350 4 -14398233.680 4  21327486.319    21327485.040
 -13862807.50544 -10802171.10744  22182301.6574   22182302.8784
  -2817549.79344  -2195490.26844  24773461.1434   24773461.0994
 -17344381.04044 -13515094.16944  21743075.4624   21743075.1044
  -4817767.97844  -3754098.42244  23352105.8314   23352106.3974
 96  2 25  0 25  0.0000000  0  8G 4G27G 7G12G 2G 5G 9G24
 -14440603.31744 -11252407.97344  21265203.1554   21265203.0074
  -4045769.26444                  24598441.6384
 -22037982.97844 -17172426.06944  20880551.6394   20880551.9484
 -18432262.368 4 -14362785.390 4  21336143.112    21336141.838
 -13813874.87844 -10764041.79844  22191613.4054   22191613.9154
  -2898857.97444  -2258847.27444  24757988.4034   24757988.0914
 -17404502.11544 -13561941.74744  21731634.9354   21731634.4094
  -4922698.57544  -3835862.41944  23332138.2704   23332140.2864
 96  2 25  0 25 30.0000000  0  8G 4G27G 7G12G 2G 5G 9G24
 -14502391.27044 -11300554.40444  21253445.2634   21253444.8714
  -3927423.39644                  24620961.7044
 -21990524.66844 -17135445.56144  20889582.5754   20889582.6974
 -18386389.467 4 -14327040.280 4  21344872.318    21344871.242
 -13764727.50644 -10725745.15644  22200966.0664   22200966.4124
  -2980224.95544  -2322250.05844  24742505.0774   24742504.8444
 -17464207.61044 -13608465.50644  21720273.0444   21720272.5114
  -5027516.63944  -3917538.72244  23312192.3444   23312194.8584
 96  2 25  0 26  0.0000000  0  8G 4G27G 7G12G 2G 5G 9G24
 -14563681.62244 -11348313.09044  21241781.9534   21241781.5844
  -3808996.80944                  24643497.5364
 -21942811.27744 -17098266.28744  20898661.8244   20898662.1364
 -18340100.026 4 -14290970.593 4  21353680.997    21353679.832
 -13715327.42744 -10687251.60344  22210366.5274   22210366.5074
  -3061609.48844  -2385666.46044  24727018.4374   24727016.4684
 -17523461.11044 -13654637.04844  21708997.3684   21708997.0584
  -5132186.46344  -3999099.51044  23292274.4124   23292275.4574
 96  2 25  0 26 30.0000000  0  8G 4G27G 7G12G 2G 5G 9G24
 -14624478.88144 -11395687.55444  21230212.7474   21230212.4634
  -3690496.16244                  24666048.9024
 -21894850.23044 -17060894.04144  20907788.7534   20907788.9594
 -18293398.703 4 -14254579.960 4  21362567.864    21362566.824
 -13665679.05844 -10648564.57244  22219814.0274   22219814.7184
  -3143026.44944  -2449108.20644  24711525.4204   24711525.9744
 -17582250.72244 -13700447.11644  21697810.2064   21697809.6894
  -5236707.51144  -4080544.39744  23272384.0464   23272386.5584
 96  2 25  0 27  0.0000000  0  8G 4G27G 7G12G 2G 5G 9G24
 -14684771.32644 -11442668.64844  21218739.3854   21218738.8414
  -3571930.83944  -2783322.08344  24688610.7904
 -21846632.74744 -17023321.96744  20916964.4924   20916964.3374
 -18246287.729 4 -14217870.114 4  21371532.791    21371531.718
 -13615776.66444 -10609679.59244  22229310.7164   22229310.8774
  -3224478.22144  -2512577.08444  24696026.3354   24696025.6534
 -17640588.42444 -13745905.06444  21686708.6344   21686708.1014
  -5341093.35144  -4161883.92844  23252520.6524   23252523.2854
 96  2 25  0 27 30.0000000  0  8G 4G27G 7G12G 2G 5G 9G24
 -14744552.29944 -11489251.19744  21207363.3504   21207363.0384
  -3453318.40144                  24711183.4264
 -21798170.07744 -16985558.83244  20926186.2984   20926185.9164
 -18198771.224 4 -14180844.274 4  21380574.951    21380573.788
 -13565627.04344 -10570601.96744  22238854.0214   22238854.1034
  -3305971.63944  -2576078.40544  24680518.6084   24680517.9394
 -17698482.95644 -13791017.66744  21675692.0944   21675691.6684
  -5445347.48644  -4243120.85144  23232681.2354   23232682.7604
 96  2 25  0 28  0.0000000  0  8G 4G27G 7G12G 2G 5G 9G24
 -14803827.78844 -11535439.85944  21196083.7594   21196083.1894
  -3334659.53644                  24733761.9424
 -21749483.95644 -16947621.57944  20935450.9714   20935450.7744
 -18150852.157 4 -14143504.748 4  21389693.661    21389692.544
 -13515228.97844 -10531330.75644  22248444.0554   22248444.7074
  -3387506.90044  -2639612.23944  24665001.8364   24665000.7004
 -17755935.58544 -13835785.93844  21664759.6224   21664758.9804
  -5549460.99644  -4324248.21144  23212869.2094   23212870.3994
 96  2 25  0 28 30.0000000  0  8G 4G27G 7G12G 2G 5G 9G24
 -14862579.15344 -11581220.11344  21184903.7024   21184903.2264
  -3215932.37944                  24756353.0404
 -21700561.69144 -16909500.32044  20944760.4644   20944760.6064
 -18102515.396 4 -14105839.751 4  21398891.888    21398890.754
 -13464560.04344 -10491848.48844  22258085.2924   22258086.7504
  -3469064.45444  -2703163.56544  24649482.1334   24649482.0674
 -17812940.54344 -13880205.36844  21653910.9434   21653910.6204
  -5653410.96444  -4405248.11844  23193087.8904   23193090.7024
 96  2 25  0 29  0.0000000  0  8G 4G27G 7G12G 2G 5G 9G24
 -14920830.79444 -11626610.97744  21173818.8974   21173818.4264
  -3097171.35744                  24778953.0734
 -21651426.54544 -16871213.18444  20954110.7344   20954110.7484
 -18053782.764 4 -14067866.283 4  21408165.382    21408164.104
 -13413632.88744 -10452165.00144  22267777.0664   22267777.7044
  -3550651.49244  -2766737.81744  24633955.3134   24633954.9004
 -17869540.66344 -13924309.34144  21643140.4754   21643140.3814
  -5757206.53144  -4486127.73044  23173336.1994   23173335.7974
 96  2 25  0 29 30.0000000  0  8G 4G27G 7G12G 2G 5G 9G24
 -14978585.74844 -11671614.80844  21162828.3434   21162827.8954
  -2978356.89244                  24801564.1724
 -21602076.48344 -16832758.57944  20963501.7744   20963501.7184
 -18004642.156 4 -14029574.912 4  21417516.524    21417515.435
 -13362443.34844 -10412277.05744  22277518.1494   22277518.7794
  -3632257.51944  -2830326.87544  24618426.5204   24618424.5114
 -17925716.01044 -13968082.32544  21632451.0434   21632450.6064
  -5860804.41744  -4566853.28244  23153622.6104   23153623.9244
 96  2 25  0 30  0.0000000  0  8G 4G27G 7G12G 2G 5G 9G24
 -15035862.98144 -11716246.38944  21151928.7054   21151928.2204
  -2859496.71144                  24824183.0814
 -21552518.74444 -16794142.15944  20972932.3494   20972932.5404
 -17955105.754 4 -13990975.129 4  21426942.952    21426941.857
 -13311016.17544 -10372203.95244  22287304.3494   22287305.1824
  -3713895.95544  -2893941.16544  24602889.6244   24602886.4124
 -17981478.26744 -14011533.41344  21621839.2564   21621839.0954
  -5964208.96744  -4647428.19944  23133944.9984   23133947.2624
 96  2 25  0 30 30.0000000  0  8G 4G27G 7G12G 2G 5G 9G24
 -15092662.58444 -11760505.79544  21141120.1704   21141119.8244
  -2740604.01944                  24846805.7634
 -21502753.76344 -16755364.22644  20982402.0024   20982401.5924
 -17905188.017 4 -13952078.203 4  21436442.056    21436440.862
 -13259382.11344 -10331969.62444  22297129.7934   22297130.6554
  -3795585.07144  -2957594.94044  24587343.3624   24587344.7514
 -18036837.17744 -14054670.21044  21611305.4074   21611304.6804
  -6067442.83344  -4727870.13744  23114300.2804   23114301.5124
 96  2 25  0 31  0.0000000  0  8G 4G27G 7G12G 2G 5G 9G24
 -15148972.56644 -11804383.67944  21130404.6774   21130404.2914
  -2621673.78044                  24869438.2804
 -21452784.32944 -16716426.99444  20991911.1984   20991911.1014
 -17854883.437 4 -13912879.843 4  21446014.678    21446013.550
 -13207546.69844 -10291578.41344  22306993.8024   22306993.6124
  -3877324.38844  -3021287.86244  24571790.6984   24571791.3714
 -18091771.82444 -14097476.42144  21600851.7234   21600851.0114
  -6170510.33344  -4808182.45044  23094687.2024   23094688.4414
 96  2 25  0 31 30.0000000  0  8G 4G27G 7G12G 2G 5G 9G24
 -15204767.55644 -11847860.27244  21119787.1584   21119786.7234
  -2502687.15744                  24892081.4214
 -21402603.54644 -16677325.07944  21001460.3404   21001460.3674
 -17804174.243 4 -13873366.194 4  21455664.391    21455663.103
 -13155506.25944 -10251027.42444  22316897.0884   22316897.0444
  -3959097.26644  -3085006.92644  24556229.4014   24556230.9284
 -18146241.06244 -14139919.96644  21590486.4054   21590485.9084
  -6273397.70244  -4888354.39044  23075108.3724   23075109.7864
 96  2 25  0 32  0.0000000  0  8G 4G27G 7G12G 2G 5G 9G24
 -15260039.07744 -11890928.96744  21109269.4964   21109269.1784
  -2383653.75544                  24914733.2674
 -21352222.54144 -16638067.14544  21011047.5344   21011047.4214
 -17753062.260 4 -13833538.685 4  21465390.713    21465389.413
 -13103252.28344 -10210310.03944  22326840.6304   22326841.1854
  -4040900.35444  -3148749.55144  24540662.3594   24540663.4124
 -18200236.63444 -14181994.41644  21580211.0444   21580210.6814
  -6376129.90644  -4968405.40944  23055559.3254   23055560.4864
 96  2 25  0 32 30.0000000  0  8G 4G27G 7G12G 2G 5G 9G24
 -15314776.96244 -11933581.84444  21098853.1004   21098852.6124
  -2264562.99644                  24937394.0644
 -21301636.67544 -16598649.57844  21020673.3334   21020673.4394
 -17701537.592 4 -13793389.605 4  21475195.447    21475194.230
 -13050747.27444 -10169397.04744  22336832.0694   22336831.7774
  -4122730.74744  -3212513.48444  24525089.9544   24525093.7464
 -18253732.34944 -14223679.37944  21570031.1844   21570030.5754
  -6478696.20044  -5048327.13844  23036041.0364   23036043.0694
 96  2 25  0 33  0.0000000  0  8G 4G27G 7G12G 2G 5G 9G24
 -15368990.42644 -11975826.07744  21088536.8294   21088536.3404
  -2145423.77344                  24960066.6364
 -21250861.86944 -16559084.79444  21030335.7814   21030335.6034
 -17649604.714 4 -13752922.441 4  21485078.083    21485076.712
 -12997972.10244 -10128273.55544  22346874.6514   22346874.9614
  -4204595.86044  -3276304.33044  24509512.2844   24509510.7344
 -18306729.20244 -14264975.61744  21559946.3064   21559945.9374
  -6581088.71144  -5128113.47344  23016556.0474   23016557.3884
 96  2 25  0 33 30.0000000  0  8G 4G27G 7G12G 2G 5G 9G24
 -15422683.16544 -12017664.55644  21078319.5854   21078318.7244
  -2026252.28844                  24982742.1234
 -21199895.04244 -16519370.38244  21040034.5114   21040034.0984
 -17597267.101 4 -13712139.896 4  21495037.505    21495036.329
 -12944911.18144 -10086927.39044  22356971.5484   22356972.0944
  -4286493.24644  -3340120.40444  24493928.5184   24493927.9754
 -18359229.24744 -14305884.72544  21549955.6494   21549955.1594
  -6683296.02844  -5207755.50744  22997107.1414   22997109.1884
 96  2 25  0 34  0.0000000  0  8G 4G27G 7G12G 2G 5G 9G24
 -15475862.49844 -12059102.97744  21068199.5814   21068199.0044
  -1907054.46544                  25005425.8544
 -21148736.82844 -16479506.83244  21049769.5854   21049769.3384
 -17544536.417 4 -13671051.061 4  21505071.693    21505070.764
 -12891555.67744 -10045351.68644  22367124.9924   22367125.6034
  -4368431.88744  -3403968.62044  24478334.1584   24478335.8574
 -18411261.02744 -14346428.96044  21540054.5704   21540054.0574
  -6785324.46444  -5287258.13644  22977691.3954   22977692.3984
 96  2 25  0 34 30.0000000  0  8G 4G27G 7G12G 2G 5G 9G24
 -15528524.05244 -12100137.93144  21058178.5544   21058177.7404
  -1787829.19244                  25028115.4974
 -21097368.10544 -16439479.25844  21059544.6974   21059544.4444
 -17491407.440 4 -13629651.869 4  21515181.913    21515180.755
 -12837903.09744 -10003544.48244  22377334.9094   22377335.2824
  -4450395.47144  -3467836.30544  24462738.7934   24462739.6644
 -18462835.28244 -14386616.67944  21530240.5604   21530239.9724
  -6887150.66944  -5366603.18344  22958314.9164   22958315.7774
 96  2 25  0 35  0.0000000  0  8G 4G27G 7G12G 2G 5G 9G24
 -15580673.72544 -12140774.02244  21048254.5464   21048253.9724
  -1668597.51944                  25050802.3484
 -21045793.84844 -16399291.52844  21069358.7834   21069358.6874
 -17437889.075 4 -13587949.257 4  21525366.127    21525364.915
 -12783981.18144  -9961527.41944  22387595.6924   22387596.5724
  -4532368.85144  -3531711.66644  24447138.4604   24447137.4844
 -18513968.87944 -14426461.02944  21520510.1114   21520509.6064
  -6988773.32444  -5445789.60844  22938976.5074   22938978.0904
 96  2 25  0 35 30.0000000  0  7G 4G 7G12G 2G 5G 9G24
 -15632328.68244 -12181024.61744  21038424.9774   21038424.4754
 -20994007.74444 -16358938.72144  21079213.4364   21079213.0464
 -17383990.468 4 -13545950.350 4  21535622.735    21535621.505
 -12729820.21444  -9919324.07144  22397902.3844   22397902.9524
  -4614352.50444  -3595594.91244  24431537.2894   24431536.2104
 -18564674.76744 -14465972.10044  21510861.0144   21510860.5124
  -7090199.15744  -5524822.69344  22919676.0684   22919677.4014
 96  2 25  0 36  0.0000000  0  7G 4G 7G12G 2G 5G 9G24
 -15683535.01044 -12220925.63044  21028680.9314   21028680.3144
 -20942054.27644 -16318455.49944  21089099.6804   21089099.5254
 -17329755.173 4 -13503689.093 4  21545943.350    21545942.048
 -12675482.76244  -9876983.07344  22408242.6254   22408242.2674
  -4696392.05344  -3659521.83044  24415925.8094   24415922.4234
 -18614995.90844 -14505183.37244  21501284.6904   21501284.1824
  -7191470.00944  -5603735.00144  22900404.4964   22900405.5104
 96  2 25  0 36 30.0000000  0  8G 4G26G 7G12G 2G 5G 9G24
 -15734257.44744 -12260449.58744  21019028.4294   21019027.9564
        -0.63754        -0.42154  24336630.6454   24336635.1454
 -20889900.41944 -16277816.13344  21099024.1124   21099024.2344
 -17275143.408 4 -13461134.478 4  21556335.621    21556334.653
 -12620951.07044  -9834491.06844  22418619.3074   22418619.6844
  -4778461.83344  -3723472.25944  24400308.1494   24400309.7534
 -18664865.06644 -14544042.44844  21491795.1614   21491794.7664
  -7292544.28144  -5682494.13744  22881170.8914   22881171.4714
 96  2 25  0 37  0.0000000  0  8G 4G26G 7G12G 2G 5G 9G24
 -15784475.36244 -12299580.40944  21009472.1384   21009471.7184
     70759.22844     55137.09744  24350097.9724   24350098.5954
 -20837548.63644 -16237022.54144  21108986.5074   21108986.6854
 -17220138.478 4 -13418273.501 4  21566802.653    21566801.677
 -12566213.47944  -9791838.38344  22429035.6824   22429036.1934
  -4860561.71044  -3787446.13944  24384686.1024   24384683.8654
 -18714257.59644 -14582530.12344  21482396.3584   21482395.5044
  -7393411.44244  -5761091.87644  22861976.7384   22861978.2104
 96  2 25  0 37 30.0000000  0  8G 4G26G 7G12G 2G 5G 9G24
 -15834213.09544 -12338337.06044  21000007.4504   21000007.0204
    141569.26344    110313.73444  24363574.5044   24363574.7994
 -20785047.53644 -16196112.59644  21118977.3104   21118977.1544
 -17164778.293 4 -13375135.699 4  21577337.337    21577336.262
 -12511302.26344  -9749050.42644  22439484.9414   22439485.5034
  -4942750.17744  -3851489.04044  24369046.8154   24369047.7474
 -18763211.58044 -14620676.08444  21473080.7004   21473079.9994
  -7494116.43044  -5839563.25244  22842812.9104   22842813.8394
 96  2 25  0 38  0.0000000  0  8G 4G26G 7G12G 2G 5G 9G24
 -15883421.11444 -12376680.95144  20990643.4894   20990642.9334
    212475.85644    165565.60944  24377068.3214   24377064.6814
 -20732387.51244 -16155078.81044  21128998.0484   21128998.0714
 -17109031.792 4 -13331696.875 4  21587945.699    21587944.388
 -12456176.64944  -9706095.41044  22449974.8584   22449975.6324
  -5025002.57044  -3915581.77244  24353394.0224   24353394.7754
 -18811687.39944 -14658449.44644  21463856.2154   21463855.6404
  -7594633.57244  -5917888.26244  22823685.0074   22823685.4034
 96  2 25  0 38 30.0000000  0  8G 4G26G 7G12G 2G 5G 9G24
 -15932059.05144 -12414580.61644  20981388.1524   20981387.5914
    283520.64844    220925.17844  24390588.7364   24390586.6444
 -20679534.30144 -16113894.49244  21139055.7484   21139055.5984
 -17052863.207 4 -13287929.155 4  21598634.128    21598632.915
 -12400784.57744  -9662932.76744  22460515.5414   22460515.6274
  -5107279.27244  -3979693.47544  24337737.5764   24337737.0104
 -18859651.48744 -14695824.05244  21454728.6124   21454728.0704
  -7694930.37744  -5996041.57944  22804599.2154   22804600.9294
 96  2 25  0 39  0.0000000  0  8G 4G26G 7G12G 2G 5G 9G24
 -15980119.68544 -12452030.43744  20972242.4484   20972242.0264
    354708.05544    276395.90944  24404135.0084   24404131.6534
 -20626478.58144 -16072552.37944  21149151.7104   21149151.8934
 -16996271.593 4 -13243831.801 4  21609403.298    21609401.926
 -12345108.03544  -9619548.45444  22471110.5494   22471110.5984
  -5189565.62044  -4043812.69744  24322079.8964   24322077.7924
 -18907114.07444 -14732807.88244  21445696.2374   21445695.9804
  -7795011.00844  -6074026.44944  22785554.1974   22785555.0254
 96  2 25  0 39 30.0000000  0  8G 4G26G 7G12G 2G 5G 9G24
 -16027611.37644 -12489036.92744  20963204.6764   20963204.2134
    426009.49144    331955.43744  24417702.3714   24417702.5904
 -20573210.86744 -16031045.07044  21159288.1504   21159288.0414
 -16939271.469 4 -13199416.132 4  21620249.976    21620248.969
 -12289160.45744  -9575952.95944  22481757.0224   22481757.6964
  -5271872.33444  -4107947.77544  24306417.0264   24306415.4064
 -18954070.59844 -14769397.38244  21436761.4644   21436760.9754
  -7894885.17644  -6151850.43244  22766548.8904   22766550.5284
 96  2 25  0 40  0.0000000  0  8G 4G26G 7G12G 2G 5G 9G24
 -16074551.32144 -12525613.47944  20954272.7034   20954272.1774
    497398.94844    387583.56344  24431283.6054   24431284.9754
 -20519734.96644 -15989375.53844  21169464.4744   21169464.4314
 -16881873.870 4 -13154690.741 4  21631172.330    21631171.221
 -12232948.05044  -9532151.10044  22492454.1624   22492454.5634
  -5354196.16844  -4172096.13744  24290750.4854   24290751.7714
 -19000527.36544 -14805597.45844  21427921.2124   21427920.5234
  -7994556.66744  -6229516.48644  22747581.7844   22747583.1624
 96  2 25  0 40 30.0000000  0  8G 4G26G 7G12G 2G 5G 9G24
 -16120945.54944 -12561764.79844  20945444.3234   20945443.8314
    568853.88544    443262.66244  24444877.7584
 -20466045.50744 -15947539.58944  21179681.2434   21179680.9074
 -16824080.309 4 -13109656.808 4  21642170.141    21642169.038
 -12176463.81944  -9488137.42844  22503202.4624   22503202.9324
  -5436539.31344  -4236259.57544  24275081.7534   24275081.8874
 -19046482.34144 -14841406.52744  21419175.8904   21419175.3324
  -8094019.01044  -6307019.57844  22728655.0694   22728655.9174
 96  2 25  0 41  0.0000000  0  8G 4G26G 7G12G 2G 5G 9G24
 -16166793.64944 -12597490.56544  20936719.5524   20936718.7214
    640364.53244    498985.20244  24458487.9414   24458493.1384
 -20412152.42544 -15905544.97644  21189936.7104   21189936.6854
 -16765889.537 4 -13064313.358 4  21653243.418    21653242.289
 -12119712.93244  -9443915.97744  22514001.8114   22514002.5274
  -5518904.81544  -4300440.43544  24259407.4834   24259406.9484
 -19091925.75044 -14876816.97844  21410528.0304   21410527.5434
  -8193259.11044  -6384349.49244  22709770.0754   22709771.2594
 96  2 25  0 41 30.0000000  0  8G 4G26G 7G12G 2G 5G 9G24
 -16212099.99044 -12632794.17844  20928097.9854   20928097.3004
    711931.41044    554751.53844  24472110.9104   24472114.7044
 -20358078.73844 -15863409.63044  21200226.6294   21200226.8204
 -16707300.625 4 -13018659.670 4  21664392.528    21664391.384
 -12062691.73644  -9399483.87844  22524852.7444   22524853.1964
  -5601283.27144  -4364631.43944  24243731.0084   24243730.7594
 -19136855.49344 -14911827.16644  21401978.4574   21401977.9524
  -8292255.58144  -6461489.55744  22690931.7324   22690932.8564
 96  2 25  0 42  0.0000000  0  8G 4G26G 7G12G 2G 5G 9G24
 -16256895.13044 -12667699.45244  20919573.4034   20919572.8324
    783544.70344    610554.07944  24485739.4904   24485739.2514
 -20303863.92144 -15821164.32044  21210543.2314   21210543.2424
 -16648325.091 4 -12972704.716 4  21675615.361    21675614.097
 -12005405.50544  -9354845.25744  22535753.9804   22535754.2014
  -5683676.07544  -4428833.53644  24228051.9704   24228054.8634
 -19181295.13744 -14946455.46444  21393521.9394   21393521.3034
  -8391012.83844  -6538443.22444  22672139.1394   22672140.5494
 96  2 25  0 42 30.0000000  0  8G 4G26G 7G12G 2G 5G 9G24
 -16301188.47744 -12702213.71944  20911144.9474   20911144.3464
    855204.65344    666392.97844  24499376.2254   24499376.1864
 -20249510.40344 -15778810.92544  21220886.3354   21220885.8444
 -16588965.001 4 -12926450.117 4  21686911.263    21686909.897
 -11947859.82144  -9310004.47244  22546704.1164   22546704.6294
  -5766090.00244  -4493052.14044  24212369.4654   24212369.9824
 -19225234.73144 -14980694.10344  21385160.3504   21385159.9794
  -8489527.56944  -6615207.90444  22653391.9824   22653392.8104
 96  2 25  0 43  0.0000000  0  8G 4G26G 7G12G 2G 5G 9G24
 -16344958.77644 -12736320.41444  20902815.9104   20902815.2074
    926940.62644    722291.12744  24513026.1264   24513023.3464
 -20194993.77444 -15736330.42344  21231260.5334   21231260.3214
 -16529203.261 4 -12879882.542 4  21698283.519    21698282.212
 -11890052.91844  -9264960.12944  22557704.8084   22557705.0324
  -5848502.04244  -4557269.25544  24196687.1964   24196688.0884
 -19268662.37844 -15014533.82644  21376896.3504   21376895.6464
  -8587777.59244  -6691766.32044  22634695.7744   22634696.5964
 96  2 25  0 43 30.0000000  0  8G 4G26G 7G12G 2G 5G 9G24
 -16388204.31044 -12770018.20144  20894586.3844   20894585.7744
    998743.28144    778241.23144  24526689.2564   24526686.7234
 -20140308.89344 -15693718.82644  21241666.6734   21241666.5194
 -16469052.695 4 -12833011.978 4  21709729.760    21709728.593
 -11832004.22044  -9219727.38644  22568751.2294   22568751.8634
  -5930918.88544  -4621490.10744  24181003.1894   24181005.2624
 -19311592.04544 -15047985.51344  21368727.2844   21368726.4594
  -8685774.32644  -6768127.34744  22616047.3574   22616048.6014
 96  2 25  0 44  0.0000000  0  8G 4G26G 7G12G 2G 5G 9G24
 -16430919.07944 -12803302.40644  20886457.8224   20886457.2344
   1070593.05944    834228.04644  24540360.4244   24540357.1984
 -20085445.96544 -15650968.48944  21252106.7544   21252106.6104
 -16408524.975 4 -12785847.535 4  21721247.884    21721246.644
 -11773734.31744  -9174322.29244  22579839.3634   22579839.8904
  -6013364.88444  -4685733.68844  24165313.6984   24165314.1714
 -19354032.74644 -15081056.18944  21360651.1474   21360650.6174
  -8783536.83244  -6844305.88144  22597443.9404   22597445.0354
 96  2 25  0 44 30.0000000  0  8G 4G26G 7G12G 2G 5G 9G24
 -16473089.32844 -12836162.31444  20878433.0944   20878432.4614
   1142476.58944    890241.20044  24554038.5554   24554042.4874
 -20030404.39744 -15608078.94944  21262580.7594   21262580.3544
 -16347634.173 4 -12738400.174 4  21732835.133    21732833.784
 -11715261.18044  -9128758.82544  22590966.3094   22590966.7694
  -6095860.04144  -4750015.60244  24149615.6164   24149616.2934
 -19395999.54944 -15113757.58244  21352665.1564   21352664.4354
  -8881084.32244  -6920316.86344  22578881.0854   22578882.1774
 96  2 25  0 45  0.0000000  0  8G 4G26G 7G12G 2G 5G 9G24
 -16514693.45244 -12868581.08444  20870516.1694   20870515.5374
   1214390.06544    946277.62944  24567720.9684   24567724.3334
 -19975189.81844 -15565054.60044  21273087.4294   21273087.5004
 -16286376.644 4 -12690667.047 4  21744491.942    21744490.565
 -11656572.93344  -9083027.74244  22602134.4764   22602135.8194
  -6178402.19544  -4814334.10544  24133908.5074   24133908.0944
 -19437498.71044 -15146094.58344  21344767.9134   21344767.2344
  -8978412.80844  -6996157.19244  22560360.1724   22560361.2974
 96  2 25  0 45 30.0000000  0  8G 4G26G 7G12G 2G 5G 9G24
 -16555710.66244 -12900542.52444  20862710.6654   20862710.2514
   1286342.88244   1002344.65544  24581412.4974   24581420.9364
 -19919797.98144 -15521892.13044  21283628.6184   21283628.7994
 -16224725.572 4 -12642627.265 4  21756223.726    21756222.373
 -11597621.53544  -9037091.60344  22613352.2924   22613353.1184
  -6260966.46244  -4878669.83444  24118197.2404   24118197.9264
 -19478503.01344 -15178045.99244  21336964.9114   21336964.4234
  -9075498.05044  -7071807.97344  22541885.5374   22541886.5994
 96  2 25  0 46  0.0000000  0  8G 4G26G 7G12G 2G 5G 9G24
 -16596157.93044 -12932059.83044  20855014.0274   20855013.3354
   1358328.75544   1058437.51644  24595115.0534   24595118.2214
 -19864245.42944 -15478604.42944  21294199.8324   21294200.1834
 -16162686.996 4 -12594285.527 4  21768029.302    21768028.050
 -11538396.05544  -8990941.89144  22624622.7154   22624623.1664
  -6343556.59344  -4943025.68244  24102481.2734   24102479.1974
 -19519018.46344 -15209616.48644  21329255.1144   21329254.7194
  -9172351.96344  -7147278.49944  22523454.5384   22523456.4164
 96  2 25  0 46 30.0000000  0  8G 4G26G 7G12G 2G 5G 9G24
 -16636037.67344 -12963134.93044  20847425.1194   20847424.3844
   1430360.85444   1114566.36644  24608824.8574   24608826.2534
 -19808532.18044 -15435191.50844  21304801.6644   21304801.8634
 -16100259.581 4 -12545640.797 4  21779908.836    21779907.578
 -11478889.15744  -8944572.89844  22635946.8424   22635947.3674
  -6426167.21044  -5007397.51944  24086761.3924   24086762.4304
 -19559048.93044 -15240809.04344  21321638.1614   21321637.3404
  -9268964.94944  -7222561.28944  22505070.2524   22505070.8754
 96  2 25  0 47  0.0000000  0  8G 4G26G 7G12G 2G 5G 9G24
 -16675369.33244 -12993782.95344  20839940.5424   20839939.5594
   1502421.66544   1170717.60744  24622538.2814   24622537.8814
 -19752667.37644 -15391660.49844  21315432.5694   21315432.6754
 -16037451.886 4 -12496699.748 4  21791860.638    21791859.655
 -11419103.91744  -8897987.00644  22647323.4154   22647324.2914
  -6508806.79644  -5071791.99944  24071036.1804   24071036.0214
 -19598592.27844 -15271622.03744  21314113.0354   21314112.1154
  -9365324.51344  -7297646.61844  22486733.2274   22486734.2364
 96  2 25  0 47 30.0000000  0  8G 4G26G 7G12G 2G 5G 9G24
 -16714147.41744 -13023999.61944  20832561.4114   20832560.2524
   1574529.06244   1226905.16144  24636260.0064   24636259.2424
 -19696636.51844 -15348000.09044  21326095.2724   21326094.9664
 -15974254.868 4 -12447455.327 4  21803886.590    21803885.553
 -11359042.05544  -8851185.57044  22658752.6544   22658753.1604
  -6591454.23044  -5136192.58144  24055309.3324   24055307.9024
 -19637631.56344 -15302042.25044  21306684.2224   21306683.5284
  -9461416.73644  -7372523.61744  22468447.2934   22468447.8554
 96  2 25  0 48  0.0000000  0  8G 4G26G 7G12G 2G 5G 9G24
 -16752371.00244 -13053784.20644  20825287.6124   20825286.7534
   1646669.99644   1283118.86644  24649986.9194   24649987.3784
 -19640428.76144 -15304201.84444  21336790.9844   21336790.9924
 -15910686.234 4 -12397921.337 4  21815983.500    21815982.242
 -11298749.25544  -8804204.17344  22670226.3264   22670227.5744
  -6674123.35244  -5200610.03144  24039577.1204   24039576.6174
 -19676173.30244 -15332074.77144  21299349.6644   21299348.9094
  -9557246.53044  -7447196.13144  22450211.6714   22450212.1604
 96  2 25  0 48 30.0000000  0  8G 4G26G 7G12G 2G 5G 9G24
 -16790041.59444 -13083137.88844  20818119.2124   20818118.4174
   1718830.13944   1339347.50444  24663715.0864
 -19584060.56944 -15260278.58644  21347517.0834   21347517.5124
 -15846752.449 4 -12348102.814 4  21828149.719    21828148.293
 -11238245.85244  -8757058.67544  22681739.3994   22681739.9514
  -6756831.60244  -5265057.96544  24023838.7404   24023839.0804
 -19714217.37144 -15361719.49544  21292109.9554   21292109.5924
  -9652810.63244  -7521661.62644  22432026.3024   22432026.7424
 96  2 25  0 49  0.0000000  0  8G 4G26G 7G12G 2G 5G 9G24
 -16827139.55544 -13112045.37144  20811059.3274   20811058.5184
   1791011.32144                  24677448.3674
 -19527535.04044 -15216232.72944  21358273.7794   21358273.9724
 -15782433.431 4 -12297984.105 4  21840389.256    21840387.804
 -11177513.14344  -8709734.51744  22693297.1024   22693297.3014
  -6839554.47144  -5329517.32544  24008096.2314   24008093.2084
 -19751720.63744 -15390942.81744  21284973.2984   21284972.7624
  -9748090.17244  -7595905.37544  22413895.3224   22413896.1224
 96  2 25  0 49 30.0000000  0  8G 4G26G 7G12G 2G 5G 9G24
 -16863679.52944 -13140518.05044  20804106.0344   20804105.4374
   1863191.05044   1451836.46144  24691185.5624   24691186.4774
 -19470879.24544 -15172085.36144  21369054.7654   21369054.8554
 -15717754.211 4 -12247584.720 4  21852697.221    21852696.043
 -11116579.28944  -8662253.58544  22704892.2974   22704893.1424
  -6922303.64144  -5393997.19044  23992349.5624   23992347.8624
 -19788711.95344 -15419767.21244  21277934.5314   21277933.9234
  -9843125.19044  -7669958.59244  22395810.8304   22395811.5244
 96  2 25  0 50  0.0000000  0  8G 4G26G 7G12G 2G 5G 9G24
 -16899670.48444 -13168562.92844  20797257.1604   20797256.3114
   1935353.39844   1508066.86644  24704918.3664   24704919.3544
 -19414101.41944 -15127842.90244  21379859.2024   21379859.1514
 -15652718.086 4 -12196907.223 4  21865073.184    21865071.834
 -11055434.45444  -8614608.27944  22716527.5804   22716528.1904
  -7005096.26144  -5458510.87344  23976593.3504   23976594.2864
 -19825189.84144 -15448191.53244  21270992.9654   21270992.4814
  -9937918.54844  -7743823.51544  22377771.9874   22377772.8754
 96  2 25  0 50 30.0000000  0  8G 4G26G 7G12G 2G 5G 9G24
 -16935088.59844 -13196161.43444  20790517.2644   20790516.7014
   2007537.21844   1564313.94244  24718657.0214   24718658.2834
 -19357190.54644 -15083496.77744  21390688.7494   21390688.8534
 -15587285.494 4 -12145920.790 4  21877524.671    21877523.316
 -10994009.65944  -8566744.80944  22728216.1834   22728216.6044
  -7087891.76144  -5523026.80044  23960837.7704   23960838.8824
 -19861110.31344 -15476181.50344  21264157.3054   21264156.5454
 -10032428.60544  -7817467.68144  22359787.3764   22359788.1504
 96  2 25  0 51  0.0000000  0  8G 4G26G 7G12G 2G 5G 9G24
 -16969899.26244 -13223286.60044  20783893.1824   20783892.3194
   2079770.89144   1620599.91744  24732403.3714   24732403.4784
 -19300103.09444 -15039013.04744  21401552.5414   21401552.1764
 -15521427.059 4 -12094602.535 4  21890057.071    21890055.830
 -10932267.08244  -8518633.71244  22739965.9974   22739966.0924
  -7170646.30544  -5587510.78644  23945090.6514   23945092.2084
 -19896439.17844 -15503710.48344  21257434.4184   21257433.8614
 -10126629.90344  -7890871.27044  22341861.8224   22341862.2054
 96  2 25  0 51 30.0000000  0  8G 4G26G 7G12G 2G 5G 9G24
 -17004127.95944 -13249958.28844  20777379.8404   20777378.9054
   2152048.28344   1676919.90344  24746157.5644   24746158.6554
 -19242834.92044 -14994388.49544  21412450.5284   21412450.0074
 -15455162.158 4 -12042967.553 4  21902666.942    21902665.487
 -10870228.71744  -8470292.12944  22751771.1084   22751771.8794
  -7253387.71544  -5651984.57944  23929344.4134   23929344.9854
 -19931211.58844 -15530805.85444  21250817.4374   21250816.9334
 -10220540.13044  -7964048.03244  22323990.4524   22323991.7594
 96  2 25  0 52  0.0000000  0  8G 4G26G 7G12G 2G 5G 9G24
 -17037792.95644 -13276190.72544  20770973.3794   20770972.7534
   2224358.84444   1733265.79744  24759917.2724   24759919.2494
 -19185406.22544 -14949638.86444  21423379.0974   21423378.7104
 -15388504.574 4 -11991026.580 4  21915351.391    21915350.072
 -10807908.91644  -8421731.26444  22763630.0154   22763630.9954
  -7336139.39244  -5716466.36144  23913597.7714   23913596.2764
 -19965442.75244 -15557479.48444  21244303.3574   21244302.7814
 -10314159.44144  -8036998.12144  22306175.3604   22306176.1554
 96  2 25  0 52 30.0000000  0  8G 4G26G 7G12G 2G 5G 9G24
 -17070900.36344 -13301988.67944  20764673.3314   20764672.6484
   2296690.26544   1789627.89844  24773680.1324   24773684.1064
 -19127828.18244 -14904772.86044  21434335.5134   21434335.2194
 -15321472.369 4 -11938793.695 4  21928107.210    21928106.020
 -10745331.85744  -8372969.93544  22775538.1384   22775538.9174
  -7418911.17444  -5780963.85544  23897847.3624   23897846.6944
 -19999157.32144 -15583750.56144  21237888.0184   21237887.3494
 -10407511.24244  -8109739.74844  22288411.1854   22288411.9524
 96  2 25  0 53  0.0000000  0  8G 4G26G 7G12G 2G 5G 9G24
 -17103440.93344 -13327344.94244  20758480.9324   20758480.2334
   2369035.04744                  24787442.3844
 -19070086.94444 -14859779.68544  21445323.2824   21445322.9174
 -15254069.665 4 -11886272.108 4  21940933.449    21940932.303
 -10682517.26244  -8324023.51244  22787491.6834   22787491.2894
  -7501702.00444  -5845476.13044  23882092.9254   23882092.9634
 -20032371.60044 -15609631.81044  21231567.3374   21231566.4294
 -10500605.24844  -8182280.50744  22270695.9854   22270696.7384
 96  2 25  0 53 30.0000000  0  8G 4G26G 7G12G 2G 5G 9G24
 -17135419.50244 -13352263.28244  20752395.4814   20752394.6454
   2441377.66544                  24801209.6434
 -19012204.74544 -14814676.67344  21456338.0634   21456337.6744
 -15186305.947 4 -11833469.214 4  21953828.454    21953827.268
 -10619470.81644  -8274896.42844  22799488.4934   22799488.8834
  -7584526.11044  -5910014.35644  23866332.2394   23866332.5884
 -20065096.29344 -15635131.55844  21225340.0034   21225339.3814
 -10593432.55944  -8254613.45544  22253031.8684   22253032.5474
 96  2 25  0 54  0.0000000  0  8G 4G26G 7G12G 2G 5G 9G24
 -17166794.45944 -13376711.27544  20746425.1594   20746424.3794
   2513729.23244   1958749.04944  24814981.3314
 -18954167.95144 -14769453.20144  21467381.9604   21467381.8684
 -15118156.715 4 -11780365.918 4  21966796.882    21966795.790
 -10556161.72744  -8225564.68044  22811536.0924   22811537.0994
  -7667345.97044  -5974549.26344  23850571.9734   23850572.2924
 -20097291.29044 -15660218.56244  21219213.3404   21219212.8664
 -10685960.29944  -8326712.96844  22235424.3824   22235424.9594
 96  2 25  0 54 30.0000000  0  8G 4G26G 7G12G 2G 5G 9G24
 -17197552.66144 -13400678.67844  20740571.8534   20740570.9744
   2586086.51344   2015131.38544  24828752.8004   24828751.7824
 -18895954.57844 -14724092.13744  21478459.5674   21478459.7374
 -15049613.172 4 -11726955.370 4  21979840.210    21979839.074
 -10492585.17044  -8176024.52544  22823634.5344   22823635.2104
  -7750138.96044  -6039063.23244  23834817.2744   23834816.9234
 -20128941.52344 -15684881.07644  21213190.4304   21213190.0794
 -10778170.04944  -8398564.69544  22217877.1494   22217877.6894
 96  2 25  0 55  0.0000000  0  8G 4G26G 7G12G 2G 5G 9G24
 -17227737.24244 -13424199.10944  20734828.0844   20734827.2974
   2658401.52944   2071480.71644  24842513.9954   24842512.4214
 -18837614.96344 -14678632.69444  21489561.2814   21489561.0524
 -14980711.830 4 -11673266.014 4  21992951.818    21992950.594
 -10428783.81344  -8126309.19344  22835775.1224   22835776.4634
  -7832933.44644  -6103578.38844  23819061.5834   23819062.0334
 -20160076.60144 -15709142.16944  21207265.6764   21207265.3144
 -10870075.41344  -8470179.23744  22200387.9134   22200388.5484
 96  2 25  0 55 30.0000000  0  8G 4G26G 7G12G 2G 5G 9G24
 -17257377.77444 -13447295.60344  20729187.5874   20729186.8634
   2730665.48044   2127790.29044  24856265.3024   24856264.9954
 -18779172.98644 -14633093.49044  21500682.7934   21500682.3844
 -14911472.089 4 -11619312.970 4  22006127.807    22006126.400
 -10364772.01744  -8076429.87444  22847956.0174   22847956.2334
  -7915756.44444  -6168115.75044  23803301.0114   23803302.0154
 -20190702.39544 -15733006.41944  21201438.3574   21201437.3184
 -10961683.77744  -8541562.34744  22182955.5004   22182956.7554
 96  2 25  0 56  0.0000000  0  8G 4G26G 7G12G 2G 5G 9G24
 -17286449.28444 -13469948.70244  20723655.5644   20723654.6254
   2802920.88344   2184093.13644  24870013.1994   24870016.8034
 -18720584.46544 -14587440.09944  21511831.5404   21511831.3874
 -14841859.711 4 -11565069.565 4  22019374.611    22019373.354
 -10300521.85044  -8026364.83044  22860182.8014   22860183.1334
  -7998566.26844  -6232642.83144  23787542.4824   23787542.1174
 -20220792.14344 -15756452.97044  21195712.2574   21195711.7564
 -11052964.17444  -8612689.88744  22165585.3974   22165586.1744
 96  2 25  0 56 30.0000000  0  8G 4G26G 7G12G 2G 5G 9G24
 -17314973.14144 -13492175.05944  20718227.5774   20718226.7834
   2875160.78044   2240383.91444  24883755.6414
 -18661862.15444 -14541682.45944  21523005.9914   21523005.5184
 -14771881.335 4 -11510540.962 4  22032690.965    22032689.752
 -10236037.82444  -7976117.53244  22872453.8384   22872454.4314
  -8081377.47044  -6297170.98444  23771783.2904   23771783.1454
 -20250362.72344 -15779494.97544  21190085.3214   21190084.6004
 -11143923.63044  -8683567.35344  22148276.4614   22148276.7864
 96  2 25  0 57  0.0000000  0  8G 4G26G 7G12G 2G 5G 9G24
 -17342928.42144 -13513958.37544  20712907.7424   20712906.9174
   2947404.88244                  24897503.4224
 -18602992.09744 -14495809.68544  21534208.3644   21534208.1194
 -14701515.147 4 -11455710.173 4  22046081.274    22046079.866
 -10171282.51444  -7925658.86444  22884775.6414   22884776.4924
  -8164187.38844  -6361698.12744  23756024.7274   23756024.6054
 -20279372.66744 -15802100.12644  21184564.6534   21184563.9354
 -11234544.99844  -8754181.36144  22131031.6724   22131032.4644
 96  2 25  0 57 30.0000000  0  8G 4G26G 7G12G 2G 5G 9G24
 -17370306.30044 -13535291.76344  20707698.0704   20707697.4114
   3019646.02944                  24911254.7684
 -18543969.03844 -14449817.68844  21545440.0384   21545439.9654
 -14630766.157 4 -11400581.100 4  22059544.250    22059543.203
 -10106245.58444  -7874980.76244  22897152.5344   22897152.7194
  -8247007.41344  -6426233.18144  23740264.3144   23740263.5144
 -20307823.13144 -15824269.31744  21179150.4844   21179149.9864
 -11324843.83944  -8824544.03544  22113848.2124   22113849.4474
 96  2 25  0 58  0.0000000  0  8G 4G26G 7G12G 2G 5G 9G24
 -17397127.68044 -13556191.51844  20702593.9634   20702592.9984
   3091827.73844   2409215.23244  24924991.7514
 -18484835.54044 -14403739.64044  21556693.0024   21556692.9574
 -14559670.545 4 -11345181.932 4  22073073.253    22073072.253
 -10040963.11444  -7824111.32444  22909575.7054   22909575.4854
  -8329862.43244  -6490795.55144  23724498.0274   23724498.6234
 -20335751.77744 -15846031.89944  21173836.0244   21173835.4854
 -11414858.09644  -8894684.96544  22096719.6454   22096720.5564
 96  2 25  0 58 30.0000000  0  8G 4G26G 7G12G 2G 5G 9G24
 -17423359.55944 -13576631.92444  20697602.1504   20697601.3824
   3163956.30544   2465419.36244  24938718.0124   24938713.4644
 -18425584.98944 -14357570.37944  21567967.7994   21567967.4344
 -14488216.627 4 -11289503.563 4  22086670.520    22086669.554
  -9975417.48344  -7773036.83144  22922047.5834   22922048.1274
  -8412740.57644  -6555375.89244  23708726.7434   23708726.6954
 -20363123.75244 -15867360.70944  21168627.4814   21168626.6404
 -11504583.02844  -8964600.43344  22079644.8454   22079645.4434
 96  2 25  0 59  0.0000000  0  8G 4G26G 7G12G 2G 5G 9G24
 -17448982.30244 -13596597.68044  20692726.3834   20692725.6024
   3236042.63244   2521590.74044  24952434.7414   24952433.2744
 -18366204.80844 -14311300.11744  21579267.2324   21579267.5534
 -14416399.655 4 -11233542.295 4  22100336.831    22100335.916
  -9909601.13344  -7721751.40044  22934572.2164   22934572.5724
  -8495631.84044  -6619966.43744  23692953.6114   23692953.9634
 -20389930.49944 -15888249.08244  21163526.4424   21163525.5234
 -11594004.25444  -9034279.26244  22062628.7494   22062629.5244
 96  2 25  0 59 30.0000000  0  8G 4G26G 7G12G 2G 5G 9G24
 -17473994.21444 -13616087.46344  20687966.7334   20687965.8464
   3308093.38344                  24966142.6044
 -18306702.82744 -14264934.93844  21590590.6854   21590590.2334
 -14344225.722 4 -11177302.878 4  22114071.190    22114070.103
  -9843519.77244  -7670259.46444  22947147.6004   22947148.1924
  -8578520.04244  -6684554.60044  23677180.8674   23677179.8174
 -20416203.92944 -15908721.88244  21158526.6604   21158526.0994
 -11683129.62844  -9103727.54744  22045668.9094   22045669.7934
 96  2 25  1  0  0.0000000  0  8G 4G26G 7G12G 2G 5G 9G24
 -17498392.12944 -13635098.80744  20683323.9124   20683322.9734
   3380121.68144                  24979846.5994
 -18247077.00844 -14218473.25244  21601936.9314   21601936.3274
 -14271692.169 4 -11120783.238 4  22127873.727    22127872.720
  -9777176.63944  -7618563.54344  22959772.8174   22959773.1154
  -8661392.17244  -6749130.25244  23661411.0294   23661411.4814
 -20441943.96844 -15928779.05044  21153628.3674   21153627.7464
 -11771944.24644  -9172933.67844  22028767.8384   22028769.0854
 96  2 25  1  0 30.0000000  0  8G 4G26G 7G12G 2G 5G 9G24
 -17522182.69844 -13653636.89444  20678796.5894   20678795.7864
   3452133.14344   2689971.50944  24993550.3344
 -18187317.64644 -14171907.50544  21613308.5814   21613308.8484
 -14198800.768 4 -11063984.756 4  22141744.597    22141743.297
  -9710572.80144  -7566664.46944  22972446.3514   22972446.3794
  -8744258.19744  -6813701.17144  23645640.5744   23645638.6134
 -20467160.42744 -15948428.24344  21148829.5554   21148829.0694
 -11860442.49344  -9241893.28844  22011927.2944   22011928.5134
 96  2 25  1  1  0.0000000  0  8G 4G26G 7G12G 2G 5G 9G24
 -17545379.40244 -13671712.23344  20674382.4504   20674381.5894
   3524123.70944   2746068.02344  25007254.0504   25007256.4254
 -18127419.51344 -14125233.63844  21624706.7724   21624707.1484
 -14125549.190 4 -11006905.615 4  22155683.972    22155682.640
  -9643710.08444  -7514563.67444  22985169.7094   22985171.4814
  -8827111.43944  -6878262.09444  23629875.0264   23629876.1204
 -20491867.79544 -15967680.73744  21144127.9354   21144127.1514
 -11948613.46644  -9310597.88944  21995148.6164   21995149.8124
 96  2 25  1  1 30.0000000  0  8G 4G26G 7G12G 2G 5G 9G24
 -17567981.30644 -13689324.08544  20670081.5294   20670080.5344
   3596079.58244   2802137.51044  25020947.3744   25020948.3314
 -18067381.88244 -14078451.06444  21636131.6474   21636131.2974
 -14051937.533 4 -10949545.895 4  22169691.838    22169690.533
  -9576601.78144  -7462271.51944  22997940.5274   22997941.5684
  -8909946.42344  -6942808.77644  23614111.5104   23614111.9374
 -20516056.55844 -15986529.12644  21139525.1974   21139524.3864
 -12036464.05244  -9379052.83144  21978431.1104   21978431.7964
 96  2 25  1  2  0.0000000  0  8G 4G26G 7G12G 2G 5G 9G24
 -17590001.19244 -13706482.42044  20665891.4224   20665890.4084
   3667978.22344   2858162.41644  25034628.8544   25034627.5444
 -18007215.88544 -14031568.47444  21647581.3044   21647581.1204
 -13977972.805 4 -10891911.052 4  22183766.675    22183765.584
  -9509274.70744  -7409808.87544  23010751.9334   23010752.4644
  -8992784.56744  -7007357.93744  23598348.2084   23598348.6634
 -20539711.04844 -16004961.18544  21135023.8704   21135023.1954
 -12123983.24744  -9447249.55644  21961776.6064   21961777.5354
 96  2 25  1  2 30.0000000  0  8G 4G26G 7G12G 2G 5G 9G24
 -17611465.20944 -13723207.61344  20661806.7354   20661805.7774
   3739791.02844   2914120.42944  25048293.6714
 -17946947.43544 -13984606.05244  21659049.8054   21659049.2744
 -13903671.440 4 -10834013.896 4  22197905.816    22197904.723
  -9441745.72544  -7357188.90544  23023602.4874   23023602.2284
  -9075636.00144  -7071917.45644  23582582.2984   23582580.8754
 -20562839.52044 -16022983.36844  21130622.6324   21130621.6284
 -12211185.63544  -9515199.41544  21945182.7534   21945183.2434
 96  2 25  1  3  0.0000000  0  8G 4G26G 7G12G 2G 5G 9G24
 -17632314.13144 -13739453.51344  20657839.3764   20657838.6904
   3811580.12344                  25061951.7704
 -17886530.62344 -13937528.01744  21670546.4984   21670546.6544
 -13828974.375 4 -10775808.400 4  22212120.310    22212119.124
  -9373957.45344  -7304366.87544  23036501.9224   23036502.4494
  -9158424.64344  -7136428.05344  23566827.6984   23566826.7014
 -20585359.16244 -16040531.13844  21126337.4114   21126337.0024
 -12298004.88044  -9582850.72544  21928661.9244   21928662.4104
 96  2 25  1  3 30.0000000  0  8G 4G26G 7G12G 2G 5G 9G24
 -17652547.38444 -13755219.66644  20653989.1684   20653988.0334
   3883354.20144                  25075611.0654
 -17825974.43044 -13890341.37644  21682070.2164   21682069.9834
 -13753882.678 4 -10717295.401 4  22226409.655    22226408.668
  -9305905.93544  -7251339.72344  23049451.4794   23049451.9184
  -9241149.75044  -7200889.15844  23551087.0054   23551086.9074
 -20607258.85144 -16057595.83244  21122169.6944   21122169.0354
 -12384418.06044  -9650185.63144  21912217.8654   21912218.1914
 96  2 25  1  4  0.0000000  0  8G 4G26G 7G12G 2G 5G 9G24
 -17672215.71544 -13770545.62244  20650246.3174   20650245.3644
   3955076.41144   3081875.16144  25089261.7874   25089267.5794
 -17765327.90344 -13843084.34644  21693610.7544   21693610.3834
 -13678440.172 4 -10658509.035 4  22240765.905    22240764.909
  -9237622.08944  -7198131.56044  23062445.6904   23062446.6784
  -9323858.18744  -7265337.24344  23535347.7814   23535347.7864
 -20628591.79144 -16074218.90744  21118110.5434   21118109.9394
 -12470457.65144  -9717229.41344  21895845.0364   21895845.4754
 96  2 25  1  4 30.0000000  0  8G 4G26G 7G12G 2G 5G 9G24
 -17691326.61344 -13785437.21444  20646609.6454   20646608.7034
   4026741.05544   3137717.66244  25102898.9554   25102901.0234
 -17704584.56144 -13795751.88044  21705169.8404   21705170.1274
 -13602656.336 4 -10599456.703 4  22255187.076    22255186.089
  -9169093.26244  -7144732.51044  23075487.1104   23075487.3234
  -9406549.57744  -7329772.02744  23519612.1024   23519612.3844
 -20649376.29344 -16090414.61744  21114155.2804   21114154.6984
 -12556138.80544  -9783993.90744  21879540.2644   21879540.8234
 96  2 25  1  5  0.0000000  0  8G 4G26G 7G12G 2G 5G 9G24
 -17709908.47344 -13799916.57044  20643073.6344   20643072.6444
   4098309.97944   3193485.64344  25116519.8914   25116520.0474
 -17643763.77044 -13748359.05644  21716743.5924   21716743.3524
 -13526567.636 4 -10540166.815 4  22269666.379    22269665.131
  -9100346.04444  -7091163.27944  23088568.1784   23088569.8924
  -9489280.60744  -7394237.70144  23503869.2734   23503868.1694
 -20669660.13544 -16106220.21344  21110295.3794   21110294.3404
 -12641497.37344  -9850507.02744  21863297.3944   21863297.9094
 96  2 25  1  5 30.0000000  0  8G 4G26G 7G12G 2G 5G 9G24
 -17727920.17044 -13813951.64444  20639645.8954   20639645.0454
   4169799.42344   3249191.65844  25130121.9554   25130120.5074
 -17582818.75644 -13700869.44144  21728341.3084   21728340.9354
 -13450136.277 4 -10480609.918 4  22284210.750    22284209.544
  -9031332.56544  -7037386.55944  23101702.4334   23101703.0444
  -9572031.92644  -7458719.23944  23488122.7594   23488120.3244
 -20689415.89844 -16121614.31244  21106536.2624   21106535.3414
 -12726505.20744  -9916746.85244  21847120.2714   21847121.5584
 96  2 25  1  6  0.0000000  0  8G 4G26G 7G12G 2G 5G 9G24
 -17745338.67844 -13827524.49144  20636331.2834   20636330.4134
   4241202.35644                  25143706.1664
 -17521732.06044 -13653269.42244  21739965.6724   21739965.5044
 -13373353.782 4 -10420779.412 4  22298821.993    22298820.735
  -8962039.89844  -6983392.29044  23114887.7534   23114889.1934
  -9654797.33544  -7523211.74344  23472371.3244   23472371.0094
 -20708638.49144 -16136592.95444  21102878.1334   21102877.2844
 -12811182.84344  -9982729.37444  21831007.0564   21831007.9244
 96  2 25  1  6 30.0000000  0  8G 4G26G 7G12G 2G 5G 9G24
 -17762143.62744 -13840619.24444  20633133.7014   20633132.4694
   4312522.45444   3360404.26944  25157277.3314
 -17460499.21944 -13605555.53044  21751617.3034   21751617.5264
 -13296213.043 4 -10360669.750 4  22313501.229    22313500.211
  -8892459.40544  -6929173.74244  23128128.8184   23128128.2444
  -9737557.50944  -7587700.15444  23456621.3374   23456622.2874
 -20727306.37444 -16151139.35144  21099325.7954   21099325.1864
 -12895523.67944 -10048449.46644  21814957.0864   21814957.8074
 96  2 25  1  7  0.0000000  0  8G 4G26G 7G12G 2G 5G 9G24
 -17778323.71744 -13853227.09444  20630054.6344   20630053.6034
   4383769.76644   3415921.64944  25170839.9654   25170840.2514
 -17399132.92344 -13557737.65044  21763294.7504   21763295.6614
 -13218701.651 4 -10300271.271 4  22328251.224    22328250.216
  -8822591.37344  -6874731.14844  23141423.9734   23141425.0814
  -9820298.17944  -7652173.30944  23440876.8974   23440878.8574
 -20745402.35744 -16165240.11444  21095881.9174   21095881.2764
 -12979518.14644 -10113899.65544  21798973.6554   21798974.1184
 96  2 25  1  7 30.0000000  0  8G 4G26G 7G12G 2G 5G 9G24
 -17793918.06244 -13865378.51844  20627087.1134   20627086.0704
   4454905.00344   3471351.66944  25184378.7564   25184379.2784
 -17337689.02444 -13509859.29144  21774987.8324   21774987.7364
 -13140858.178 4 -10239614.022 4  22343064.445    22343063.311
  -8752479.47744  -6820098.53044  23154765.9124   23154766.4524
  -9903029.20344  -7716639.00744  23425134.1964   23425133.9424
 -20762938.75844 -16178904.84644  21092545.0794   21092544.3314
 -13063201.10444 -10179107.11444  21783049.2194   21783049.6284
 96  2 25  1  8  0.0000000  0  8G 4G26G 7G12G 2G 5G 9G24
 -17808903.58944 -13877055.53944  20624235.6814   20624234.5974
   4525972.79244   3526729.15344  25197901.7934   25197902.6444
 -17276156.71544 -13461912.04044  21786697.3204   21786697.2434
 -13062665.995 4 -10178685.058 4  22357943.959    22357942.523
  -8682112.40644  -6765267.06944  23168155.9074   23168156.2144
  -9985720.17444  -7781073.51344  23409398.5874   23409397.5154
 -20779896.10944 -16192118.36144  21089318.1404   21089317.5514
 -13146537.55844 -10244044.56544  21767190.5784   21767190.9124
 96  2 25  1  8 30.0000000  0  8G 4G26G 7G12G 2G 5G 9G24
 -17823276.39244 -13888255.11244  20621500.6754   20621499.3584
   4596986.92544   3582064.86144  25211413.6994   25211414.9224
 -17214540.68944 -13413899.55944  21798422.0034   21798421.6344
 -12984119.774 4 -10117480.218 4  22372890.827    22372889.383
  -8611494.29944  -6710239.98444  23181594.7664   23181595.7274
 -10068367.20844  -7845473.68344  23393670.9344   23393671.5414
 -20796263.15344 -16204871.90344  21086203.8724   21086202.7574
 -13229492.71344 -10308684.91244  21751404.9604   21751405.4014
 96  2 25  1  9  0.0000000  0  8G 4G26G 7G12G 2G 5G 9G24
 -17837059.00944 -13898994.80244  20618877.6694   20618876.6414
   4667931.47044                  25224907.3764
 -17152846.73644 -13365826.35044  21810161.8804   21810162.0324
 -12905233.515 4 -10056010.408 4  22387902.422    22387901.029
  -8540641.40844  -6655029.95044  23195078.0834   23195078.5074
 -10150991.83644  -7909856.61344  23377948.4024   23377948.2334
 -20812058.83544 -16217180.22344  21083198.0844   21083197.3834
 -13312078.43844 -10373037.37744  21735689.3404   21735689.6424
 96  2 25  1  9 30.0000000  0  8G 4G26G 7G12G 2G 5G 9G24
 -17850245.14244 -13909269.69744  20616368.1464   20616367.4314
   4738801.98444   3692569.90344  25238396.6084   25238406.5374
 -17091063.12044 -13317683.28044  21821919.0884   21821919.4764
 -12826017.113 4  -9994283.351 4  22402976.859    22402975.451
  -8469561.51944  -6599643.03644  23208603.1824   23208605.0554
 -10233604.31444  -7974229.85344  23362227.8614   23362228.4314
 -20827292.90144 -16229050.91944  21080299.0834   21080298.0594
 -13394295.98044 -10437102.95344  21720043.4814   21720044.3704
 96  2 25  1 10  0.0000000  0  8G 4G26G 7G12G 2G 5G 9G24
 -17862823.49344 -13919071.00044  20613974.9044   20613973.6774
   4809621.56344   3747753.97144  25251877.1384   25251873.6044
 -17029172.20944 -13269456.59944  21833696.6604   21833696.3394
 -12746457.514 4  -9932288.870 4  22418116.417    22418115.048
  -8398250.16144  -6544075.76044  23222173.9594   23222173.4214
 -10316205.69444  -8038594.51744  23346509.4694   23346509.1264
 -20841983.37344 -16240498.03944  21077503.4384   21077502.5594
 -13476133.10844 -10500872.10544  21704470.6654   21704471.3244
 96  2 25  1 10 30.0000000  0  8G 4G26G 7G12G 2G 5G 9G24
 -17874819.20144 -13928418.29044  20611692.0874   20611691.2684
   4880361.29544   3802875.83844  25265339.6324   25265336.3944
 -16967177.26844 -13221148.85544  21845493.6734   21845493.6064
 -12666562.359 4  -9870032.918 4  22433319.855    22433318.692
  -8326715.23144  -6488334.29444  23235785.9624   23235786.5324
 -10398794.66944  -8102949.51744  23330793.7554   23330792.1384
 -20856133.61544 -16251524.19944  21074810.8594   21074809.8834
 -13557608.06144 -10564359.03944  21688966.6564   21688967.3904
 96  2 25  1 11  0.0000000  0  8G 4G26G 7G12G 2G 5G 9G24
 -17886238.63744 -13937316.54144  20609518.9794   20609517.9404
   4951017.95044   3857933.00644  25278786.1884   25278783.9584
 -16905057.74344 -13172744.03144  21857314.8934   21857314.4864
 -12586326.650 4  -9807511.595 4  22448588.284    22448587.056
  -8254946.86944  -6432410.90844  23249442.5764   23249443.8944
 -10481360.73144  -8167286.67944  23315081.6194   23315079.6824
 -20869743.47244 -16262129.28244  21072220.6254   21072219.8984
 -13638729.72144 -10627570.67844  21673529.0744   21673529.8444
 96  2 25  1 11 30.0000000  0  8G 4G26G 7G12G 2G 5G 9G24
 -17897081.00544 -13945765.12644  20607455.9444   20607454.7864
   5021578.44744   3912915.18544  25292211.8844   25292212.6484
 -16842827.20544 -13124252.69644  21869157.2114   21869156.5774
 -12505755.552 4  -9744728.933 4  22463920.516    22463919.300
  -8182943.10244  -6376304.10344  23263145.4974   23263146.1874
 -10563898.98044  -8231602.16244  23299375.1384   23299374.5334
 -20882817.63744 -16272316.93844  21069733.0384   21069732.0474
 -13719494.59444 -10690504.30944  21658160.4884   21658161.1564
 96  2 25  1 12  0.0000000  0  8G 4G26G 7G12G 2G 5G 9G24
 -17907337.80244 -13953757.42344  20605504.1954   20605502.9654
   5092039.13844   3967819.59544  25305614.8804   25305619.5564
 -16780476.02244 -13075667.35444  21881021.8884   21881021.8654
 -12424835.444 4  -9681674.314 4  22479319.136    22479317.870
  -8110672.00444  -6319988.98344  23276897.9574   23276899.4324
 -10646389.69644  -8295880.60344  23283677.7404   23283678.0564
 -20895332.05644 -16282068.43244  21067351.7384   21067350.9464
 -13799877.94244 -10753140.64244  21642863.8724   21642864.4604
 96  2 25  1 12 30.0000000  0  8G 4G26G 7G12G 2G 5G 9G24
 -17916987.24744 -13961276.46144  20603667.9954   20603666.8254
   5162387.19744   4022636.07744  25319002.3114
 -16717994.57144 -13026980.50844  21892911.6314   21892911.5064
 -12343563.237 4  -9618345.326 4  22494784.855    22494783.456
  -8038113.34144  -6263449.77244  23290704.9074   23290706.4634
 -10728822.76544  -8360114.12844  23267991.3614   23267991.2744
 -20907259.76644 -16291362.75344  21065081.5294   21065080.5974
 -13879858.73944 -10815463.30744  21627644.1744   21627644.4824
 96  2 25  1 13  0.0000000  0  8G 4G26G 7G12G 2G 5G 9G24
 -17926001.54544 -13968300.57644  20601952.5274   20601951.5234
   5232633.78344   4077373.62444  25332373.8504   25332376.7124
 -16655382.47044 -12978191.86244  21904826.3924   21904826.7284
 -12261937.241 4  -9554740.660 4  22510317.651    22510316.428
  -7965258.43044  -6206679.73644  23304569.4464   23304569.4574
 -10811198.59544  -8424303.04944  23252315.1864   23252314.3154
 -20918597.61744 -16300197.43844  21062923.8364   21062923.1824
 -13959413.66544 -10877454.12644  21612505.3334   21612505.2504
 96  2 25  1 13 30.0000000  0  8G 4G26G 7G12G 2G 5G 9G24
 -17934410.20744 -13974852.77344  20600352.2244   20600350.9404
   5302753.47444   4132012.30244  25345719.9184   25345718.3084
 -16592683.55844 -12929335.56444  21916757.6714   21916757.3384
 -12179996.079 4  -9490890.409 4  22525910.564    22525909.479
  -7892141.40144  -6149705.43044  23318483.6874   23318483.1974
 -10893542.21844  -8488466.88644  23236646.0434   23236645.4464
 -20929378.87444 -16308598.41744  21060872.7204   21060871.9454
 -14038549.34244 -10939118.26044  21597446.1744   21597446.7464
 96  2 25  1 14  0.0000000  0  8G 4G26G 7G12G 2G 5G 9G24
 -17942288.15444 -13980991.42144  20598853.2774   20598851.9134
   5372676.95444                  25359026.1784
 -16529968.51744 -12880466.70744  21928692.0974   21928691.8894
 -12097813.980 4  -9426852.419 4  22541549.296    22541548.147
  -7818848.18244  -6092593.85144  23332430.1944   23332430.7734
 -10975931.54644  -8552666.34344  23220968.0194   23220967.5014
 -20939674.64744 -16316621.09344  21058913.5084   21058912.6634
 -14117327.58744 -11000503.87244  21582455.3294   21582455.6384
 96  2 25  1 14 30.0000000  0  8G 4G26G 7G12G 2G 5G 9G24
 -17949579.47644 -13986672.96044  20597465.4854   20597464.3364
   5442486.95744                  25372309.9044
 -16467168.85944 -12831531.91044  21940642.4124   21940642.2764
 -12015324.479 4  -9362574.888 4  22557246.643    22557245.395
  -7745329.97044  -6035306.94644  23346420.6084   23346421.2814
 -11058303.38844  -8616852.16544  23205292.2734   23205293.7674
 -20949420.89244 -16324215.57344  21057058.6514   21057057.9834
 -14195687.18044 -11061563.26744  21567543.9384   21567544.2894
 96  2 25  1 15  0.0000000  0  7G 4G 7G12G 2G 5G 9G24
 -17956235.97844 -13991859.83744  20596199.0654   20596197.8594
 -16404238.27244 -12782495.09244  21952617.6344   21952617.3434
 -11932473.552 4  -9298015.727 4  22573012.566    22573011.380
  -7671540.44144  -5977808.63144  23360462.1674   23360461.4804
 -11140606.73544  -8680984.60144  23189631.0364   23189631.6274
 -20958562.81444 -16331339.15344  21055319.1524   21055318.4884
 -14273588.28944 -11122265.39844  21552719.7634   21552720.1524
 96  2 25  1 15 30.0000000  0  7G 4G 7G12G 2G 5G 9G24
 -17962316.30044 -13996597.74144  20595041.9454   20595040.7504
 -16341234.01744 -12733400.87244  21964606.9764   21964606.6294
 -11849309.935 4  -9233212.912 4  22588838.039    22588836.823
  -7597528.59744  -5920137.08944  23374545.9544   23374546.9164
 -11222903.89844  -8745112.22244  23173970.6394   23173970.5754
 -20967150.89444 -16338031.15944  21053685.1524   21053684.3564
 -14351098.00844 -11182662.55144  21537970.3494   21537970.8364
 96  2 25  1 16  0.0000000  0  7G 4G 7G12G 2G 5G 9G24
 -17967824.68544 -14000889.98344  20593993.9324   20593992.6264
 -16278178.75544 -12684266.89644  21976606.2174   21976605.9264
 -11765844.390 4  -9168174.834 4  22604720.993    22604719.904
  -7523305.57344  -5862300.96944  23388669.6624   23388670.3554
 -11305218.73844  -8809253.65144  23158306.1364   23158305.1084
 -20975192.50044 -16344297.35244  21052154.5384   21052153.9234
 -14428259.76644 -11242788.57244  21523286.8614   21523287.2914
 96  2 25  1 16 30.0000000  0  7G 4G 7G12G 2G 5G 9G24
 -17972712.75044 -14004698.85544  20593063.4994   20593062.3714
 -16215039.48444 -12635067.46444  21988621.4004   21988621.1174
 -11682037.944 4  -9102871.116 4  22620668.907    22620667.698
  -7448816.95844  -5804257.90244  23402844.7914   23402846.1224
 -11387498.37744  -8873367.62544  23142649.2164   23142648.8894
 -20982638.82944 -16350099.69044  21050737.3954   21050736.8944
 -14505047.72544 -11302623.32144  21508674.6814   21508674.9564
 96  2 25  1 17  0.0000000  0  8G 4G26G 7G12G 2G 5G 9G24
 -17976970.48744 -14008016.56544  20592253.4134   20592252.2894
         0.24354                  25438455.6414
 -16151823.44144 -12585808.21044  22000650.5114   22000650.0664
 -11597890.251 4  -9037301.491 4  22636681.705    22636680.357
  -7374046.37644  -5745995.10844  23417073.7564   23417073.8234
 -11469734.69944  -8937447.83044  23127000.3234   23127001.2314
 -20989488.96144 -16355437.45944  21049434.0214   21049433.4564
 -14581455.50944 -11362161.82544  21494134.7414   21494135.1204
 96  2 25  1 17 30.0000000  0  7G 4G 7G12G 2G 5G 9G24
 -17980604.19644 -14010848.01844  20591561.7664   20591560.7644
 -16088521.15744 -12536481.76044  22012696.9144   22012696.3834
 -11513401.896 4  -8971466.413 4  22652759.305    22652758.098
  -7298992.24644  -5687511.38844  23431355.5094   23431355.6574
 -11551921.42144  -9001489.39344  23111360.2994   23111359.3904
 -20995740.95644 -16360309.14644  21048244.3354   21048243.3424
 -14657470.42444 -11421394.19944  21479669.3714   21479669.8384
 96  2 25  1 18  0.0000000  0  7G 4G 7G12G 2G 5G 9G24
 -17983637.41344 -14013211.55644  20590984.6244   20590983.7884
 -16025140.22644 -12487094.02844  22024757.7634   22024757.6824
 -11428598.123 4  -8905385.551 4  22668896.877    22668895.678
  -7223679.84544  -5628826.42544  23445687.1744   23445687.6484
 -11634063.33144  -9065496.06044  23095728.8884   23095728.4664
 -21001411.82744 -16364728.01144  21047164.8544   21047164.2294
 -14733104.11844 -11480329.52344  21465276.8814   21465277.4564
 96  2 25  1 18 30.0000000  0  7G 7G 4G12G 2G 5G 9G24
 -15961639.38644 -12437612.84844  22036841.5114   22036841.4704
 -17986065.83644 -14015103.82544  20590522.6304   20590521.5104
 -11343463.882 4  -8839047.187 4  22685097.544    22685095.999
  -7148094.48944  -5569928.77744  23460070.7924   23460073.1434
 -11716143.26144  -9129454.43344  23080109.2304   23080108.7124
 -21006484.81844 -16368680.99444  21046199.8744   21046198.9574
 -14808324.55844 -11538942.82244  21450962.8144   21450963.3234
 96  2 25  1 19  0.0000000  0  7G 4G 7G12G 2G 5G 9G24
 -17987912.40944 -14016542.70244  20590171.1194   20590169.9184
 -15898018.06044 -12388037.79044  22048947.9834   22048947.8634
 -11258011.409 4  -8772460.852 4  22701358.545    22701357.152
  -7072263.79644  -5510839.94044  23474500.3634   23474501.6564
 -11798178.98944  -9193378.35044  23064498.4364   23064498.7724
 -21010989.69644 -16372191.29444  21045342.9384   21045342.2434
 -14883126.71144 -11597230.19144  21436728.5354   21436729.0454
 96  2 25  1 19 30.0000000  0  7G 7G 4G12G 2G 5G 9G24
 -15834265.63144 -12338360.58044  22061080.2434   22061079.4174
 -17989174.17044 -14017525.88144  20589930.9594   20589930.0334
 -11172234.341 4  -8705621.579 4  22717681.297    22717679.974
  -6996194.48444  -5451565.18444  23488976.4214   23488977.7164
 -11880152.73744  -9257253.95344  23048900.5894   23048900.5744
 -21014919.31544 -16375253.33744  21044595.1224   21044594.3504
 -14957490.74544 -11655176.16844  21422577.4774   21422577.8424
 96  2 25  1 20  0.0000000  0  7G 4G 7G12G 2G 5G 9G24
 -17989865.17544 -14018064.31844  20589799.5534   20589798.6184
 -15770400.67744 -12288595.67844  22073233.2724   22073232.6704
 -11086152.128 4  -8638544.537 4  22734062.221    22734060.697
  -6919906.43544  -5392119.96944  23503493.1474   23503494.4154
 -11962071.42244  -9321086.67244  23033311.8314   23033311.3814
 -21018298.05244 -16377886.12344  21043951.9034   21043951.3454
 -15031425.36744 -11712787.53744  21408508.3634   21408508.9854
 96  2 25  1 20 30.0000000  0  7G 7G 4G12G 2G 5G 9G24
 -15706439.40044 -12238755.71644  22085404.8734   22085403.9874
 -17989972.38644 -14018147.84944  20589779.2054   20589778.0414
 -10999762.644 4  -8571228.062 4  22750501.495    22750500.189
  -6843393.59944  -5332499.59144  23518052.9364   23518053.5924
 -12043938.29444  -9384879.00844  23017733.0014   23017732.5144
 -21021123.55744 -16380087.82144  21043414.2024   21043413.4664
 -15104914.22844 -11770051.56544  21394523.8394   21394523.9464
 96  2 25  1 21  0.0000000  0  7G 7G 4G12G 2G 5G 9G24
 -15642434.25244 -12188881.56744  22097584.5324   22097584.0924
 -17989504.46744 -14017783.22744  20589868.3054   20589867.0894
 -10913092.816 4  -8503693.139 4  22766994.297    22766993.023
  -6766681.28044  -5272723.78444  23532651.4784   23532651.9404
 -12125768.03744  -9448642.41544  23002161.3794   23002160.7674
 -21023420.72544 -16381877.82644  21042977.2974   21042976.8424
 -15177978.28944 -11826984.57644  21380620.2804   21380620.2894
 96  2 25  1 21 30.0000000  0  7G 7G 4G12G 2G 5G 9G24
 -15578381.59844 -12138970.41344  22109772.7724   22109772.5134
 -17988434.26044 -14016949.29144  20590071.8364   20590070.8024
 -10826130.324 4  -8435930.175 4  22783542.650    22783541.445
  -6689743.70744  -5212772.43644  23547292.7154   23547294.5304
 -12207552.72444  -9512370.73144  22986598.1864   22986597.9984
 -21025154.12144 -16383228.52944  21042647.4064   21042646.6434
 -15250624.18244 -11883591.74344  21366796.1074   21366796.4204
 96  2 25  1 22  0.0000000  0  7G 7G 4G12G 2G 5G 9G24
 -15514266.50344 -12089010.60744  22121972.9714   22121973.3764
 -17986732.66944 -14015623.36744  20590395.4874   20590394.1324
 -10738858.671 4  -8367926.300 4  22800149.891    22800148.631
  -6612556.50344  -5152626.60444  23561980.1904   23561980.8284
 -12289292.86844  -9576064.31544  22971042.5304   22971043.0554
 -21026306.10344 -16384126.18544  21042428.4404   21042427.7274
 -15322849.99044 -11939871.57644  21353051.8644   21353052.3514
 96  2 25  1 22 30.0000000  0  7G 4G 7G12G 2G 5G 9G24
 -17984393.41144 -14013800.55844  20590840.7384   20590839.6364
 -15450093.20444 -12039005.44644  22134185.5114   22134185.1794
 -10651267.561 4  -8299673.501 4  22816817.969    22816816.875
  -6535105.09844  -5092274.85944  23576719.0164   23576718.4744
 -12370977.73744  -9639714.82844  22955498.7544   22955499.1754
 -21026866.86344 -16384563.14544  21042321.5034   21042320.8114
 -15394656.18044 -11995824.42744  21339387.5934   21339388.3234
 96  2 25  1 23  0.0000000  0  7G 7G 4G12G 2G 5G 9G24
 -15385847.31844 -11988943.71844  22146410.8974   22146411.3384
 -17981436.77944 -14011496.67544  20591403.1844   20591402.0784
 -10563354.947 4  -8231170.171 4  22833547.105    22833546.009
  -6457399.49044  -5031725.04444  23591506.3114   23591507.2784
 -12452589.85144  -9703308.66244  22939967.6954   22939967.7844
 -21026831.21544 -16384535.37544  21042328.1694   21042327.1714
 -15466055.06044 -12051459.90044  21325800.7594   21325801.1294
 96  2 25  1 23 30.0000000  0  7G 4G 7G12G 2G 5G 9G24
 -17977892.49944 -14008734.89244  20592078.0664   20592076.8504
 -15321524.05944 -11938821.69844  22158651.3734   22158651.0424
 -10475133.534 4  -8162426.224 4  22850335.201    22850334.042
  -6379449.41544  -4970984.77144  23606338.5184   23606338.4214
 -12534138.46144  -9766853.00844  22924450.0604   22924448.5284
 -21026204.96144 -16384047.38944  21042447.5154   21042446.8984
 -15537050.78744 -12106781.22144  21312290.6294   21312290.8964
 96  2 25  1 24  0.0000000  0  7G 7G 4G12G 2G 5G 9G24
 -15257124.93544 -11888640.56344  22170905.8444   22170905.4374
 -17973782.52844 -14005532.30744  20592859.7184   20592858.5174
 -10386611.818 4  -8093448.271 4  22867180.339    22867179.156
  -6301258.41444  -4910056.73144  23621217.6204   23621217.3464
 -12615622.08044  -9830346.70844  22908944.6794   22908944.0894
 -21025012.17344 -16383117.95244  21042674.1464   21042673.2104
 -15607626.51944 -12161775.28044  21298860.7334   21298861.1394
 96  2 25  1 24 30.0000000  0  7G 4G 7G12G 2G 5G 9G24
 -17969112.58144 -14001893.37744  20593748.5924   20593747.6464
 -15192641.91844 -11838394.04744  22183176.9554   22183176.6274
 -10297785.776 4  -8024233.183 4  22884083.254    22884082.121
  -6222818.60644  -4848934.81844  23636145.6624   23636142.4884
 -12697023.45344  -9893776.31644  22893454.9974   22893454.8634
 -21023238.75344 -16381736.07944  21043011.8254   21043011.2574
 -15677758.40744 -12216423.48044  21285515.0064   21285515.1934
 96  2 25  1 25  0.0000000  0  7G 4G 7G12G 2G 5G 9G24
 -17963854.06644 -13997795.82544  20594749.2744   20594748.1644
 -15128029.11044 -11788046.41044  22195472.1984   22195471.8774
 -10208635.993 4  -7954765.830 4  22901048.103    22901046.691
  -6144103.84744  -4787598.64744  23651124.6424   23651125.2464
 -12778341.85644  -9957141.26344  22877980.2644   22877980.0404
 -21020860.97044 -16379883.27444  21043464.1354   21043463.4844
 -15747419.80644 -12270705.07044  21272258.9004   21272259.1934
 96  2 25  1 25 30.0000000  0  7G 7G 4G12G 2G 5G 9G24
 -15063320.17144 -11737623.85544  22207785.9914   22207785.6734
 -17958022.11744 -13993251.44144  20595858.8204   20595858.0004
 -10119200.156 4  -7885075.581 4  22918067.174    22918066.025
  -6065135.22044  -4726064.68144  23666151.0764   23666150.6884
 -12859631.85944 -10020484.10944  22862511.6384   22862510.8784
 -21017925.47144 -16377595.88344  21044023.0764   21044022.2194
 -15816639.59244 -12324642.54844  21259086.6234   21259086.8514
 96  2 25  1 26  0.0000000  0  7G 7G 4G12G 2G 5G 9G24
 -14998511.74244 -11687123.78444  22220118.2674   22220118.0914
 -17951591.70244 -13988240.72144  20597082.8194   20597081.7444
 -10029470.245 4  -7815156.172 4  22935142.329    22935141.163
  -5985904.19844  -4664326.22544  23681228.3914   23681226.9674
 -12940887.49844 -10083800.16944  22847048.4394   22847048.2764
 -21014435.71244 -16374876.59644  21044687.1284   21044686.0664
 -15885412.38844 -12378231.72144  21245999.5574   21246000.0224
 96  2 25  1 26 30.0000000  0  7G 7G 4G12G 2G 5G 9G24
 -14933655.17344 -11636586.19744  22232460.2044   22232459.6204
 -17944610.77044 -13982801.02744  20598411.0654   20598410.0104
  -9939504.511 4  -7745053.005 4  22952262.404    22952260.987
  -5906483.10644  -4602439.64544  23696341.7274
 -13022156.69544 -10147126.78944  22831582.7854   22831583.6654
 -21010448.14244 -16371769.40244  21045446.1264   21045445.1294
 -15953805.09344 -12431524.71544  21232985.0104   21232985.3544
 96  2 25  1 27  0.0000000  0  7G 7G 4G12G 2G 5G 9G24
 -14868735.94844 -11585999.78744  22244814.3324   22244814.3204
 -17937051.33344 -13976910.54944  20599849.5864   20599848.5224
  -9849282.095 4  -7674749.835 4  22969431.016    22969429.478
  -5826860.28544  -4540395.93344  23711492.1514   23711494.1704
 -13103407.65144 -10210439.18744  22816121.7054   22816121.8094
 -21005953.71744 -16368267.26044  21046300.9694   21046300.4284
 -16021808.35344 -12484514.25144  21220044.2824   21220044.5724
 96  2 25  1 27 30.0000000  0  7G 7G 4G12G 2G 5G 9G24
 -14803691.41244 -11535315.72744  22257191.5384   22257191.9674
 -17928833.74144 -13970507.22344  20601413.1004   20601412.0174
  -9758714.632 4  -7604177.801 4  22986665.400    22986663.913
  -5746955.72144  -4478132.63944  23726697.8034
 -13184515.59644 -10273640.15144  22800687.7004   22800687.2934
 -21000854.80244 -16364294.07944  21047271.4884   21047270.7764
 -16089320.37044 -12537121.00144  21207197.3054   21207197.6014
 96  2 25  1 28  0.0000000  0  7G 7G 4G12G 2G 5G 9G24
 -14738629.99944 -11484618.52944  22269572.3074   22269572.6404
 -17920064.28644 -13963673.87444  20603082.1884   20603081.1604
  -9667897.977 4  -7533411.585 4  23003947.139    23003945.969
  -5666874.08044  -4415731.35744  23741938.1544
 -13265556.05744 -10336788.53544  22785265.9834   22785265.6474
 -20995230.29044 -16359911.34344  21048341.6934   21048340.7334
 -16156423.71044 -12589409.29844  21194427.6764   21194427.9704
 96  2 25  1 28 30.0000000  0  7G 4G 7G12G 2G 5G 9G24
 -17910735.69844 -13956404.84244  20604856.9924   20604856.2844
 -14673542.60644 -11433901.08444  22281958.4874   22281957.8304
  -9576819.669 4  -7462441.483 4  23021278.716    23021277.590
  -5586597.72844  -4353178.38144  23757213.3574
 -13346509.21744 -10399868.89444  22769861.5924   22769860.1814
 -20989046.94244 -16355093.14744  21049518.6584   21049517.9594
 -16223096.81444 -12641362.34744  21181740.4914   21181740.8574
 96  2 25  1 29  0.0000000  0  7G 7G 4G12G 2G 5G 9G24
 -14608405.44944 -11383144.85244  22294353.3664   22294352.9844
 -17900824.59944 -13948681.90044  20606743.2474   20606742.3834
  -9485448.150 4  -7391242.908 4  23038666.212    23038664.825
  -5506077.94044                  23772536.9314
 -13427349.62644 -10462861.39644  22754478.9904   22754477.7314
 -20982253.50244 -16349799.56444  21050810.9034   21050810.3924
 -16289295.46844 -12692945.69944  21169143.3534   21169143.5574
 96  2 25  1 29 30.0000000  0  7G 4G 7G12G 2G 5G 9G24
 -17890342.62044 -13940514.12044  20608738.1304   20608737.1034
 -14543211.36244 -11332344.25444  22306759.4164   22306759.7744
  -9393789.608 4  -7319820.691 4  23056108.355    23056106.910
  -5425314.66144  -4227503.24744  23787905.9444
 -13508098.83744 -10525782.82944  22739112.0244   22739111.6604
 -20974850.16244 -16344030.72844  21052219.8164   21052219.1164
 -16355015.71644 -12744156.26744  21156637.2244   21156637.4554
 96  2 25  1 30  0.0000000  0  7G 4G 7G12G 2G 5G 9G24
 -17879293.50444 -13931904.40944  20610840.6934   20610839.5554
 -14477963.31644 -11281501.62344  22319175.6774   22319175.9054
  -9301864.215 4  -7248190.530 4  23073601.143    23073599.852
  -5344323.93844                  23803316.1024
 -13588801.64044 -10588668.09444  22723754.5974   22723754.2574
 -20966872.18544 -16337814.12444  21053737.9354   21053737.2314
 -16420288.68444 -12795018.30244  21144216.2104   21144216.0284
 96  2 25  1 30 30.0000000  0  7G 4G 7G12G 2G 5G 9G24
 -17867690.92644 -13922863.43044  20613048.2484   20613047.1324
 -14412662.43744 -11230617.81744  22331602.0944   22331602.4364
  -9209686.788 4  -7176363.972 4  23091141.924    23091140.770
  -5263117.30844                  23818769.6664
 -13669477.94344 -10651532.72644  22708402.1804   22708401.6644
 -20958353.71144 -16331176.35444  21055359.1194   21055358.3174
 -16485142.97244 -12845554.09744  21131874.8124   21131874.9234
 96  2 25  1 31  0.0000000  0  7G 4G 7G12G 2G 5G 9G24
 -17855525.75844 -13913384.06944  20615363.2964   20615362.3134
 -14347302.25644 -11179687.80844  22344040.1184   22344040.4704
  -9117246.771 4  -7104332.796 4  23108732.713    23108731.055
  -5181699.12044                  23834263.0934
 -13750117.16244 -10714368.46644  22693056.9464   22693056.3794
 -20949295.49644 -16324118.00944  21057083.0474   21057082.5484
 -16549567.69044 -12895755.15944  21119615.1954   21119615.1994
 96  2 25  1 31 30.0000000  0  8G 4G20G 7G12G 2G 5G 9G24
 -17842761.01444 -13903437.51044  20617792.5584   20617791.3574
        -1.04854                  25202644.9134
 -14281868.24344 -11128700.25344  22356491.1424   22356491.2304
  -9024525.954 4  -7032082.825 4  23126376.865    23126375.048
  -5100059.11844                  23849799.5314
 -13830699.07244 -10777159.53644  22677722.8304   22677722.4264
 -20939692.39344 -16316635.07344  21058910.4284   21058909.8784
 -16613542.49344 -12945605.63744  21107441.1014   21107441.5024
 96  2 25  1 32  0.0000000  0  8G 4G20G 7G12G 2G 5G 9G24
 -17829407.79944 -13893032.39844  20620333.6454   20620332.6024
    -95483.18844                  25184472.7954
 -14216386.81544 -11077675.77744  22368951.5044   22368952.5404
  -8931547.968 4  -6959632.455 4  23144070.096    23144068.404
  -5018212.47744                  23865374.6804
 -13911230.37844 -10839911.17544  22662398.2034   22662397.7214
 -20929559.47944 -16308739.29744  21060838.4344   21060837.7274
 -16677078.67344 -12995114.33544  21095350.4174   21095350.6934
 96  2 25  1 32 30.0000000  0  8G 4G20G 7G12G 2G 5G 9G24
 -17815435.08144 -13882144.55644  20622992.4344   20622991.2804
   -190974.08044                  25166302.4514
 -14150833.79444 -11026595.50444  22381426.1424   22381426.0684
  -8838280.099 4  -6886956.193 4  23161818.385    23161816.889
  -4936123.67444                  23880994.9724
 -13991659.79544 -10902583.42144  22647092.9014   22647092.2814
 -20918846.41444 -16300391.45744  21062877.1184   21062876.2754
 -16740121.73644 -13044238.78444  21083353.7154   21083353.9124
 96  2 25  1 33  0.0000000  0  8G 4G20G 7G12G 2G 5G 9G24
 -17800851.27444 -13870780.54044  20625767.7534   20625766.6624
   -286487.83244                  25148127.3564
 -14085235.77744 -10975480.15744  22393909.7014   22393909.4534
  -8744744.186 4  -6814071.072 4  23179617.527    23179616.355
  -4853813.89444                  23896657.7434
 -14072009.30744 -10965193.41244  22631802.7094   22631801.4974
 -20907568.44044 -16291603.42644  21065023.2224   21065022.5194
 -16802671.41644 -13092978.77744  21071450.8044   21071451.1344
 96  2 25  1 33 30.0000000  0  8G 4G20G 7G12G 2G 5G 9G24
 -17785649.50444 -13858934.99844  20628660.2504   20628658.9634
   -382041.30844                  25129945.9674
 -14019579.38244 -10924319.31844  22406403.0904   22406403.5354
  -8650944.363 4  -6740980.316 4  23197467.000    23197465.851
  -4771266.10944                  23912367.5784
 -14152280.19444 -11027742.12644  22616527.5174   22616527.4534
 -20895723.53144 -16282373.63544  21067277.1004   21067276.4804
 -16864727.65344 -13141334.27044  21059641.9194   21059642.3694
 96  2 25  1 34  0.0000000  0  8G 4G20G 7G12G 2G 5G 9G24
 -17769826.68844 -13846605.52144  20631671.2434   20631670.1694
   -477620.14644                  25111757.6734
 -13953845.64344 -10873098.22544  22418912.1444   22418912.4664
  -8556866.625 4  -6667672.997 4  23215369.435    23215368.229
  -4688461.26444                  23928123.4204
 -14232439.28644 -11090203.73244  22601273.8024   22601274.1494
 -20883292.90444 -16272687.43744  21069642.8164   21069641.9934
 -16926282.55544 -13189299.11244  21047928.4254   21047928.8424
 96  2 25  1 34 30.0000000  0  7G 4G20G 7G12G 5G 9G24
 -17753388.86544 -13833796.81944  20634799.4334   20634798.1784
   -573221.50044                  25093565.9734
 -13888026.59344 -10821810.64844  22431436.9244   22431437.1924
  -8462502.054 4  -6594142.168 4  23233326.279    23233325.348
 -14312477.62844 -11152571.25144  22586043.2414   22586042.6304
 -20870272.49644 -16262541.67344  21072120.6704   21072119.7934
 -16987337.82144 -13236874.62844  21036310.0564   21036310.4124
 96  2 25  1 35  0.0000000  0  8G 4G20G 7G12G 2G 5G 9G24
 -17736345.61044 -13820516.34844  20638042.6414   20638041.5444
   -668862.41344                  25075369.5404
 -13822110.67644 -10770447.58944  22443980.1544   22443980.4794
  -8367847.434 4  -6520385.327 4  23251338.489    23251337.355
        -1.15254                  23959789.3734
 -14392391.39244 -11214841.69444  22570836.2364   22570835.7784
 -20856660.67144 -16251935.06544  21074710.6224   21074709.8744
 -17047900.63744 -13284066.41744  21024785.2014   21024785.4324
 96  2 25  1 35 30.0000000  0  7G20G 4G 7G12G 5G 9G24
   -764556.26944   -595758.05144  25057157.4844   25057156.6814
 -17718718.61444 -13806781.01644  20641396.8914   20641395.5184
 -13756096.61644 -10719008.06244  22456541.7274   22456541.8304
  -8272908.153 4  -6446406.676 4  23269404.873    23269403.808
 -14472176.46344 -11277011.87244  22555653.7324   22555653.2334
 -20842447.41644 -16240859.80844  21077415.3084   21077414.8284
 -17107987.35444 -13330887.22344  21013351.0174   21013351.3554
 96  2 25  1 36  0.0000000  0  7G20G 4G 7G12G 5G 9G24
   -860342.60744   -670396.70544  25038929.1654   25038930.7894
 -17700578.00444 -13792645.46544  20644848.9124   20644847.8244
 -13690051.22644 -10667544.12044  22469110.2104   22469110.6344
  -8177734.625 4  -6372245.494 4  23287515.831    23287514.624
 -14551884.27244 -11339121.81644  22540485.8314   22540485.6914
 -20827688.57144 -16229359.41544  21080223.6704   21080222.8544
 -17167649.93044 -13377377.53044  21001997.7864   21001997.9724
 96  2 25  1 36 30.0000000  0  7G 9G20G 7G12G 5G 4G24
 -20812407.94044 -16217452.43844  21083131.6184   21083131.0634
   -956253.02944   -745132.18844  25020678.3004
 -13624009.34044 -10616082.91344  22481677.4294   22481677.3244
  -8082353.122 4  -6297922.252 4  23305666.304    23305665.277
 -14631554.74044 -11401202.68244  22525324.9864   22525323.9434
 -17681954.82144 -13778133.88444  20648392.8994   20648391.7204
 -17226891.51244 -13423539.78544  20990724.5864   20990724.8064
 96  2 25  1 37  0.0000000  0  7G 9G20G 7G12G 4G 5G24
 -20796494.36144 -16205052.25144  21086159.7454   21086159.1734
  -1052185.37444                  25002424.9184
 -13557876.52744 -10564550.84144  22494262.7814   22494262.7684
  -7986661.136 4  -6223357.075 4  23323875.935    23323874.870
 -17662737.59444 -13763159.41144  20652049.6364   20652048.2564
 -14711084.07144 -11463173.55144  22510191.5284   22510190.4634
 -17285603.45844 -13469289.34244  20979552.0734   20979551.9074
 96  2 25  1 37 30.0000000  0  7G 9G20G 7G12G 5G 4G24
 -20779891.64444 -16192115.08044  21089319.1664   21089318.7014
  -1148061.29844                  24984178.9934
 -13491601.00544 -10512907.57544  22506873.7714   22506873.7434
  -7890600.152 4  -6148504.370 4  23342155.936    23342154.585
 -14790404.03244 -11524981.29844  22495097.1704   22495095.8414
 -17642868.77944 -13747677.20844  20655830.8624   20655829.4464
 -17343729.45344 -13514582.31344  20968491.0724   20968490.8994
 96  2 25  1 38  0.0000000  0  7G 9G20G 7G12G 4G 5G24
 -20762725.45744 -16178738.84144  21092586.2184   21092585.2084
  -1243993.01944   -969344.95744  24965924.2134   24965923.6624
 -13425301.92544 -10461245.94744  22519490.3244   22519489.4214
  -7794286.165 4  -6073454.512 4  23360483.745    23360482.356
 -17622452.70144 -13731768.56344  20659715.8074   20659714.6794
 -14869626.06644 -11586712.73144  22480021.4694   22480020.8694
 -17401374.19944 -13559500.28444  20957521.8284   20957521.6804
 96  2 25  1 38 30.0000000  0  7G 9G20G 7G12G 5G 4G24
 -20745036.08244 -16164954.92944  21095952.1854   21095951.5194
  -1340031.73244  -1044180.27544  24947652.6594
 -13359004.70244 -10409585.77044  22532106.6374   22532106.6034
  -7697769.611 4  -5998246.818 4  23378850.418    23378848.803
 -14948787.66644 -11648397.07944  22464957.5064   22464957.2214
 -17601513.10444 -13715451.98344  20663700.1834   20663699.0994
 -17458585.83444 -13604080.76644  20946634.7924   20946634.7224
 96  2 25  1 39  0.0000000  0  7G 9G20G 7G12G 4G 5G24
 -20726860.61544 -16150792.24044  21099410.9954   21099410.0824
  -1436195.99644                  24929352.8174
 -13292712.44844 -10357929.47544  22544721.4564   22544721.7624
  -7601078.719 4  -5922903.275 4  23397249.945    23397248.739
 -17580069.85344 -13698742.94344  20667781.0364   20667779.6734
 -15027904.89344 -11710046.84644  22449901.7614   22449901.6034
 -17515406.34644 -13648356.47644  20935822.2694   20935822.3814
 96  2 25  1 39 30.0000000  0  7G 9G20G 7G12G 5G 4G24
 -20708090.67244 -16136166.32544  21102982.4094   21102981.8334
  -1532356.87744  -1194043.93544  24911053.3484   24911051.4464
 -13226291.42244 -10306172.82344  22557360.9164   22557360.6004
  -7504092.205 4  -5847329.382 4  23415705.970    23415704.524
 -15106856.93744 -11771567.89844  22434877.5964   22434877.1964
 -17557999.60644 -13681545.33544  20671980.7074   20671979.6224
 -17571698.15644 -13692220.21144  20925110.0364   20925110.1814
 96  2 25  1 40  0.0000000  0  7G 9G20G 7G12G 4G 5G24
 -20688826.17044 -16121155.04344  21106648.6214   21106648.1814
  -1628611.73244  -1269047.63644  24892733.7434   24892727.3214
 -13159826.64544 -10254382.06844  22570008.9144   22570009.1524
  -7406909.021 4  -5771602.239 4  23434199.124    23434197.790
 -17535378.89844 -13663918.79644  20676285.3324   20676283.9374
 -15185762.22444 -11833052.51544  22419862.9544   22419862.6484
 -17627538.35944 -13735732.04244  20914484.0134   20914484.2254
 96  2 25  1 40 30.0000000  0  7G 9G20G 7G12G 5G 4G24
 -20669046.84644 -16105742.59844  21110412.6054   21110411.9334
  -1724932.03544  -1344102.27644  24874402.8994   24874399.6884
 -13093301.52644 -10202544.30944  22582667.8024   22582667.4064
  -7309507.445 4  -5695704.905 4  23452733.945    23452732.817
 -15264603.79044 -11894487.47344  22404859.6594   22404859.0804
 -17512202.20444 -13645859.02344  20680695.3504   20680694.3174
 -17682898.96144 -13778870.15744  20903949.0174   20903949.0834
 96  2 25  1 41  0.0000000  0  7G 9G20G 7G12G 4G 5G24
 -20648704.83844 -16089891.69144  21114283.5884   21114282.8104
  -1821265.92244  -1419167.52944  24856071.1664   24856072.4714
 -13026685.87644 -10150636.00244  22595344.7174   22595344.6094
  -7211841.595 4  -5619601.657 4  23471319.588    23471317.853
 -17488452.06144 -13627352.40544  20685214.9934   20685213.8214
 -15343339.27744 -11955839.77744  22389877.2764   22389876.6034
 -17737720.72744 -13821588.40144  20893516.8564   20893516.9714
 96  2 25  1 41 30.0000000  0  7G 9G20G 7G12G 5G 4G24
 -20627814.78844 -16073613.73844  21118258.7384   21118257.7984
  -1917637.73044  -1494262.36344  24837732.9584   24837732.2484
 -12960023.58244 -10098691.33144  22608030.1354   22608029.7664
  -7113938.406 4  -5543313.472 4  23489949.842    23489948.255
 -15422000.26644 -12017134.03044  22374908.0624   22374907.4264
 -17464147.99744 -13608414.16344  20689839.8364   20689838.7474
 -17792029.36344 -13863906.80344  20883182.2354   20883182.5994
 96  2 25  1 42  0.0000000  0  7G 9G20G 7G12G 4G 5G24
 -20606376.21044 -16056908.36044  21122338.2594   21122337.4244
  -2014063.01744  -1569398.88744  24819384.4584
 -12893330.54544 -10046722.73244  22620720.6964   22620721.3044
  -7015812.931 4  -5466852.071 4  23508622.361    23508620.803
 -17439307.09744 -13589057.61344  20694567.1414   20694565.7344
 -15500586.60344 -12078370.11644  22359953.0594   22359952.4324
 -17845854.80744 -13905848.68944  20872939.5864   20872939.8884
 96  2 25  1 42 30.0000000  0  7G 9G20G 7G12G 5G 4G24
 -20584425.93944 -16039804.26244  21126515.3454   21126514.8604
  -2110587.77344  -1644612.99644  24801014.5584   24801014.2294
 -12826660.12044  -9994771.74644  22633407.7674   22633407.5304
  -6917509.967 4  -5390252.376 4  23527328.749    23527327.467
 -15579114.62544 -12139560.76544  22345009.9404   22345009.6484
 -17413984.13744 -13569325.42444  20699385.7604   20699384.6074
 -17899253.11244 -13947457.74244  20862778.2104   20862778.5184
 96  2 25  1 43  0.0000000  0  7G 9G20G 7G 4G12G 5G24
 -20561950.37744 -16022290.84444  21130792.5504   21130791.9914
  -2207185.91644  -1719884.19044  24782633.1534   24782632.3714
 -12759991.96144  -9942822.52544  22646095.0074   22646093.6314
 -17388126.62244 -13549176.70444  20704306.3284   20704305.1844
  -6819013.429 4  -5313501.841 4  23546072.332    23546071.088
 -15657561.46744 -12200688.14844  22330082.2564   22330081.9194
 -17952215.52644 -13988727.13944  20852700.0564   20852700.5314
 96  2 25  1 43 30.0000000  0  7G 9G20G 7G12G 5G 4G24
 -20538881.47644 -16004315.08344  21135182.1684   21135181.6334
  -2303773.61344  -1795147.17444  24764253.2984   24764253.6604
 -12693242.13944  -9890809.68544  22658796.9764   22658796.0774
  -6720244.983 4  -5236539.438 4  23564867.346    23564865.738
 -15735838.99444 -12261683.59844  22315186.2544   22315185.4504
 -17361632.70144 -13528532.07844  20709348.1234   20709347.1074
 -18004662.83844 -14029595.16244  20842719.5244   20842719.5824
 96  2 25  1 44  0.0000000  0  7G 9G20G 7G12G 5G 4G24
 -20515248.79544 -15985900.00744  21139679.5044   21139678.9744
  -2400383.11644  -1870427.25544  24745867.5354   24745869.1194
 -12626432.44044  -9838750.15844  22671510.4964   22671509.7604
  -6621238.637 4  -5159391.661 4  23583707.464    23583706.076
 -15813968.83544 -12322563.97644  22300318.5054   22300317.7454
 -17334552.07444 -13507430.28044  20714501.1214   20714500.0104
 -18056617.61044 -14070079.38144  20832832.7864   20832832.8494
 96  2 25  1 44 30.0000000  0  7G 9G20G 7G12G 5G 4G24
 -20491089.45644 -15967074.54644  21144276.9774   21144276.2784
  -2497029.84244                  24727472.5314
 -12559589.92944  -9786665.07744  22684230.0364   22684229.4484
  -6522022.007 4  -5082080.012 4  23602587.743    23602586.525
 -15891980.74444 -12383352.46744  22285473.2974   22285472.4454
 -17306906.54044 -13485888.29544  20719762.0404   20719760.6764
 -18108098.33144 -14110194.21144  20823036.4984   20823036.5674
 96  2 25  1 45  0.0000000  0  7G 9G20G 7G12G 5G 4G24
 -20466400.89344 -15947836.70644  21148974.9184   21148974.1324
  -2593704.79144  -2021067.43944  24709075.7354   24709076.2304
 -12492710.83444  -9734551.48544  22696956.6014   22696956.4704
  -6422592.839 4  -5004602.748 4  23621508.525    23621507.061
 -15969878.25544 -12444051.81144  22270649.9384   22270648.6094
 -17278701.72644 -13463910.50644  20725129.0794   20725127.9914
 -18159096.53944 -14149933.05544  20813331.7544   20813331.6524
 96  2 25  1 45 30.0000000  0  7G 9G20G 7G12G 5G 4G24
 -20441142.18444 -15928154.59344  21153781.3104   21153780.5844
  -2690397.64444                  24690674.1474
 -12425774.25944  -9682393.10044  22709694.2674   22709693.8734
  -6322933.313 4  -4926945.987 4  23640473.226    23640471.773
 -16047637.89644 -12504643.71644  22255853.3064   22255852.1094
 -17249951.37444 -13441507.62544  20730600.0114   20730598.5914
 -18209589.01444 -14189277.82444  20803723.2854   20803722.9934
 96  2 25  1 46  0.0000000  0  7G 9G20G 7G12G 5G 4G24
 -20415262.88544 -15907988.90744  21158705.9534   21158704.8514
  -2787066.35744                  24672277.4144
 -12358744.98344  -9630162.49844  22722449.8704   22722449.2734
  -6223002.285 4  -4849077.665 4  23659489.287    23659487.981
 -16125218.72744 -12565096.28644  22241089.9374   22241089.2934
 -17220616.75744 -13418649.47144  20736182.1864   20736181.0144
 -18259531.52544 -14228194.04944  20794219.3484   20794219.4254
 96  2 25  1 46 30.0000000  0  7G20G 7G12G 5G 9G 4G24
  -2883714.77144  -2247048.98944  24653887.7244   24653890.9304
 -12291638.26744  -9577871.53744  22735219.5904   22735218.9534
  -6122804.928 4  -4771001.820 4  23678556.311    23678554.695
 -16202620.83144 -12625409.58444  22226361.1414   22226360.4694
 -20388780.10544 -15887352.96944  21163745.6204   21163745.2914
 -17190692.10844 -13395331.55244  20741876.7454   20741875.2074
 -18308922.46344 -14266680.47544  20784820.5984   20784820.8744
 96  2 25  1 47  0.0000000  0  7G20G 7G12G 5G 9G 4G24
  -2980398.21544  -2322386.67844  24635490.5524   24635490.2064
 -12224495.24944  -9525552.29044  22747996.2554   22747995.9114
  -6022389.272 4  -4692755.861 4  23697664.523    23697663.362
 -16279897.31544 -12685625.01144  22211655.7824   22211655.2614
 -20361725.18944 -15866271.21344  21168894.0244   21168893.5224
 -17160233.11744 -13371597.26244  20747672.9484   20747671.6244
 -18357801.31244 -14304767.87344  20775519.1974   20775519.2224
 96  2 25  1 47 30.0000000  0  7G20G 7G12G 5G 9G 4G24
  -3077155.88344  -2397782.20444  24617078.4704   24617077.3394
 -12157340.26844  -9473223.72544  22760775.8264   22760775.1034
  -5921789.900 4  -4614366.750 4  23716808.136    23716806.851
 -16357081.73644 -12745768.69844  22196967.7964   22196967.3064
 -20334136.22044 -15844773.31244  21174143.7774   21174143.0734
 -17129269.16344 -13347469.49544  20753565.1734   20753563.7074
 -18406198.39344 -14342479.86344  20766309.3344   20766309.6124
 96  2 25  1 48  0.0000000  0  7G20G 7G12G 5G 9G 4G24
  -3173965.47244  -2473218.23844  24598657.4004
 -12090146.97344  -9420865.29244  22773562.7644   22773561.5874
  -5820986.655 4  -4535818.785 4  23735990.367    23735988.960
 -16434148.46444 -12805820.67744  22182302.1454   22182301.6704
 -20306021.33044 -15822865.60244  21179493.9624   21179493.2424
 -17097774.98444 -13322928.56144  20759558.5134   20759556.9574
 -18454089.14644 -14379797.31444  20757196.1284   20757196.4184
 96  2 25  1 48 30.0000000  0  7G20G 7G12G 5G 9G 4G24
  -3270796.76944  -2548671.10444  24580230.5684   24580232.2914
 -12022873.03244  -9368444.02644  22786363.7444   22786363.7224
  -5719951.422 4  -4457090.055 4  23755216.786    23755215.583
 -16511069.33344 -12865758.99744  22167664.5094   22167664.0254
 -20277350.26344 -15800524.50244  21184949.7844   21184949.2634
 -17065727.06544 -13297956.14744  20765656.8274   20765655.4234
 -18501453.28444 -14416704.41444  20748182.9704   20748182.8404
 96  2 25  1 49  0.0000000  0  7G20G 7G12G 5G 4G 9G24
  -3367617.01844  -2624115.38744  24561806.9664   24561807.5114
 -11955478.59644  -9315928.86544  22799188.2244   22799188.0914
  -5618660.402 4  -4378161.999 4  23774491.918    23774490.752
 -16587817.67444 -12925562.87244  22153060.2164   22153059.1124
 -17033117.63944 -13272546.19344  20771861.9874   20771861.0394
 -20248103.22044 -15777734.59144  21190515.1534   21190514.4674
 -18548270.20244 -14453185.10744  20739274.3704   20739274.4214
 96  2 25  1 49 30.0000000  0  7G20G 7G12G 5G 9G 4G24
  -3464533.32344  -2699634.50444  24543363.8464   24543364.6034
 -11888086.52044  -9263415.54244  22812012.6144   22812012.4574
  -5517230.686 4  -4299125.861 4  23793793.279    23793791.934
 -16664494.83644 -12985311.28544  22138468.5864   22138467.4074
 -20218425.41544 -15754609.02444  21196162.8614   21196162.2344
 -17000055.15544 -13246783.21144  20778153.5314   20778152.1504
 -18594658.27144 -14489331.63644  20730446.9484   20730446.8274
 96  2 25  1 50  0.0000000  0  7G20G 7G12G 5G 4G 9G24
  -3561476.52944  -2775174.60844  24524914.6764   24524912.4314
 -11820650.42244  -9210867.92944  22824845.0574   22824845.4554
  -5415607.307 4  -4219938.820 4  23813131.624    23813130.128
 -16741040.06944 -13044956.90344  22123902.3144   22123901.8224
 -16966477.96344 -13220619.15244  20784543.1274   20784542.0334
 -20188257.44044 -15731101.51044  21201903.6754   21201903.0694
 -18640556.02144 -14525096.09644  20721713.0314   20721712.9144
 96  2 25  1 50 30.0000000  0  7G20G 7G12G 5G 9G 4G24
  -3658431.07744                  24506465.4604
 -11753165.76944  -9158282.47944  22837687.7104   22837687.5594
  -5313784.777 4  -4140596.601 4  23832507.679    23832506.454
 -16817448.07144 -13104495.59144  22109363.0284   22109362.1124
 -20157573.22744 -15707191.73344  21207742.8754   21207742.0104
 -16932370.47444 -13194041.88044  20791033.7994   20791032.7614
 -18685949.18444 -14560467.37144  20713074.7934   20713074.8464
 96  2 25  1 51  0.0000000  0  7G20G 7G12G 5G 4G 9G24
  -3755416.50044  -2926296.69044  24488011.1984   24488010.7604
 -11685674.99144  -9105692.27144  22850530.7644   22850530.9334
  -5211792.535 4  -4061122.143 4  23851916.396    23851915.001
 -16893737.98444 -13163942.25744  22094845.4194   22094844.9174
 -16897749.19044 -13167064.24644  20797621.8764   20797620.4014
 -20126404.45044 -15682904.37744  21213673.6514   21213673.2404
 -18730856.80244 -14595460.30244  20704529.2224   20704529.1774
 96  2 25  1 51 30.0000000  0  7G20G 7G12G 5G 9G 4G24
  -3852421.63644  -3001884.99044  24469547.3744   24469548.3624
 -11618186.18244  -9053103.57744  22863373.6314   22863373.1714
  -5109626.037 4  -3981511.892 4  23871357.802    23871356.488
 -16969907.14344 -13223294.82944  22080350.7144   22080350.4194
 -20094724.26944 -15658218.52844  21219702.1724   21219701.6974
 -16862581.99144 -13139661.22144  20804313.9784   20804312.8594
 -18775257.44244 -14630058.17944  20696080.0004   20696079.8564
 96  2 25  1 52  0.0000000  0  7G20G 7G12G 5G 4G 9G24
  -3949427.24444  -3077473.63144  24451090.5554   24451090.5744
 -11550673.09444  -9000495.96444  22876220.1714   22876219.1454
  -5007261.651 4  -3901747.446 4  23890837.487    23890835.851
 -17045924.57944 -13282529.18144  22065884.8234   22065884.2574
 -16826854.95944 -13111821.96444  20811112.6524   20811111.4604
 -20062491.03044 -15633101.71844  21225836.2864   21225835.7764
 -18819120.69244 -14664237.31544  20687733.1354   20687733.0194
 96  2 25  1 52 30.0000000  0  7G20G 7G12G 5G 9G 4G24
  -4046448.87844  -3153074.89244  24432626.4744   24432626.0704
 -11483140.78744  -8947873.37144  22889071.2954   22889070.2694
  -4904710.961 4  -3821837.831 4  23910351.932    23910351.028
 -17121790.25944 -13341645.27544  22051448.4844   22051447.8774
 -20029718.47044 -15607564.66844  21232072.5314   21232071.7724
 -16790587.01744 -13083561.21944  20818014.1264   20818012.8074
 -18862456.35444 -14698005.34444  20679486.5884   20679486.5364
 96  2 25  1 53  0.0000000  0  7G20G 7G12G 5G 4G 9G24
  -4143479.41344  -3228683.02644  24414160.2504   24414158.7754
 -11415595.09344  -8895240.36044  22901925.2424   22901924.9294
  -4801974.687 4  -3741783.605 4  23929902.049    23929900.861
 -17197502.84944 -13400642.08744  22037040.9394   22037040.4474
 -16753794.06244 -13054891.37044  20825015.5434   20825014.3734
 -19996409.74744 -15581609.82444  21238411.1234   21238410.6024
 -18905264.79144 -14731362.54644  20671340.3174   20671339.9804
 96  2 25  1 53 30.0000000  0  7G20G 7G12G 5G 9G 4G24
  -4240509.99344  -3304291.21644  24395696.3344   24395697.4264
 -11347997.56544  -8842566.93544  22914788.2764   22914787.6404
  -4699032.350 4  -3661568.805 4  23949491.132    23949489.935
 -17273039.76744 -13459501.99944  22022666.5664   22022665.9414
 -19962543.18144 -15555220.29544  21244855.7544   21244855.0014
 -16716483.68244 -13025818.33744  20832115.4894   20832114.2134
 -18947521.50544 -14764289.83544  20663298.9214   20663298.8724
 96  2 25  1 54  0.0000000  0  7G20G 7G12G 5G 4G 9G24
  -4337557.12544  -3379912.35244  24377229.9284
 -11280352.22844  -8789856.28744  22927660.6664   22927661.0294
  -4595896.584 4  -3581203.277 4  23969117.292    23969116.098
 -17348410.21444 -13518232.20344  22008323.9124   22008323.4874
 -16678685.38244 -12996365.10444  20839308.4314   20839307.1304
 -19928136.21244 -15528409.67144  21251403.0194   21251402.4294
 -18989261.41744 -14796814.42244  20655356.2064   20655356.3704
 96  2 25  1 54 30.0000000  0  7G20G 7G12G 5G 9G 4G24
  -4434561.71544  -3455500.25144  24358771.0414   24358772.5044
 -11212619.18244  -8737077.26444  22940549.4184   22940548.7104
  -4492529.690 4  -3500657.653 4  23988787.525    23988786.128
 -17423582.97444 -13576808.37044  21994018.8144   21994018.3564
 -19893139.76744 -15501139.71444  21258062.6464   21258062.1154
 -16640349.77544 -12966493.19044  20846603.3924   20846601.9044
 -19030447.72244 -14828907.62544  20647518.6714   20647518.5794
 96  2 25  1 55  0.0000000  0  7G20G 7G12G 5G 4G 9G24
  -4531546.97444  -3531073.16044  24340316.9004   24340313.7274
 -11144828.52844  -8684253.36944  22953449.7464   22953449.1394
  -4388964.372 4  -3419957.410 4  24008495.127    24008493.977
 -17498597.84244 -13635261.50444  21979743.8184   21979743.2814
 -16601498.55244 -12936219.50044  20853996.6154   20853995.3264
 -19857584.98044 -15473434.68544  21264828.8894   21264827.9254
 -19071116.20844 -14860597.33444  20639779.6304   20639779.6614
 96  2 25  1 55 30.0000000  0  7G20G 7G12G 5G 9G 4G24
  -4628600.67844  -3606699.44844  24321848.4814   24321846.3524
 -11077059.18044  -8631446.08244  22966345.7214   22966347.2124
  -4285283.169 4  -3339166.885 4  24028225.032    24028223.864
 -17573530.57144 -13693650.62244  21965485.1914   21965484.5844
 -19821556.96244 -15445360.90744  21271684.4704   21271684.0394
 -16562192.33644 -12905591.27044  20861476.1264   20861474.6854
 -19111347.91444 -14891946.69544  20632123.9784   20632123.8364
 96  2 25  1 56  0.0000000  0  7G20G 7G12G 5G 4G 9G24
  -4725681.92744  -3682347.09844  24303374.7634   24303374.3004
 -11009292.29044  -8578640.73944  22979241.1404   22979241.5924
  -4181453.150 4  -3258260.396 4  24047983.348    24047982.131
 -17648346.36344 -13751948.62744  21951248.3394   21951247.6584
 -16522371.08344 -12874561.71144  20869053.7714   20869052.4314
 -19785017.85144 -15416888.87744  21278637.5514   21278637.0034
 -19151111.00344 -14922930.90344  20624557.3984   20624557.1234
 96  2 25  1 56 30.0000000  0  7G20G 7G12G 5G 9G 4G24
  -4822789.80844  -3758015.57944  24284895.6514   24284892.9344
 -10941524.60044  -8525834.74544  22992137.1904   22992136.7284
  -4077469.107 4  -3177233.886 4  24067770.820    24067769.612
 -17723026.79444 -13810141.15644  21937037.0644   21937036.6774
 -19747979.05444 -15388027.47944  21285686.0424   21285685.3954
 -16482026.44144 -12843124.31744  20876731.0694   20876729.7474
 -19190381.72044 -14953531.44044  20617084.2484   20617084.1354
 96  2 25  1 57  0.0000000  0  7G20G 7G12G 5G 4G 9G24
  -4919925.58244  -3833705.75444  24266411.5034   24266411.2984
 -10873740.37244  -8473015.84744  23005036.0414   23005035.1304
  -3973317.321 4  -3096076.654 4  24087589.882    24087589.027
 -17797553.40644 -13868213.83744  21922854.5604   21922854.1604
 -16441155.64844 -12811276.93944  20884508.8754   20884507.4724
 -19710457.53944 -15358789.93244  21292826.0254   21292825.5344
 -19229139.26244 -14983732.10544  20609708.7994   20609708.7004
 96  2 25  1 57 30.0000000  0  7G20G 7G12G 5G 9G 4G24
  -5017081.35744  -3909411.53244  24247923.6594   24247920.6054
 -10805915.64644  -8420165.39544  23017942.5244   23017941.3244
  -3868988.286 4  -3014781.296 4  24107442.941    24107442.172
 -17871903.87544 -13926149.25644  21908705.8824   21908705.3474
 -19672438.81944 -15329164.95844  21300060.8184   21300060.2144
 -16399762.22144 -12779022.30944  20892385.5454   20892384.1424
 -19267369.13044 -15013521.59544  20602433.8824   20602434.1254
 96  2 25  1 58  0.0000000  0  7G20G 7G12G 4G 5G 9G24
  -5114235.12744  -3985115.72444  24229435.3974   24229433.6314
 -10738026.62444  -8367264.85244  23030861.5274   23030861.8964
  -3764471.795 4  -2933339.880 4  24127331.914    24127330.978
 -16357850.87644 -12746364.10844  20900361.2014   20900359.7884
 -17946060.42244 -13983933.56744  21894594.4904   21894594.0094
 -19633916.99844 -15299147.95344  21307391.2574   21307390.7534
 -19305062.61744 -15042893.12344  20595260.9514   20595260.9544
 96  2 25  1 58 30.0000000  0  7G20G 7G12G 5G 4G 9G24
  -5211352.39744  -4060791.49444  24210953.8554   24210952.2804
 -10670042.86944  -8314290.51044  23043797.7974   23043797.8034
  -3659754.372 4  -2851741.897 4  24147259.598    24147258.226
 -18020006.49244 -14041553.86744  21880523.4154   21880522.7744
 -16315421.66544 -12713302.37844  20908435.1374   20908433.8944
 -19594880.27144 -15268729.72344  21314819.7714   21314819.1244
 -19342201.13744 -15071832.21444  20588193.8254   20588193.7454
 96  2 25  1 59  0.0000000  0  7G20G 7G12G 4G 5G 9G24
  -5308418.69144  -4136427.52144  24192482.2494   24192482.3354
 -10601949.56444  -8261230.77444  23056755.9534   23056755.5504
  -3554834.888 4  -2769986.479 4  24167225.196    24167223.831
 -16272480.96144 -12679842.08044  20916606.4134   20916605.2414
 -18093749.68144 -14099016.07644  21866490.9134   21866490.3714
 -19555294.23444 -15237883.46444  21322352.1314   21322351.8264
 -19378785.33344 -15100339.36044  20581232.1344   20581231.9434
 96  2 25  1 59 30.0000000  0  7G20G 7G12G 5G 4G 9G24
  -5405455.60544  -4212040.69544  24174016.5024   24174014.8314
 -10533773.92044  -8208106.88344  23069730.0004   23069730.0124
  -3449738.682 4  -2688093.359 4  24187224.421    24187222.967
 -18167308.34744 -14156334.50144  21852492.7574   21852492.0584
 -16229046.99844 -12645997.42644  20924871.5834   20924870.0244
 -19515150.74644 -15206602.83144  21329991.5854   21329991.1164
 -19414841.01644 -15128434.68044  20574371.0494   20574370.8894
 96  2 25  2  0  0.0000000  0  7G20G 7G 4G12G 5G 9G24
  -5502486.12844  -4287648.87444  24155551.0974   24155553.5124
 -10465573.63644  -8154963.79444  23082707.3484   23082706.8144
 -16185137.33144 -12611782.09044  20933227.1574   20933225.7884
  -3344495.973 4  -2606086.086 4  24207251.503    24207250.000
 -18240711.64144 -14213531.86044  21838524.2844   21838523.7824
 -19474485.79744 -15174915.86544  21337729.5284   21337728.9514
 -19450386.03444 -15156132.07544  20567606.9604   20567606.7464
 96  2 25  2  0 30.0000000  0  7G20G 7G12G 5G 4G 9G24
  -5599568.40444  -4363297.34044  24137077.5674   24137077.0094
 -10397406.58144  -8101846.60944  23095679.3374   23095679.1984
  -3239153.036 4  -2524000.698 4  24227297.354    24227296.074
 -18314004.30044 -14270643.01144  21824577.2534   21824576.8934
 -16140787.45644 -12577223.73944  20941666.6154   20941665.1524
 -19433335.40644 -15142850.62744  21345560.7644   21345560.0614
 -19485454.79744 -15183458.36544  20560933.4274   20560933.3814
 96  2 25  2  1  0.0000000  0  7G20G 7G12G 5G 4G 9G24
  -5696700.18844  -4438984.37344  24118593.6264   24118595.2144
 -10329275.33444  -8048757.33344  23108644.2074   23108643.5224
  -3133695.470 4  -2441825.988 4  24247365.149    24247363.767
 -18387155.41244 -14327643.86244  21810657.2184   21810656.6574
 -16095966.58544 -12542298.38144  20950195.7724   20950194.3894
 -19391696.28144 -15110404.55544  21353484.4114   21353483.7474
 -19520024.88144 -15210396.07344  20554355.1164   20554355.1214
 96  2 25  2  1 30.0000000  0  7G20G 7G 4G12G 5G 9G24
  -5793853.81544  -4514688.44144  24100106.2334   24100108.0004
 -10261181.95044  -7995697.55444  23121602.2934   23121602.9234
 -16050640.45444 -12506979.31044  20958821.3254   20958819.9544
  -3028108.606 4  -2359550.514 4  24267457.632    24267456.434
 -18460132.82044 -14384509.35244  21796769.9164   21796769.3994
 -19349584.51444 -15077590.19444  21361498.0284   21361497.3794
 -19554073.29344 -15236927.28244  20547875.7954   20547875.8224
 96  2 25  2  2  0.0000000  0  7G20G 7G12G 4G 5G 9G24
  -5891012.25744  -4590396.29144  24081617.4654   24081617.0894
 -10193107.44444  -7942652.48944  23134556.1454   23134557.2194
  -2922380.173 4  -2277164.713 4  24287576.939    24287575.759
 -16004807.97344 -12471265.68544  20967542.5794   20967541.2594
 -18532920.51944 -14441227.02744  21782918.7154   21782917.9364
 -19307008.11444 -15044413.78044  21369599.7134   21369599.2254
 -19587591.46344 -15263045.31944  20541497.6294   20541497.3914
 96  2 25  2  2 30.0000000  0  7G20G 7G 4G12G 5G 9G24
  -5988142.83244  -4666082.42244  24063135.0654   24063135.4234
 -10125006.07444  -7889586.47844  23147515.4924   23147515.7144
 -15958450.88644 -12435143.27344  20976364.4244   20976362.7754
  -2816484.998 4  -2194648.996 4  24307728.008    24307726.895
 -18605494.02344 -14497777.79644  21769108.4814   21769107.8494
 -19263942.59044 -15010856.23044  21377794.9084   21377794.3684
 -19620568.78144 -15288741.91144  20535222.1914   20535222.1324
 96  2 25  2  3  0.0000000  0  7G 4G20G 7G12G 5G 9G24
 -15911549.20644 -12398596.49944  20985289.6564   20985288.3734
  -6085191.06444  -4741704.33944  24044667.2554   24044670.6894
 -10056831.28744  -7836463.24144  23160488.6954   23160486.9314
  -2710387.800 4  -2111975.858 4  24327917.396    24327916.584
 -18677815.78544 -14554132.39844  21755346.1264   21755345.5974
 -19220359.79444 -14976895.61144  21386088.2734   21386088.0644
 -19652976.87444 -15313994.94844  20529055.3174   20529055.1114
 96  2 25  2  3 30.0000000  0  7G 4G20G 7G12G 5G 9G24
 -15864135.46444 -12361650.72044  20994312.0514   20994310.4464
  -6182161.20344  -4817265.45144  24026214.7864   24026213.6734
  -9988572.05244  -7783274.21944  23173478.2734   23173477.1194
  -2604096.758 4  -2029151.687 4  24348144.391    24348143.049
 -18749905.97144 -14610306.55544  21741628.2244   21741627.2214
 -19176246.52144 -14942521.64044  21394483.1234   21394483.0044
 -19684835.16944 -15338819.57544  20522992.5594   20522992.2114
 96  2 25  2  4  0.0000000  0  7G 4G20G 7G12G 5G 9G24
 -15816236.97544 -12324327.21144  21003426.7954   21003425.2774
  -6279072.15944  -4892780.38744  24007771.9244   24007773.0964
  -9920222.82744  -7730015.11344  23186484.4074   23186482.9374
  -2497627.106 4  -1946188.347 4  24368405.166    24368403.490
 -18821786.75844 -14666317.55144  21727949.2564   21727948.4144
 -19131601.20944 -14907733.09044  21402978.8124   21402978.2574
 -19716156.65844 -15363225.91044  20517032.2424   20517032.1584
 96  2 25  2  4 30.0000000  0  7G 4G20G 7G12G 5G 9G24
 -15767841.10644 -12286616.14244  21012636.0394   21012634.8734
  -6375923.05644  -4968248.56444  23989341.8994   23989342.9504
  -9851783.92244  -7676686.07844  23199507.2154   23199507.4424
  -2390982.053 4  -1863088.333 4  24388699.104    24388697.336
 -18893459.59444 -14722166.50544  21714310.8794   21714310.0014
 -19086416.41544 -14872524.16944  21411577.1354   21411576.5964
 -19746926.97944 -15387202.76444  20511176.9064   20511176.8084
 96  2 25  2  5  0.0000000  0  7G 4G20G 7G12G 5G 9G24
 -15718984.49744 -12248546.04644  21021933.1544   21021931.9874
  -6472752.75344  -5043700.26644  23970915.4834   23970915.9414
  -9783293.35844  -7623316.78044  23212540.9174   23212540.9104
  -2284197.783 4  -1779879.836 4  24409019.425    24409017.578
 -18964952.99744 -14777875.63144  21700705.6814   21700705.2824
 -19040719.03544 -14836915.82144  21420273.1314   21420272.3714
 -19777160.59044 -15410761.40444  20505423.5854   20505423.3654
 96  2 25  2  5 30.0000000  0  7G 4G20G 7G12G 5G 9G24
 -15669684.30944 -12210130.31144  21031314.7494   21031313.6444
  -6569599.10144  -5119164.88744  23952486.5994   23952481.9034
  -9714786.44344  -7569934.76844  23225577.5114   23225577.6434
  -2177306.774 4  -1696588.164 4  24429360.100    24429358.498
 -19036297.61044 -14833468.81344  21687129.7164   21687129.0754
 -18994543.82644 -14800935.13944  21429059.3714   21429058.9734
 -19806871.26944 -15433912.56344  20499769.9234   20499769.8114
 96  2 25  2  6  0.0000000  0  7G 4G20G 7G12G 5G 9G24
 -15619929.91144 -12171360.63944  21040782.9814   21040781.6894
  -6666461.94944  -5194642.37244  23934055.1934   23934054.5164
  -9646277.05144  -7516550.83844  23238614.2224   23238613.3234
  -2070316.067 4  -1613218.813 4  24449719.749    24449718.479
 -19107488.76344 -14888942.43644  21673582.4374   21673581.5214
 -18947917.18244 -14764602.69144  21437932.4394   21437931.9124
 -19836054.04744 -15456652.37444  20494216.6914   20494216.4174
 96  2 25  2  6 30.0000000  0  7G 4G20G 7G12G 5G 9G24
 -15569724.09944 -12132239.22444  21050336.4604   21050335.1014
  -6763331.84444  -5270125.36744  23915621.6274   23915621.2964
  -9577779.89144  -7463176.42344  23251649.2364   23251648.6434
  -1963224.309 4  -1529770.725 4  24470098.693    24470097.483
 -19178515.00844 -14944287.55944  21660066.8524   21660066.1474
 -18900844.47044 -14727922.66044  21446890.3294   21446889.8294
 -19864705.15744 -15478977.89944  20488764.4974   20488764.3964
 96  2 25  2  7  0.0000000  0  7G 4G20G 7G12G 5G 9G24
 -15519070.67344 -12092769.00544  21059975.6524   21059974.2194
  -6860191.44944  -5345600.32544  23897188.7904   23897189.9154
  -9509291.37044  -7409808.72944  23264682.3524   23264683.2884
  -1856029.185 4  -1446242.093 4  24490497.287    24490495.864
 -19249360.20544 -14999491.59144  21646584.9294   21646584.4364
 -18853326.58944 -14690895.73944  21455932.3464   21455931.8954
 -19892827.53144 -15500891.41944  20483412.9174   20483412.8284
 96  2 25  2  7 30.0000000  0  7G 4G20G 7G12G 5G 9G24
 -15467962.04844 -12052944.09744  21069701.0014   21069700.1254
  -6957028.43844  -5421057.70644  23878760.7084   23878761.8604
  -9440796.50244  -7356436.09544  23277715.7794   23277715.9734
  -1748723.421 4  -1362627.242 4  24510917.126    24510915.666
 -19320010.35944 -15054543.64644  21633140.4294   21633139.7614
 -18805362.89844 -14653521.43844  21465059.8344   21465059.0734
 -19920426.90344 -15522397.40744  20478160.9844   20478160.7624
 96  2 25  2  8  0.0000000  0  7G 4G20G 7G12G 5G 9G24
 -15416386.17144 -12012755.10044  21079515.6354   21079514.4554
  -7053815.22144  -5496475.94344  23860343.6684   23860342.4254
  -9372267.38044  -7303036.79744  23290756.4684   23290757.4924
  -1641290.026 4  -1278912.939 4  24531360.924    24531359.388
 -19390442.73544 -15109426.00844  21619737.8804   21619736.9744
 -18756929.14444 -14615780.85944  21474276.1014   21474275.7294
 -19947491.17944 -15543486.43744  20473010.8164   20473010.7734
 96  2 25  2  8 30.0000000  0  7G 4G20G 7G12G 5G 9G24
 -15364341.94444 -11972201.14944  21089419.4914   21089417.9004
  -7150555.62944  -5571858.09844  23841934.6974   23841935.2084
  -9303687.10844  -7249597.64444  23303807.2584   23303806.2084
  -1533725.622 4  -1195096.541 4  24551829.793    24551828.306
 -19460644.41944 -15164128.61144  21606378.9204   21606377.8034
 -18708013.28044 -14577664.60944  21483585.0164   21483584.2724
 -19974012.84644 -15564152.65344  20467964.0224   20467963.6894
 96  2 25  2  9  0.0000000  0  7G 4G20G 7G12G 5G 9G24
 -15311834.55944 -11931286.29544  21099411.3244   21099410.0104
  -7247277.51144  -5647225.73444  23823529.2734   23823529.5084
  -9235058.41044  -7196120.70944  23316867.0964   23316866.0744
  -1426044.799 4  -1111189.428 4  24572321.015    24572319.034
 -19530627.89244 -15218661.17644  21593061.4624   21593060.5804
 -18658627.50744 -14539182.19744  21492982.6864   21492981.9584
 -20000014.00044 -15584413.27944  20463016.1264   20463015.8614
 96  2 25  2  9 30.0000000  0  7G 4G20G 7G12G 5G 9G24
 -15258869.48844 -11890014.80844  21109490.0414   21109488.5184
  -7343996.09544  -5722590.83844  23805123.8034   23805123.9394
  -9166394.51944  -7142616.35044  23329933.8984   23329932.7334
  -1318252.704 4  -1027195.595 4  24592833.060    24592831.435
 -19600404.68744 -15273032.69544  21579783.3764   21579782.6864
 -18608774.64544 -14500335.82144  21502469.4064   21502468.4694
 -20025502.44944 -15604274.39044  20458165.7584   20458165.4574
 96  2 25  2 10  0.0000000  0  7G 4G20G 7G12G 5G 9G24
 -15205428.59844 -11848372.54844  21119659.7024   21119658.2014
  -7440693.49644  -5797939.46844  23786723.5204   23786725.0034
  -9097698.52044  -7089086.95544  23343005.8014   23343004.0394
  -1210336.668 4   -943105.199 4  24613369.177    24613367.263
 -19669960.35044 -15327231.89744  21566547.1354   21566546.5994
 -18558436.95144 -14461111.65044  21512048.4294   21512047.5434
 -20050456.45044 -15623719.05244  20453417.0784   20453416.8414
 96  2 25  2 10 30.0000000  0  7G 4G20G 7G12G 5G 9G24
 -15151506.26144 -11806355.13444  21129920.4804   21129919.4964
  -7537359.11144  -5873263.31444  23768328.1794   23768328.5754
  -9028974.62844  -7035535.88744  23356083.1274   23356083.0084
  -1102286.484 4   -858910.270 4  24633929.787    24633928.598
 -19739284.73144 -15381250.88344  21553355.4434   21553354.5794
 -18507604.66144 -14421502.07944  21521721.6424   21521720.7064
 -20074878.80944 -15642749.44544  20448769.7294   20448769.5064
 96  2 25  2 11  0.0000000  0  7G 4G20G 7G12G 5G 9G24
 -15097121.14144 -11763977.11944  21140269.9194   21140268.7044
  -7633981.99144  -5948553.84444  23749941.4104   23749941.5104
  -8960255.68444  -6981988.66544  23369159.9354   23369161.0364
   -994114.602 4   -774620.515 4  24654514.574    24654512.696
 -19808391.31644 -15435100.16044  21540204.8144   21540204.1754
 -18456283.98844 -14381511.94844  21531487.3094   21531486.5144
 -20098789.48344 -15661381.12544  20444219.5024   20444219.3064
 96  2 25  2 11 30.0000000  0  7G 4G20G 7G12G 5G 9G24
 -15042267.13544 -11721233.73044  21150708.1104   21150706.7514
  -7730528.26444  -6023784.67444  23731569.9724   23731570.5044
  -8891525.37644  -6928432.60644  23382237.8714   23382239.6174
   -885809.926 4   -690227.292 4  24675124.281    24675122.746
 -19877258.79744 -15488763.11144  21527099.5474   21527099.0834
 -18404454.78844 -14341125.56844  21541350.3574   21541349.8644
 -20122166.48444 -15679596.95544  20439771.2094   20439771.1044
 96  2 25  2 12  0.0000000  0  7G 4G20G 7G12G 5G 9G24
 -14986958.79444 -11678136.31544  21161232.8264   21161231.5864
  -7826994.85644  -6098953.41244  23713213.0854   23713212.6164
  -8822760.83544  -6874849.84744  23395324.3394   23395325.3994
   -777376.729 4   -605733.925 4  24695758.308    24695756.920
 -19945886.82444 -15542239.47844  21514040.4914   21514039.2054
 -18352132.63344 -14300355.06744  21551306.6654   21551306.2314
 -20145003.55644 -15697392.06144  20435425.2154   20435425.0754
 96  2 25  2 12 30.0000000  0  7G 4G20G 7G12G 5G 9G24
 -14931218.29044 -11634702.15344  21171840.0004   21171838.7494
  -7923396.25544  -6174071.36444  23694867.8804   23694867.4674
  -8753960.01644  -6821238.82644  23408416.9104   23408416.3974
   -668830.396 4   -521152.406 4  24716414.169    24716412.296
 -20014286.32144 -15595537.77844  21501024.0524   21501023.5594
 -18299334.07144 -14259213.34044  21561353.8474   21561353.3774
 -20167315.97544 -15714778.34844  20431179.4194   20431179.0414
 96  2 25  2 13  0.0000000  0  7G 4G20G 7G12G 5G 9G24
 -14875025.22444 -11590915.34144  21182533.3104   21182531.9264
  -8019710.25444  -6249121.20744  23676539.8994   23676538.3044
  -8685092.88444  -6767576.14344  23421522.5774   23421521.5634
   -560160.097 4   -436474.300 4  24737093.362    24737091.606
 -20082428.86644 -15648635.85144  21488057.1934   21488056.4454
 -18246050.19444 -14217693.44344  21571493.5394   21571492.9974
 -20189070.16444 -15731729.65244  20427039.6944   20427039.2504
 96  2 25  2 13 30.0000000  0  8G 4G20G 7G12G 6G 5G 9G24
 -14818398.32644 -11546790.47944  21193308.7834   21193307.5714
  -8115973.89044  -6324131.79644  23658220.8484   23658221.4524
  -8616161.94144  -6713863.70644  23434639.1004   23434638.2624
   -451391.955 4   -351719.957 4  24757791.280    24757789.533
        -0.56854                  25479938.7654
 -20150333.93744 -15701548.88744  21475135.2834   21475134.2984
 -18192323.19944 -14175828.26544  21581717.7474   21581716.6954
 -20210271.58844 -15748250.22644  20423005.2384   20423004.9744
 96  2 25  2 14  0.0000000  0  7G 4G20G 7G12G 5G 9G24
 -14761380.89644 -11502361.30744  21204158.9834   21204157.6644
  -8212242.54344  -6399146.33144  23639902.3684   23639902.9404
  -8547221.58344  -6660143.91844  23447758.1034   23447756.6594
   -342573.232 4   -266926.207 4  24778498.969    24778497.087
 -20218050.87444 -15754315.32044  21462249.1554   21462248.3114
 -18138216.33844 -14133667.09144  21592014.0224   21592012.9814
 -20230968.51944 -15764377.68944  20419066.5974   20419066.3944
 96  2 25  2 14 30.0000000  0  7G 4G20G 7G12G 5G 9G24
 -14703946.41444 -11457607.16144  21215088.3934   21215087.0544
  -8308498.36744  -6474150.84244  23621584.3274   23621584.8034
  -8478280.13344  -6606423.30344  23460876.7154   23460875.5984
   -233695.833 4   -182086.723 4  24799217.725    24799215.526
 -20285556.46544 -15806917.07244  21449403.1764   21449401.7764
 -18083706.15844 -14091191.64144  21602386.9194   21602386.3444
 -20251159.19744 -15780110.67344  20415224.6304   20415224.3154
 96  2 25  2 15  0.0000000  0  7G 4G20G 7G12G 5G 9G24
 -14646071.98644 -11412510.19944  21226101.3834   21226099.7474
  -8404716.90044  -6549126.29944  23603274.6984   23603274.6494
  -8409319.47144  -6552687.72444  23473999.3864   23473998.0654
   -124740.534 4    -97186.528 4  24819950.990    24819949.563
 -20352831.02444 -15859338.79344  21436601.3124   21436600.5124
 -18028768.55544 -14048383.13244  21612840.5044   21612839.9754
 -20270815.92844 -15795427.59544  20411483.9944   20411483.6384
 96  2 25  2 15 30.0000000  0  7G 4G20G 7G12G 5G 9G24
 -14587766.10944 -11367077.03844  21237196.6454   21237195.7794
  -8500898.32944  -6624072.85344  23584973.1824   23584971.9324
  -8340339.65444  -6498937.24444  23487125.3824   23487124.7424
    -15691.683 4    -12213.441 4  24840702.137    24840700.872
 -20419866.02344 -15911573.84744  21423844.9844   21423844.0264
 -17973381.63844 -14005224.50744  21623380.7184   21623380.1224
 -20289921.74544 -15810315.23244  20407848.3164   20407848.0664
 96  2 25  2 16  0.0000000  0  7G 4G20G 7G12G 5G 9G24
 -14529025.88144 -11321305.43244  21248374.7214   21248373.1394
  -8597020.07044  -6698972.88444  23566681.1124   23566681.0284
  -8271343.68344  -6445174.12544  23500254.6944   23500255.1524
     93456.144 4     72836.770 4  24861472.671    24861471.285
 -20486651.66744 -15963614.60044  21411136.1584   21411135.5894
 -17917516.53844 -13961693.26644  21634011.4344   21634010.6094
 -20308483.49544 -15824778.92144  20404316.0934   20404315.7854
 96  2 25  2 16 30.0000000  0  7G 4G20G 7G12G 5G 9G24
 -14469865.66644 -11275206.55544  21259632.6014   21259630.7224
  -8693074.89544  -6773820.76044  23548401.4164   23548401.3974
  -8202331.05644  -6391398.07144  23513388.6504   23513387.8784
    202701.427 4    157962.927 4  24882261.226    24882259.332
 -20553191.38444 -16015463.72344  21398474.0934   21398473.2244
 -17861156.09044 -13917776.03544  21644736.4814   21644735.8324
 -20326493.69444 -15838812.82844  20400888.7924   20400888.6254
 96  2 25  2 17  0.0000000  0  7G 4G20G 7G12G 5G 9G24
 -14410301.30644 -11228792.76244  21270967.2704   21270965.6414
  -8789070.57544  -6848622.55244  23530135.8454   23530135.6124
  -8133308.30544  -6337614.11544  23526523.1344   23526523.2434
    312038.033 4    243160.245 4  24903067.448    24903066.006
 -20619495.26344 -16067129.07144  21385856.4534   21385855.8494
 -17804316.35044 -13873485.33544  21655552.9164   21655552.5214
 -20343946.94144 -15852412.74844  20397567.7364   20397567.3594
 96  2 25  2 17 30.0000000  0  7G 4G20G 7G12G 5G 9G24
 -14350329.42544 -11182061.42044  21282379.5794   21282378.2304
  -8884995.39044  -6923369.13844  23511881.6414   23511881.0644
  -8064277.73544  -6283824.04244  23539659.0974   23539659.2654
    421464.165 4    328427.325 4  24923890.449    24923889.093
 -20685559.05844 -16118607.34144  21373285.3254   21373284.5264
 -17747012.63344 -13828833.09644  21666457.4944   21666456.5714
 -20360859.22744 -15865591.14144  20394349.2564   20394348.7924
 96  2 25  2 18  0.0000000  0  7G 4G20G 7G12G 5G 9G24
 -14289917.61044 -11134987.27744  21293875.3954   21293873.7344
  -8980825.75644  -6998042.13944  23493645.9174   23493644.6734
  -7995221.31044  -6230013.84844  23552800.1734   23552799.6874
    530979.692 4    413764.059 4  24944730.263    24944729.126
 -20751382.40044 -16169898.24444  21360759.4364   21360758.7794
 -17689263.55144 -13783833.81844  21677446.3014   21677445.9034
 -20377246.42044 -15878360.37044  20391231.0024   20391230.5674
 96  2 25  2 18 30.0000000  0  7G 4G20G 7G12G 5G 9G24
 -14229069.23744 -11087572.95544  21305454.4214   21305452.9434
  -9076561.80144  -7072641.61844  23475427.3314   23475428.8174
  -7926143.63144  -6176187.10144  23565944.6974   23565944.2324
    640577.847 4    499165.179 4  24965586.860    24965585.006
 -20816976.78344 -16221010.73844  21348277.2174   21348276.1004
 -17631101.94444 -13738513.09144  21688514.6454   21688514.0474
 -20393113.06244 -15890723.97644  20388211.6744   20388211.3354
 96  2 25  2 19  0.0000000  0  7G 4G20G 7G12G 5G 9G24
 -14167773.03244 -11039809.67544  21317118.7254   21317117.7214
  -9172197.33544  -7147162.76044  23457229.0144   23457226.7314
  -7857037.81644  -6122338.39544  23579095.3514   23579093.6154
    750252.274 4    584625.736 4  24986457.197    24986455.819
 -20882328.83144 -16271934.41244  21335840.9934   21335840.1524
 -17572548.13344 -13692886.75244  21699656.5014   21699655.6404
 -20408477.04744 -15902695.90044  20385287.8854   20385287.5114
 96  2 25  2 19 30.0000000  0  7G 4G20G 7G12G 5G 9G24
 -14106053.53844 -10991716.56144  21328863.7204   21328862.1724
  -9267741.90244  -7221613.07944  23439047.0634   23439045.2744
  -7787913.64144  -6068475.41344  23592249.2504   23592248.9284
    859980.878 4    670128.526 4  25007337.227    25007335.803
 -20947452.56044 -16322680.16544  21323448.4814   21323447.9254
 -17513622.93944 -13646971.03044  21710870.0384   21710869.3934
 -20423365.37244 -15914297.17944  20382454.6154   20382454.2924
 96  2 25  2 20  0.0000000  0  8G 4G20G 7G12G 6G 5G 9G24
 -14043893.35544 -10943280.04644  21340692.1754   21340690.6514
  -9363163.98144  -7295967.92644  23420887.4784   23420890.2454
  -7718735.32144  -6014570.25044  23605413.8374   23605414.0114
    969792.912 4    755696.311 4  25028234.617    25028232.821
        -0.52454                  25298681.4884
 -21012306.10544 -16373215.37944  21311107.1044   21311106.0114
 -17454291.85044 -13600739.02244  21722160.0804   21722159.5404
 -20437732.60444 -15925492.41444  20379720.7154   20379720.2474
 96  2 25  2 20 30.0000000  0  8G 4G20G 7G12G 6G 5G 9G24
 -13981330.75644 -10894529.96644  21352597.6504   21352596.2444
  -9458480.00144  -7370240.10744  23402749.8164   23402750.5684
  -7649514.34244  -5960631.79944  23618586.3394   23618584.7584
   1079677.122 4    841320.337 4  25049144.893    25049143.562
    -72822.29944                  25284822.6104
 -21076882.92244 -16423534.96944  21298819.0814   21298817.7584
 -17394538.25344 -13554177.78244  21733530.9794   21733530.3764
 -20451572.24944 -15936276.54144  20377087.1004   20377086.8654
 96  2 25  2 21  0.0000000  0  7G 4G20G 7G12G 5G 9G24
 -13918389.66044 -10845484.95744  21364574.7254   21364573.6544
  -9553722.35944  -7444454.91244  23384626.5194   23384625.8784
  -7580260.05344  -5906667.41144  23631764.5524   23631764.2664
   1189617.158 4    926987.850 4  25070065.514    25070063.766
 -21141183.36644 -16473639.20244  21286582.8234   21286582.1174
 -17334363.74644 -13507288.55844  21744982.0614   21744981.0964
 -20464891.94244 -15946655.51044  20374552.5364   20374552.1984
 96  2 25  2 21 30.0000000  0  6G 4G20G 7G 5G 9G24
 -13855102.25344 -10796170.09144  21376617.9314   21376616.4274
  -9648933.65444  -7518645.51044  23366508.2644   23366507.2114
  -7511009.89444  -5852706.25944  23644942.3104   23644944.0394
 -21205238.71244 -16523552.45144  21274393.2254   21274392.4664
 -17273789.75844 -13460088.06144  21756508.7964   21756507.8184
 -20477703.54844 -15956638.56944  20372114.3174   20372113.9584
 96  2 25  2 22  0.0000000  0  6G 4G20G 7G 5G 9G24
 -13791450.79744 -10746571.54844  21388730.2914   21388729.0394
  -9744119.65644  -7592816.40744  23348395.3594   23348394.7144
  -7441757.36044  -5798743.27844  23658120.2634   23658120.9084
 -21269042.63344 -16573269.78744  21262252.0994   21262251.2454
 -17212806.40744 -13412568.57744  21768113.0064   21768112.5174
 -20489985.76944 -15966209.11844  20369777.4794   20369776.9574
 96  2 25  2 22 30.0000000  0  6G 4G20G 7G 5G 9G24
 -13727404.06344 -10696665.00044  21400918.2714   21400917.0764
  -9839271.95744  -7666961.04344  23330287.7714   23330288.2604
  -7372496.88144  -5744774.09744  23671300.0964   23671301.1124
 -21332585.82544 -16622783.95044  21250160.3804   21250159.7154
 -17151397.67744 -13364717.62744  21779799.2744   21779798.6834
 -20501728.36544 -15975359.18144  20367542.6094   20367542.2604
 96  2 25  2 23  0.0000000  0  7G 4G20G 7G 6G 5G 9G24
 -13662912.41744 -10646411.76844  21413190.7874   21413189.3444
  -9934364.26644  -7741058.92944  23312193.8384   23312194.1944
  -7303206.30744  -5690781.43844  23684485.7514   23684484.0404
        -0.24854                  25215566.7124
 -21395834.71244 -16672068.78144  21238124.3484   21238123.4594
 -17089560.62044 -13316532.91644  21791566.4684   21791566.2604
 -20512903.25944 -15984066.87844  20365416.1764   20365415.8994
 96  2 25  2 23 30.0000000  0  7G 4G20G 7G 6G 5G 9G24
 -13597982.43244 -10595816.96744  21425546.3754   21425544.9464
 -10029388.07944  -7815103.41544  23294110.0244   23294110.2294
  -7233894.83244  -5636772.50544  23697675.4294   23697675.6154
    -72633.49644                  25201743.5434
 -21458798.97644 -16721131.83244  21226142.3224   21226141.2314
 -17027302.27844 -13268019.93644  21803413.8774   21803413.5714
 -20523521.55944 -15992340.86844  20363395.5924   20363395.1994
 96  2 25  2 24  0.0000000  0  7G 4G20G 7G 6G 5G 9G24
 -13532642.45044 -10544902.68944  21437979.8434   21437978.6924
 -10124333.46644  -7889086.79344  23276043.0354   23276044.2904
  -7164575.11844  -5582757.16344  23710866.5934   23710866.4664
   -145192.93444                  25187935.9964
 -21521496.09444 -16769986.72344  21214211.5634   21214210.4804
 -16964639.45144 -13219191.77044  21815337.8844   21815337.4864
 -20533608.50844 -16000200.81544  20361476.2284   20361475.8394
 96  2 25  2 24 30.0000000  0  6G 4G20G 7G 5G 9G24
 -13466858.49244 -10493642.45644  21450498.3034   21450497.0424
 -10219136.30044  -7962959.13644  23258002.5094   23258001.3384
  -7095200.51444  -5528699.01944  23724067.3874   23724066.3244
 -21583866.06344 -16818586.68944  21202343.0884   21202342.0954
 -16901518.60144 -13170006.69944  21827349.5864   21827349.0404
 -20543133.59844 -16007622.95344  20359663.6184   20359663.3184
 96  2 25  2 25  0.0000000  0  6G 4G20G 7G 5G 9G24
 -13400680.56344 -10442075.23444  21463091.7774   21463090.2454
 -10313816.65544  -8036736.02944  23239985.3674   23239984.2914
  -7025795.68344  -5474617.33344  23737276.4674   23737275.6254
 -21645932.41044 -16866950.06744  21190532.2204   21190531.5874
 -16837970.78644 -13120488.92744  21839442.2494   21839441.7774
 -20552121.77744 -16014626.71944  20357953.1734   20357952.8394
 96  2 25  2 25 30.0000000  0  7G 4G20G 7G 6G 5G 9G24
 -13334112.17844 -10390203.76544  21475759.0694   21475757.7514
 -10408339.75944  -8110390.35344  23221998.1284   23221997.6484
  -6956345.38944  -5420500.21744  23750491.8124   23750491.0024
        -0.29554                  25146633.4844
 -21707687.79144 -16915071.13344  21178780.2904   21178779.5074
 -16773962.20344 -13070612.11544  21851622.9024   21851622.5784
 -20560564.57944 -16021205.51444  20356346.6444   20356346.1144
 96  2 25  2 26  0.0000000  0  7G 4G20G 7G 6G 5G 9G24
 -13267186.60444 -10338053.96544  21488494.6794   21488493.4224
 -10502728.69044  -8183940.14444  23204036.7094   23204034.9994
  -6886865.02444  -5366359.68744  23763713.2754   23763714.2214
    -72218.11444                  25132890.4954
 -21769146.65044 -16962961.14944  21167085.3104   21167084.1194
 -16709527.37444 -13020403.16044  21863884.5294   21863883.9124
 -20568475.52144 -16027369.87544  20354841.1104   20354840.8144
 96  2 25  2 26 30.0000000  0  7G 4G20G 7G 6G 5G 9G24
 -13199928.71844 -10285645.22144  21501293.7794   21501292.3504
 -10597034.50644  -8257425.20344  23186090.9674   23186089.7364
  -6817375.63344  -5312212.15244  23776936.6334   23776935.0974
   -144426.07644                  25119146.8274
 -21830340.37244 -17010644.57244  21155440.4734   21155439.2264
 -16644713.26944 -12969898.67344  21876218.2614   21876216.7204
 -20575880.28844 -16033139.81044  20353431.9844   20353431.5134
 96  2 25  2 27  0.0000000  0  7G 4G20G 7G 6G 5G 9G24
 -13132333.99944 -10232974.00944  21514156.1914   21514154.5434
 -10691254.31344  -8330843.22344  23168160.8964   23168161.4334
  -6747857.13244  -5258041.90844  23790166.2054   23790165.8954
   -216613.16744   -168788.72344  25105410.3724
 -21891274.33444 -17058125.56844  21143845.3264   21143844.4474
 -16579529.62944 -12919106.22544  21888622.3964   21888621.2904
 -20582767.88344 -16038506.76144  20352121.4964   20352121.0944
 96  2 25  2 27 30.0000000  0  7G 4G20G 7G 6G 5G 9G24
 -13064394.57344 -10180034.19244  21527084.5194   21527083.0924
 -10785387.14144  -8404193.44344  23150248.3744   23150248.2444
  -6678289.89744  -5203833.67744  23803403.5364
   -288771.77344   -225016.16544  25091680.1554
 -21951954.83144 -17105409.05744  21132297.9854   21132297.3954
 -16513990.88444 -12868037.08344  21901093.2144   21901092.8404
 -20589134.90744 -16043468.06744  20350909.6184   20350909.2404
 96  2 25  2 28  0.0000000  0  6G 4G20G 7G 5G 9G24
 -12996089.70844 -10126809.62044  21540082.8214   21540081.2954
 -10879441.23944  -8477482.30944  23132350.5204   23132351.8654
  -6608661.08044  -5149577.44344  23816653.2914
 -22012375.24744 -17152489.89444  21120800.4554   21120799.4604
 -16448109.20144 -12816700.71744  21913630.3274   21913630.2004
 -20594973.23644 -16048017.40744  20349798.6684   20349798.2314
 96  2 25  2 28 30.0000000  0  7G 4G20G 7G16G 5G 9G24
 -12927439.84244 -10073316.21344  21553146.3164   21553145.1234
 -10973435.05544  -8550724.25044  23114464.6974   23114463.0214
  -6539013.46444  -5095306.55444  23829907.6234
  23829907.6434         -0.80054  24344162.0794
 -22072560.28644 -17199387.32444  21109347.6564   21109346.5184
 -16381893.22844 -12765103.86444  21926231.1294   21926230.6694
 -20600326.89744 -16052189.08144  20348780.0814   20348779.4634
 96  2 25  2 29  0.0000000  0  7G 4G20G 7G16G 5G 9G24
 -12858399.89944 -10019518.86044  21566284.1364   21566282.6414
 -11067310.33344  -8623873.78544  23096600.2784   23096600.4114
  -6469328.27344  -5041006.33944  23843167.6634   23843167.5644
    -93744.34644    -73046.00744  24326323.4044   24326323.8824
 -22132449.01944 -17246053.86544  21097950.9224   21097950.1654
 -16315279.75344 -12713197.27144  21938907.2084   21938906.5904
 -20605149.99044 -16055947.32844  20347862.0874   20347861.5784
 96  2 25  2 29 30.0000000  0  7G 4G20G 7G16G 5G 9G24
 -12788980.51444  -9965425.82844  21579494.2614   21579492.7364
 -11161076.29044  -8696938.15444  23078757.3824   23078756.0344
  -6399644.84944  -4986707.08044  23856428.6874   23856426.9864
   -187504.38044   -146106.46144  24308480.6204   24308479.8344
 -22192043.38744 -17292491.02644  21086610.5644   21086609.8534
 -16248278.07844 -12660988.19144  21951657.3124   21951656.9134
 -20609457.25144 -16059303.62644  20347042.2254   20347041.9024
 96  2 25  2 30  0.0000000  0  8G 4G20G 7G16G 6G 5G 9G24
 -12719185.53944  -9911040.13244  21592775.8824   21592774.5824
 -11254722.01244  -8769908.82544  23060936.5224   23060936.7904
  -6329968.27544  -4932416.12444  23869687.0344   23869683.4974
   -281264.33844                  24290639.3034
        -0.52254                  25023100.9964
 -22251319.78944 -17338680.42144  21075330.5544   21075329.6674
 -16180868.01344 -12608460.87644  21964484.8964   21964484.2814
 -20613254.20844 -16062262.28444  20346319.7604   20346319.3964
 96  2 25  2 30 30.0000000  0  8G 4G20G 7G16G 6G 5G 9G24
 -12649049.79044  -9856388.90444  21606122.2054   21606121.1474
 -11348245.32244  -8842784.09544  23043139.2014   23043137.5434
  -6260314.22544  -4878140.43144  23882942.0914   23882944.4134
   -374651.51444                  24272795.7374
    -71953.32144    -56067.46544  25009409.1134
 -22310283.50144 -17384626.16644  21064110.4064   21064109.3624
 -16113072.43244 -12555633.16344  21977386.2394   21977385.7794
 -20616561.61644 -16064839.47744  20345690.3934   20345690.3524
 96  2 25  2 31  0.0000000  0  7G 4G20G 7G 6G 5G 9G24
 -12578564.53944  -9801465.33244  21619535.2394   21619533.6624
 -11441642.66444  -8915561.22944  23025366.4884   23025366.4404
  -6190649.70544  -4823856.37844  23896198.4104   23896201.6134
   -143842.72044   -112085.13944  24995732.0524
 -22368935.03844 -17430328.65744  21052949.1334   21052948.3204
 -16044917.40344 -12502525.36744  21990354.9464   21990355.0074
 -20619367.27644 -16067025.69644  20345156.5154   20345156.1854
 96  2 25  2 31 30.0000000  0  7G 4G20G 7G 6G 5G 9G24
 -12507737.91244  -9746275.74444  21633012.6804   21633011.6894
 -11534908.97944  -8988236.25844  23007619.0764   23007618.9084
  -6120945.35244  -4769541.31544  23909462.9464   23909463.1724
   -215664.88244   -168050.45144  24982065.6864   24982062.7044
 -22427284.15044 -17475795.49244  21041845.7404   21041844.6474
 -15976416.17144 -12449147.79344  22003390.2804   22003390.1904
 -20621672.17144 -16068821.70944  20344718.0394   20344717.7604
 96  2 25  2 32  0.0000000  0  8G 4G20G 7G16G 6G 5G 9G24
 -12436566.04144  -9690817.14144  21646556.2554   21646555.0544
 -11628031.43044  -9060799.17044  22989898.1934   22989898.6094
  -6051177.54544  -4715176.74344  23922739.0304   23922742.0744
        -0.27054         0.59454  24219230.0124   24219228.5064
   -287406.23144   -223952.84344  24968413.6974   24968412.4794
 -22485324.14744 -17521021.45844  21030801.2874   21030800.4274
 -15907558.43144 -12395492.41644  22016494.1374   22016492.9154
 -20623456.45944 -16070212.05444  20344378.3874   20344378.0124
 96  2 25  2 32 30.0000000  0  8G 4G20G 7G16G 6G 5G 9G24
 -12365062.07944  -9635099.77044  21660163.2334   21660161.9174
 -11721038.21444  -9133271.98644  22972199.6724   22972199.3524
  -5981380.23344  -4660789.18144  23936021.5214
    -93892.80644    -73162.42844  24201363.0304   24201362.6134
   -359102.56844                  24954766.9894
 -22543084.90744 -17566029.82944  21019810.0504   21019809.2074
 -15838358.86344 -12341570.68144  22029662.3094   22029661.7394
 -20624724.51444 -16071200.14044  20344137.1454   20344136.8624
 96  2 25  2 33  0.0000000  0  7G 4G20G 7G16G 5G 9G24
 -12293241.39744  -9579135.60144  21673830.2654   21673828.7954
 -11813963.02344  -9205680.90944  22954516.9364   22954515.1254
  -5911575.32644  -4606395.11344  23949305.3104   23949305.2594
   -187850.92844   -146376.53044  24183483.5094   24183485.4164
 -22600590.74444 -17610839.56244  21008866.6604   21008865.6274
 -15768826.40444 -12287389.55544  22042893.4674   22042893.3564
 -20625479.25744 -16071788.24044  20343993.5144   20343993.0424
 96  2 25  2 33 30.0000000  0  7G 4G20G 7G16G 5G 9G24
 -12221114.46044  -9522932.79244  21687555.4104   21687554.2224
 -11906806.02844  -9278026.10344  22936848.8934   22936849.2214
  -5841788.10044  -4552017.29244  23962584.6194   23962584.9654
   -281872.21544   -219639.86044  24165591.3184   24165591.6994
 -22657839.28044 -17655448.80644  20997972.5284   20997971.7964
 -15698945.51444 -12232936.92744  22056191.6274   22056190.9764
 -20625717.06744 -16071973.53944  20343948.4324   20343948.0214
 96  2 25  2 34  0.0000000  0  7G 4G20G 7G16G 5G 9G24
 -12148643.01944  -9466461.53544  21701346.3314   21701345.3014
 -11999537.89944  -9350284.67544  22919203.5624   22919203.9574
  -5771991.69744  -4497630.39144  23975866.6074   23975867.1394
   -375926.80144   -292929.13644  24147693.2904   24147695.2274
 -22714784.52144 -17699821.71044  20987136.3214   20987135.5384
 -15628679.14344 -12178183.92644  22069563.1854   22069562.1734
 -20625413.58944 -16071737.05344  20344006.0694   20344005.7584
 96  2 25  2 34 30.0000000  0  8G 4G20G 7G16G 6G 5G 9G24
 -12075805.05544  -9409704.67944  21715207.3104   21715206.1754
 -12092141.76044  -9422443.50944  22901580.8964   22901581.0314
  -5702157.71644  -4443214.29944  23989155.4834   23989157.0184
   -469983.37444   -366219.94544  24129795.0374   24129796.6544
        -0.30754                  24900215.5794
 -22771401.22544 -17743938.62144  20976362.6314   20976361.3004
 -15558021.30744 -12123125.88844  22083008.9024   22083008.3654
 -20624566.31444 -16071076.83044  20344167.1544   20344166.8614
 96  2 25  2 35  0.0000000  0  8G 4G20G 7G16G 6G 5G 9G24
 -12002595.75244  -9352658.47144  21729138.7254   21729137.4704
 -12184591.04744  -9494481.89544  22883987.8294   22883988.3514
  -5632269.85044  -4388756.22744  24002454.8474   24002455.8124
   -564029.26144   -439502.43944  24111898.5954   24111899.8764
    -71534.03344                  24886604.9134
 -22827674.21544 -17787787.69844  20965654.0494   20965653.3144
 -15486988.38744 -12067775.57744  22096525.9444   22096525.8344
 -20623188.90944 -16070003.52144  20344429.3024   20344428.9614
 96  2 25  2 35 30.0000000  0  8G 4G20G 7G16G 6G 5G 9G24
 -11929026.71844  -9295331.95544  21743138.0454   21743136.7174
 -12276880.89444  -9566396.05044  22866424.9814   22866426.1644
  -5562337.30144  -4334263.35944  24015762.8684   24015764.4524
   -658067.06744   -512778.63644  24094004.3744   24094006.1944
   -142995.21844                  24873005.0924
 -22883596.26944 -17831363.30944  20955012.5694   20955011.7794
 -15415593.71044 -12012143.37844  22110111.0584   22110111.1384
 -20621309.32344 -16068538.89944  20344786.7334   20344786.6164
 96  2 25  2 36  0.0000000  0  8G 4G20G 7G16G 6G 5G 9G24
 -11855083.17144  -9237713.60544  21757208.6694   21757207.0384
 -12368987.86244  -9638167.70044  22848898.3794   22848898.5874
  -5492341.69344  -4279721.36444  24029082.3274   24029082.5294
   -752070.25244   -586027.84044  24076116.0344   24076117.6344
   -214358.00244                  24859427.2814
 -22939137.03944 -17874641.82344  20944443.3294   20944442.3534
 -15343826.55144 -11956220.93344  22123768.5884   22123768.3604
 -20618920.73344 -16066677.65144  20345241.5354   20345241.2004
 96  2 25  2 36 30.0000000  0  8G 4G20G 7G16G 6G 5G 9G24
 -11780805.94744  -9179835.24644  21771343.3964   21771341.9354
 -12460931.82444  -9709812.31444  22831402.1404   22831402.8704
  -5422325.09544  -4225163.00944  24042405.0734   24042408.7794
   -846054.95844   -659262.64844  24058231.2434   24058231.7644
   -285667.37944   -222597.93744  24845858.2154   24845858.6174
 -22994329.23944 -17917648.72644  20933940.5744   20933939.7894
 -15271727.74544 -11900040.06044  22137488.8284   22137488.4344
 -20616035.67044 -16064429.54444  20345790.4664   20345790.1164
 96  2 25  2 37  0.0000000  0  8G 4G20G 7G16G 6G 5G 9G24
 -11706238.26844  -9121730.55944  21785533.5624   21785532.2024
 -12552736.85144  -9781348.68744  22813932.4864   22813931.8464
  -5352328.01044  -4170619.80544  24055725.8724   24055724.8074
   -940048.21544   -732504.14844  24040344.3004   24040347.1734
   -356969.10944   -278157.74144  24832287.6364
 -23049195.02644 -17960401.28344  20923499.8354   20923498.7324
 -15199319.37444 -11843617.96544  22151267.9334   22151267.1014
 -20612675.85644 -16061811.49644  20346429.9194   20346429.5394
 96  2 25  2 37 30.0000000  0  8G 4G20G 7G16G 6G 5G 9G24
 -11631388.65644  -9063406.19144  21799776.8944   21799775.5444
 -12644422.13044  -9852791.74844  22796486.1384   22796485.7584
  -5282352.32844  -4116093.33044  24069041.5334   24069040.6894
  -1034046.03744   -805749.17744  24022456.9844   24022458.1174
   -428263.14644   -333711.53344  24818720.9204   24818719.6154
 -23103733.74544 -18002898.97844  20913121.7464   20913120.7424
 -15126605.01144 -11786957.43444  22165105.2644   22165104.6864
 -20608835.54744 -16058819.04144  20347160.7494   20347160.4894
 96  2 25  2 38  0.0000000  0  8G 4G20G 7G16G 6G 5G 9G24
 -11556259.36344  -9004863.88744  21814073.4234   21814072.0674
 -12735997.64944  -9924149.26544  22779059.3214   22779059.3854
  -5212405.61844  -4061589.40744  24082352.9984   24082352.1554
  -1128043.24344   -878993.70744  24004570.2314   24004572.2154
   -499547.80944   -389257.99944  24805153.9474   24805153.7924
 -23157960.38544 -18045153.49244  20902802.6574   20902801.7954
 -15053597.47344 -11730068.45544  22178997.6834   22178997.2944
 -20604510.88544 -16055449.16944  20347983.4394   20347983.0454
 96  2 25  2 38 30.0000000  0  8G 4G20G 7G16G 6G 5G 9G24
 -11480789.86344  -8946056.49144  21828434.4694   21828432.8734
 -12827410.91744  -9995380.37344  22761663.6174   22761663.0724
  -5142412.14444  -4007049.06944  24095671.8484   24095672.3054
  -1221999.56144   -952206.43144  23986691.3254   23986691.0284
   -570764.86344   -444751.66444  24791601.3864   24791603.1614
 -23211823.08944 -18087124.43044  20892553.0424   20892551.9284
 -14980249.67144 -11672914.34244  22192954.5724   22192954.2604
 -20599638.51044 -16051652.50544  20348910.6824   20348910.0554
 96  2 25  2 39  0.0000000  0  8G 4G20G 7G16G 6G 5G 9G24
 -11404976.01944  -8886980.76544  21842861.7994   21842860.0744
 -12918676.55944 -10066496.43044  22744297.1594   22744296.0274
  -5072371.23844  -3952471.79244  24108999.8444   24108998.5924
  -1315933.62244  -1025401.76344  23968815.7294   23968817.6964
   -641914.39344   -500192.82144  24778063.1404   24778062.6084
 -23265325.09244 -18128814.30044  20882371.9244   20882371.2804
 -14906569.71244 -11615501.40844  22206975.0854   22206975.0504
 -20594232.57444 -16047440.08144  20349939.5764   20349939.0774
 96  2 25  2 39 30.0000000  0  8G 4G20G 7G16G 6G 5G 9G24
 -11328820.17844  -8827638.54744  21857353.5294   21857351.8344
 -13009813.13344 -10137511.93144  22726953.8134   22726953.5964
  -5002303.49444  -3897873.58244  24122333.4424   24122335.2594
  -1409868.13844  -1098597.53244  23950940.6884   23950941.0424
   -713009.51844   -555591.59344  24764534.9894   24764532.5944
 -23318489.53544 -18170241.13344  20872254.9524   20872253.8524
 -14832585.01944 -11557851.01044  22221054.3264   22221053.9514
 -20588319.51544 -16042832.49844  20351064.7104   20351064.3334
 96  2 25  2 40  0.0000000  0  8G 4G20G 7G16G 6G 5G 9G24
 -11252346.73144  -8768048.85544  21871906.2064   21871904.4364
 -13100813.05844 -10208420.95444  22709637.2064   22709635.9834
  -4932207.64444  -3843253.45944  24135672.5344   24135676.4624
  -1503815.20744  -1171803.00744  23933062.7704   23933064.0874
   -784059.17344   -610954.93144  24751013.0024   24751013.1284
 -23371327.69644 -18211413.72144  20862200.2764   20862198.9574
 -14758292.34344 -11499960.62444  22235191.9274   22235191.2814
 -20581903.19944 -16037832.76444  20352285.5964   20352285.0974
 96  2 25  2 40 30.0000000  0  8G 4G20G 7G16G 6G 5G 9G24
 -11175544.21644  -8708202.74644  21886520.9764   21886519.6214
 -13191639.61344 -10279194.86444  22692352.9044   22692353.4614
  -4862054.46044  -3788588.64644  24149022.4594   24149022.4424
  -1597752.40444  -1245000.83744  23915187.5394   23915188.0124
   -855050.24644   -666272.59744  24737502.5244
 -23423812.82344 -18252311.21944  20852212.4184   20852211.4774
 -14683657.98644 -11441803.99644  22249394.4834   22249394.0604
 -20574960.04044 -16032422.50444  20353606.9404   20353606.5594
 96  2 25  2 41  0.0000000  0  8G 4G20G 7G16G 6G 5G 9G24
 -11098429.80744  -8648113.59744  21901195.3304   21901193.5794
 -13282283.37844 -10349826.34644  22675104.2424   22675104.7414
  -4791872.44944  -3733901.37144  24162377.5224   24162375.3514
  -1691657.52644  -1318173.66344  23897318.8614   23897319.3144
   -925985.04844   -721546.43544  24724004.9584
 -23475946.70644 -18292935.02544  20842291.7254   20842291.0534
 -14608671.05844 -11383372.64044  22263664.4484   22263663.6534
 -20567504.07144 -16026612.65344  20355025.6184   20355025.2494
 96  2 25  2 41 30.0000000  0  8G 4G20G 7G16G 6G 5G 9G24
 -11021040.99344  -8587810.62844  21915922.0234   21915920.2144
 -13372750.95044 -10420320.54444  22657888.9204   22657888.3614
  -4721674.49844  -3679201.64444  24175735.8434   24175733.5854
  -1785536.66244  -1391326.24244  23879453.5184   23879455.0314
   -996872.56044   -776783.38444  24710517.3184   24710520.4314
 -23527739.34444 -18333292.92044  20832436.0444   20832435.4304
 -14533342.43944 -11324675.02544  22277999.2834   22277998.1084
 -20559557.62244 -16020420.61044  20356537.9974   20356537.5744
 96  2 25  2 42  0.0000000  0  8G 4G20G 7G16G 6G 5G 9G24
 -10943399.68044  -8527310.90644  21930696.5144   21930695.0114
 -13463044.27444 -10490678.95344  22640706.2604   22640705.9594
  -4651464.58044  -3624492.59044  24189096.5344   24189097.5854
  -1879404.39244  -1464469.89744  23861590.8054   23861591.2964
  -1067717.73344   -831987.38944  24697035.6204   24697033.3034
 -23579192.86244 -18373386.57144  20822644.9874   20822643.8254
 -14457674.64744 -11265713.11544  22292398.1484   22292397.1794
 -20551120.53944 -16013846.25444  20358143.4824   20358143.1684
 96  2 25  2 42 30.0000000  0  8G 4G20G 7G16G 6G 5G 9G24
 -10865491.87944  -8466603.52944  21945521.8834   21945520.7144
 -13553175.29744 -10560910.89144  22623554.9054   22623554.5284
  -4581267.47444  -3569793.55744  24202454.4784   24202455.9844
  -1973273.03244  -1537614.26844  23843728.3794   23843728.6854
  -1138532.12644                  24683560.4884
 -23630315.35344 -18413222.27744  20812916.5404   20812915.5654
 -14381689.44644 -11206503.87144  22306857.0644   22306856.2864
 -20542213.12444 -16006905.40444  20359838.6214   20359838.2664
 96  2 25  2 43  0.0000000  0  8G 4G20G 7G16G 6G 5G 9G24
 -10787274.45944  -8405654.88944  21960406.4394   21960404.5284
 -13643113.09644 -10630992.27144  22606440.9244   22606440.0034
  -4511046.33244  -3515075.82144  24215817.6134   24215814.2764
  -2067109.07244  -1610733.23644  23825872.5084   23825873.3604
  -1209272.45144   -942289.66644  24670098.6844
 -23681063.42944 -18452766.22844  20803259.4564   20803258.4744
 -14305368.83444 -11147033.27844  22321380.2864   22321380.5134
 -20532802.13544 -15999572.16144  20361629.2154   20361628.8864
 96  2 25  2 43 30.0000000  0  8G 4G20G 7G16G 6G 5G 9G24
 -10708727.62944  -8344449.57044  21975353.1464   21975351.5984
 -13732844.72344 -10700913.01044  22589365.9124   22589365.1094
  -4440756.52744  -3460304.60044  24229191.3224   24229193.3784
  -2160906.14044  -1683821.82244  23808023.4464   23808023.5124
  -1279930.36144   -997347.84544  24656652.7174   24656651.5574
 -23731418.02244 -18492003.56544  20793677.3764   20793676.5034
 -14228712.34844 -11087300.97044  22335967.5054   22335968.2664
 -20522857.79544 -15991823.31844  20363521.4644   20363521.1974
 96  2 25  2 44  0.0000000  0  8G 4G20G 7G16G 6G 5G 9G24
 -10629880.28844  -8283010.08444  21990357.2394   21990355.9074
 -13822397.07244 -10770694.05644  22572324.7134   22572323.5924
  -4370440.81844  -3405513.17344  24242572.6004   24242574.1124
  -2254685.51344  -1756896.62144  23790177.5704   23790178.6394
  -1350558.83244  -1052382.97044  24643212.5744   24643212.9364
 -23781425.08244 -18530970.10544  20784161.4304   20784160.3074
 -14151765.04044 -11027342.05544  22350610.6794   22350610.5524
 -20512416.34944 -15983687.11844  20365508.5254   20365508.1454
 96  2 25  2 44 30.0000000  0  8G 4G20G 7G16G 6G 5G 9G24
 -10550759.31244  -8221357.38244  22005414.2324   22005412.8534
 -13911786.80944 -10840348.37644  22555314.1204   22555313.8864
  -4300117.87644  -3350716.10444  24255954.9264   24255953.7954
  -2348435.64244  -1829948.63044  23772337.9644   23772339.8414
  -1421195.78544  -1107424.71744  24629769.9954
 -23831111.29344 -18569686.63444  20774706.2304   20774705.4324
 -14074559.36844 -10967181.80744  22365302.8584   22365302.3774
 -20501498.62544 -15975179.79644  20367585.9704   20367585.6484
 96  2 25  2 45  0.0000000  0  8G 4G20G 7G16G 6G 5G 9G24
 -10471354.07344  -8159483.17344  22020524.1214   22020522.6184
 -14000971.81744 -10909843.16944  22538342.0854   22538342.1014
  -4229740.85544  -3295876.88344  24269348.0224   24269347.3174
  -2442095.78144  -1902930.51144  23754514.2664   23754512.9364
  -1491808.79344  -1162447.78844  24616331.8354
 -23880433.65344 -18608119.63544  20765320.5334   20765319.5674
 -13997068.28344 -10906799.15644  22380048.9264   22380048.0244
 -20490066.93344 -15966271.97544  20369761.2894   20369760.9934
 96  2 25  2 45 30.0000000  0  8G 4G20G 7G16G 6G 5G 9G24
 -10391677.99944  -8097397.92144  22035685.8624   22035684.3554
 -14089954.95244 -10979180.66244  22521408.7874   22521408.9024
  -4159316.52944  -3241000.79244  24282748.3514   24282748.8794
  -2535654.48044  -1975833.35944  23736711.1184   23736709.5974
  -1562412.79144  -1217463.85644  24602897.6634   24602898.9914
 -23929401.14744 -18646276.11944  20756002.3434   20756001.2664
 -13919301.00744 -10846201.29044  22394847.2394   22394846.8184
 -20478132.15544 -15956972.14244  20372032.6224   20372032.3024
 96  2 25  2 46  0.0000000  0  8G 4G20G 7G16G 6G 5G 9G24
 -10311752.08744  -8035117.99444  22050895.3764   22050893.7234
 -14178760.41844 -11048379.70944  22504510.5354   22504509.6274
  -4088879.55244                  24296152.7074
  -2629125.96744  -2048668.25344  23718923.7164   23718925.6874
  -1633022.21444  -1272484.15044  24589461.2464   24589461.2574
 -23978029.30644 -18684168.18044  20746748.8724   20746747.7704
 -13841283.43744 -10785408.38644  22409693.5274   22409693.1604
 -20465726.76344 -15947305.59844  20374393.2904   20374392.8494
 96  2 25  2 46 30.0000000  0  8G 4G20G 7G16G 6G 5G 9G24
 -10231553.69544  -7972625.74044  22066156.4504   22066154.9924
 -14267377.05844 -11117431.61044  22487647.6834   22487647.4324
  -4018399.63244  -3131195.33244  24309564.5644
  -2722507.13844  -2121432.78344  23701154.0834   23701155.3294
  -1703594.86444  -1327475.83544  24576032.1914   24576030.6524
 -24026283.29044 -18721768.68344  20737566.2064   20737565.1014
 -13763010.45844 -10724416.47044  22424588.4214   22424588.0714
 -20452830.86244 -15937256.83744  20376847.4974   20376847.0674
 96  2 25  2 47  0.0000000  0  8G 4G20G 7G16G 6G 5G 9G24
 -10151068.21844  -7909909.78944  22081472.0684   22081471.0904
 -14355806.17544 -11186337.38944  22470819.8024   22470819.0414
  -3947874.31644                  24322983.4104
  -2815808.57144  -2194135.17144  23683398.6964   23683398.8174
  -1774102.74544  -1382417.03444  24562615.6824   24562610.0464
 -24074138.72544 -18759058.63244  20728459.6764   20728458.9814
 -13684463.73744 -10663211.24044  22439534.9944   22439535.1544
 -20439430.37144 -15926814.89144  20379397.1954   20379396.9524
 96  2 25  2 47 30.0000000  0  8G 4G20G 7G16G 6G 5G 9G24
 -10070292.24244  -7846967.47544  22096843.4084   22096842.4174
 -14444068.65944 -11255113.34344  22454024.2024   22454022.7924
  -3877325.07644                  24336409.4154
  -2909071.17244  -2266807.30244  23665651.9824   23665651.5174
  -1844548.62344  -1437309.90544  24549208.7184   24549210.0994
 -24121612.30444 -18796051.02644  20719425.7754   20719424.9944
 -13605637.86544 -10601788.50344  22454534.4744   22454534.9594
 -20425534.39844 -15915986.85244  20382041.6724   20382041.3104
 96  2 25  2 48  0.0000000  0  8G 4G20G 7G16G 6G 5G 9G24
  -9989211.13644  -7783787.39144  22112272.4234   22112271.4334
 -14532162.51244 -11323757.88844  22437260.6044   22437260.7944
  -3806751.28544  -2966274.69144  24349839.7564   24349838.9544
  -3002303.74344  -2339456.02144  23647910.7904   23647911.8454
  -1914910.32444  -1492137.12644  24535819.7964   24535819.3524
 -24168688.28644 -18832733.60744  20710467.5484   20710466.5544
 -13526512.63944 -10540132.50044  22469591.8844   22469592.4804
 -20411128.01344 -15904761.09244  20384782.9484   20384782.5414
 96  2 25  2 48 30.0000000  0  8G 4G20G 7G16G 6G 5G 9G24
  -9907852.35444  -7720390.93244  22127754.4704   22127753.5894
 -14620105.69644 -11392285.02344  22420524.8064   22420525.0754
  -3736180.58544  -2911284.53044  24363268.7044
  -3095518.89744  -2412091.18644  23630171.5774   23630172.6884
  -1985208.29944  -1546914.78544  24522442.3094   24522441.8204
 -24215391.03944 -18869125.36144  20701580.4444   20701579.1764
 -13447101.32444 -10478253.57144  22484703.9114   22484703.3634
 -20396237.81044 -15893158.33144  20387616.6614   20387616.2794
 96  2 25  2 49  0.0000000  0  8G 4G20G 7G16G 6G 5G 9G24
  -9826218.51344  -7656780.14544  22143289.1334   22143288.4804
 -14707884.43844 -11460684.02944  22403820.9814   22403821.5084
  -3665614.61544                  24376697.9164
  -3188673.95744  -2484679.51044  23612444.7104   23612445.4234
  -2055446.13444  -1601645.54744  24509076.2864   24509075.1294
 -24261719.28844 -18905225.28644  20692764.1844   20692763.4164
 -13367373.37744 -10416127.90444  22499875.5494   22499874.2524
 -20380864.77144 -15881179.33744  20390541.8904   20390541.5954
 96  2 25  2 49 30.0000000  0  8G 4G20G 7G16G 6G 5G 9G24
  -9744282.05144  -7592933.54944  22158881.3654   22158879.9514
 -14795449.97444 -11528916.90244  22387157.8464   22387157.7904
  -3595003.94144                  24390134.2354
  -3281717.37244  -2557180.83144  23594739.4484   23594740.5444
  -2125603.39044  -1656313.52444  24495726.7544   24495727.7974
 -24307647.33244 -18941013.37044  20684024.4394   20684023.6724
 -13287316.94244 -10353746.27144  22515110.4674   22515108.8414
 -20365008.09844 -15868823.48244  20393559.2794   20393558.8954
 96  2 25  2 50  0.0000000  0  8G 4G20G 7G16G 6G 5G 9G24
  -9662119.82644  -7528911.03744  22174516.1964   22174514.7614
 -14882843.34144 -11597015.62344  22370527.7704   22370527.1764
  -3524397.14644                  24403570.2134
  -3374674.55344  -2629615.00344  23577050.8414   23577051.8474
  -2195752.85544  -1710975.44644  24482376.7144   24482373.8784
 -24353228.91144 -18976531.48444  20675350.6934   20675349.6874
 -13207011.70744 -10291170.76044  22530391.6494   22530390.7214
 -20348737.85944 -15856145.37044  20396655.4974   20396655.1374
 96  2 25  2 50 30.0000000  0  8G 4G20G 7G16G 6G 5G 9G24
  -9579732.88944  -7464713.43244  22190193.8074   22190192.4754
 -14970046.75644 -11664966.31244  22353933.0674   22353933.2434
  -3453778.34844                  24417007.0324
  -3467518.65744  -2701961.04644  23559382.6564   23559382.2224
  -2265903.15544  -1765637.98244  24469027.5984   24469027.4834
 -24398454.53044 -19011772.21944  20666744.2514   20666743.4684
 -13126455.79644 -10228399.92644  22545720.7814   22545720.1314
 -20332058.72344 -15843148.63644  20399829.4154   20399829.0804
 96  2 25  2 51  0.0000000  0  7G 4G20G16G 6G 5G 9G24
  -9497112.46144  -7400333.86844  22205915.9514   22205914.9934
 -15057039.70944 -11732753.01244  22337378.9904   22337378.8274
  -3560253.77344  -2774222.12944  23541735.5824   23541736.7904
  -2336042.46144  -1820291.96844  24455681.1774   24455684.2454
 -24443303.59144 -19046719.53944  20658209.9124   20658208.7784
 -13045641.68844 -10165427.91144  22561098.1384   22561098.5264
 -20314944.47944 -15829812.85744  20403086.3444   20403085.7904
 96  2 25  2 51 30.0000000  0  8G 4G20G 7G16G 6G 5G 9G24
  -9414245.17544  -7335761.96044  22221684.8754   22221684.5074
 -15143805.36144 -11800362.58344  22320868.0664   22320867.7314
        -0.51954                  24443909.8934
  -3652905.80544  -2846418.49244  23524104.5004   23524103.5854
  -2406161.40144  -1874930.06844  24442336.3204   24442338.0684
 -24487759.97244 -19081360.87544  20649750.0384   20649749.2424
 -12964570.32144 -10102255.43644  22576526.2674   22576526.1334
 -20297374.72844 -15816122.13744  20406429.5644   20406429.1994
 96  2 25  2 52  0.0000000  0  8G 4G20G 7G16G 6G 5G 9G24
  -9331150.47244  -7271012.84544  22237496.9514   22237496.2374
 -15230360.14944 -11867807.86344  22304397.4344   22304396.9414
     70722.40644     55108.28844  24457367.1834
  -3745498.04744  -2918568.25844  23506485.1224   23506485.2164
  -2476260.55944  -1929552.79544  24428996.6964   24428997.1374
 -24531826.69944 -19115698.58044  20641364.6614   20641363.6384
 -12883238.01444 -10038879.63744  22592003.5934   22592003.9404
 -20279336.90244 -15802066.68444  20409861.9564   20409861.5274
 96  2 25  2 52 30.0000000  0  8G 4G20G 7G16G 6G 5G 9G24
  -9247838.14944  -7206094.14944  22253351.0694   22253350.4274
 -15316719.46144 -11935100.82844  22287964.0344   22287964.3374
    141431.33744                  24470824.5814
  -3838064.07944  -2990697.61044  23488870.1454   23488870.7574
  -2546335.86844  -1984156.93444  24415663.7224   24415661.8504
 -24575519.58244 -19149744.98044  20633049.9174   20633048.9454
 -12801662.93044  -9975314.65644  22607527.6684   22607526.9634
 -20260835.70444 -15787650.16144  20413382.9234   20413382.3774
 96  2 25  2 53  0.0000000  0  8G 4G20G 7G16G 6G 5G 9G24
  -9164288.08944  -7140990.20444  22269249.9824   22269249.3424
 -15402857.34944 -12002221.24544  22271572.5184   22271571.9204
    212143.21044                  24484279.5234
  -3930578.20144  -3062786.49944  23471265.4254   23471265.8144
  -2616361.46144  -2038722.36544  24402337.9124   24402335.5794
 -24618831.68344 -19183494.66644  20624808.1794   20624807.0964
 -12719835.22244  -9911552.82644  22623098.4284   22623097.8784
 -20241850.52044 -15772856.51044  20416995.4994   20416995.2054
 96  2 25  2 53 30.0000000  0  8G 4G20G 7G16G 6G 5G 9G24
  -9080485.47744  -7075689.47444  22285197.2314   22285196.5524
 -15488770.01844 -12069166.17044  22255223.5504   22255222.7474
    282868.50944                  24497736.7824
  -4023001.26044  -3134804.42844  23453677.8104   23453677.7914
  -2686332.54644  -2093245.29744  24389022.6904   24389020.6854
 -24661753.36744 -19216940.13244  20616640.3884   20616639.2064
 -12637764.60744  -9847601.70744  22638715.6134   22638716.0414
 -20222376.71144 -15757682.10744  20420701.3174   20420700.7244
 96  2 25  2 54  0.0000000  0  8G 4G20G 7G16G 6G 5G 9G24
  -8996419.24644  -7010183.32644  22301194.9264   22301193.7424
 -15574443.86444 -12135924.99544  22238920.2824   22238919.9814
    353640.05844                  24511204.9414
  -4115289.25444  -3206717.13244  23436116.3114   23436116.4614
  -2756241.50744  -2147719.77444  24375720.1894   24375719.2244
 -24704262.47444 -19250064.11444  20608551.0934   20608550.0034
 -12555445.74844  -9783457.15844  22654380.0094   22654379.3934
 -20202399.34344 -15742115.32644  20424502.6494   20424502.3884
 96  2 25  2 54 30.0000000  0  8G 4G20G 7G16G 6G 5G 9G24
  -8912088.86144  -6944471.33244  22317241.6904   22317240.9414
 -15659870.59444 -12202491.25744  22222663.8904   22222663.5034
    424475.87444                  24524683.5564
  -4207428.31644  -3278513.77644  23418582.7424   23418582.8154
  -2826101.11244  -2202155.81444  24362425.9594   24362427.2874
 -24746357.63044 -19282865.53144  20600540.7264   20600539.7524
 -12472893.09444  -9719130.42644  22670088.8554   22670088.4214
 -20181930.00044 -15726165.18344  20428397.7764   20428397.4344
 96  2 25  2 55  0.0000000  0  8G 4G20G 7G16G 6G 5G 9G24
  -8827530.61444  -6878581.79744  22333332.7604   22333331.8504
 -15745077.47844 -12268886.22344  22206449.4174   22206449.1074
    495372.81144                  24538175.0014
  -4299433.11144  -3350205.79744  23401074.3074   23401074.8874
  -2895954.72844  -2256587.19344  24349133.6874   24349133.4364
 -24788043.05644 -19315347.67944  20592608.2044   20592607.3754
 -12390130.24844  -9654639.92044  22685838.1254   22685837.7214
 -20160995.91644 -15709852.90644  20432381.5304   20432381.1314
 96  2 25  2 55 30.0000000  0  8G 4G20G 7G16G 6G 5G 9G24
  -8742757.25244  -6812524.62944  22349465.1324   22349464.2044
 -15830049.38844 -12335098.08944  22190280.1754   22190279.7954
    566335.08744                  24551681.5594
  -4391322.57044  -3421807.93544  23383588.4734   23383587.9794
  -2965793.36844  -2311006.91944  24335842.7854   24335841.8694
 -24829292.68044 -19347490.24144  20584758.6864   20584757.6034
 -12307145.25744  -9589976.30344  22701630.2074   22701629.3244
 -20139591.52144 -15693174.15244  20436454.5114   20436454.1474
 96  2 25  2 56  0.0000000  0  8G 4G20G 7G16G 6G 5G 9G24
  -8657794.53944  -6746319.90944  22365632.7464   22365631.8774
 -15914789.95344 -12401129.69644  22174154.5984   22174154.4054
    637328.22844                  24565189.3434
  -4483128.66044  -3493345.12244  23366118.0414   23366117.6254
  -3035621.84444  -2365418.72944  24322555.5804   24322555.3034
 -24870123.49044 -19379306.45844  20576988.9174   20576987.7614
 -12223941.59044  -9525142.28044  22717464.3424   22717462.8934
 -20117746.23644 -15676151.84944  20440611.8604   20440611.4074
 96  2 25  2 56 30.0000000  0  8G 4G20G 7G16G 6G 5G 9G24
  -8572629.32644  -6679957.40644  22381839.7214   22381838.4564
 -15999290.57044 -12466974.32844  22158074.5464   22158074.1584
    708343.72444                  24578703.0464
  -4574849.29044  -3564815.72644  23348664.7344   23348664.1324
  -3105408.32444  -2419797.78044  24309274.8574   24309275.2204
 -24910539.67444 -19410799.58244  20569298.0034   20569296.9804
 -12140511.22944  -9460131.61444  22733339.8434   22733339.8384
 -20095456.29944 -15658783.06444  20444853.3884   20444853.0534
 96  2 25  2 57  0.0000000  0  8G 4G20G 7G16G 6G 5G 9G24
  -8487242.86144  -6613422.50044  22398087.9354   22398086.4034
 -16083538.88844 -12532622.35444  22142043.0254   22142042.9374
    779389.97544                  24592222.3034
  -4666470.50544  -3636208.86144  23331229.2904   23331229.4074
  -3175132.16344  -2474128.01844  24296007.2204   24296006.8124
 -24950534.07444 -19441964.05144  20561687.2454   20561686.2524
 -12056835.24744  -9394929.57044  22749262.4244   22749262.9834
 -20072698.86644 -15641049.99444  20449183.7544   20449183.4704
 96  2 25  2 57 30.0000000  0  8G 4G20G 7G16G 6G 5G 9G24
  -8401624.23444  -6546706.70044  22414381.0504   22414379.8484
 -16167534.05444 -12598073.11544  22126058.9244   22126058.6724
    850458.82744                  24605747.3364
  -4757974.65944  -3707510.76744  23313817.1184   23313818.6624
  -3244779.42344  -2528398.59044  24282753.6554   24282753.9004
 -24990115.80944 -19472806.95944  20554155.0284   20554154.2634
 -11972920.37144  -9329541.38444  22765231.6914   22765231.7464
 -20049477.21144 -15622955.19844  20453602.5824   20453602.2494
 96  2 25  2 58  0.0000000  0  8G 4G20G 7G16G 6G 5G 9G24
  -8315738.89844  -6479783.05944  22430723.8194   22430722.7984
 -16251270.28144 -12663322.11644  22110124.4734   22110124.2154
    921573.50844                  24619279.9194
  -4849311.98944  -3778682.67844  23296435.8744   23296436.0974
  -3314335.75244  -2582598.31244  24269517.7004   24269517.9484
 -25029276.39844 -19503321.70244  20546703.1614   20546702.0694
 -11888764.82944  -9263965.64944  22781245.3494   22781245.3884
 -20025763.73744 -15604477.16144  20458115.3314   20458115.1054
 96  2 25  2 58 30.0000000  0  7G 4G20G16G 6G 5G 9G24
  -8229590.58344  -6412654.50544  22447117.5424   22447116.0644
 -16334739.92944 -12728363.39044  22094241.0674   22094240.3274
  -4940469.72644  -3849714.64844  23279088.4244   23279088.4064
  -3383810.50844  -2636734.46344  24256297.3744   24256298.6174
 -25068015.28244 -19533507.84544  20539330.9734   20539330.0514
 -11804369.42044  -9198203.01544  22797305.1124   22797304.6774
 -20001553.83644 -15585612.30244  20462722.3174   20462721.9994
 96  2 25  2 59  0.0000000  0  7G 4G20G16G 6G 5G 9G24
  -8143274.44444  -6345395.16644  22463542.4814   22463541.6704
 -16418005.64444 -12793245.75644  22078396.5994   22078396.0044
  -5031505.04844  -3920651.24344  23261765.7314   23261765.4594
  -3453295.09744  -2690878.28144  24243074.2684   24243075.6104
 -25106385.52544 -19563406.73344  20532029.4724   20532028.4764
 -11719807.76544  -9132310.81744  22813397.5674   22813396.0834
 -19976920.87044 -15566417.77844  20467410.0044   20467409.5354
 96  2 25  2 59 30.0000000  0  8G 4G20G 7G16G 6G 5G 9G24
  -8056743.28044  -6277968.29344  22480008.6554   22480008.1134
 -16501014.35544 -12857927.86544  22062600.1084   22062599.7744
        -0.48554                  24659917.2774
  -5122364.13044  -3991450.51744  23244475.3814   23244475.8414
  -3522739.45244  -2744990.78244  24229859.4924   24229859.8804
 -25144330.42744 -19592974.18544  20524808.9304   20524807.9964
 -11635031.10744  -9066251.08744  22829529.4804   22829528.8494
 -19951821.74744 -15546860.01644  20472185.9714   20472185.4754
 96  2 25  3  0  0.0000000  0  8G 4G20G 7G16G 6G 5G 9G24
  -7969999.52644  -6210375.75544  22496515.9834   22496514.7904
 -16583763.52944 -12922407.72544  22046853.1194   22046852.7704
     71242.69744                  24673473.6314
  -5213068.41744  -4062129.15444  23227214.5664   23227214.7504
  -3592156.44844  -2799081.89644  24216649.8234   24216650.3294
 -25181856.00944 -19622214.89944  20517668.3314   20517667.3254
 -11550034.02444  -9000019.61044  22845704.1214   22845703.6134
 -19926276.41844 -15526954.55944  20477047.0024   20477046.6424
 96  2 25  3  0 30.0000000  0  8G 4G20G 7G16G 6G 5G 9G24
  -7883064.58944  -6142634.25444  22513058.4094   22513056.9884
 -16666265.41244 -12986694.89044  22031153.4104   22031153.7134
    142497.61044                  24687033.7114
  -5303642.02844  -4132705.96644  23209979.3264   23209979.4454
  -3661561.57844  -2853163.79244  24203443.2344   24203442.7264
 -25218956.61944 -19651124.46644  20510608.1024   20510607.0634
 -11464824.10444  -8933622.29844  22861919.6554   22861919.1414
 -19900320.02044 -15506728.79144  20481986.2994   20481986.0014
 96  2 25  3  1  0.0000000  0  7G 4G20G16G 6G 5G 9G24
  -7795927.98844  -6074735.60844  22529640.9424   22529638.5884
 -16748527.44644 -13050795.17844  22015500.0354   22015499.3894
  -5394086.87244  -4203182.43244  23192768.4864   23192769.7414
  -3730956.11944  -2907237.44244  24190237.4894   24190237.1034
 -25255617.10544 -19679691.07444  20503631.8184   20503630.8974
 -11379413.96044  -8867068.96244  22878172.7504   22878172.4164
 -19873950.90344 -15486181.42644  20487004.3154   20487003.8544
 96  2 25  3  1 30.0000000  0  7G 4G20G16G 6G 5G 9G24
  -7708570.05244  -6006664.49044  22546264.2174   22546262.7654
 -16830556.13244 -13114713.62544  21999890.1104   21999889.4814
  -5484420.97544  -4273572.60744  23175578.7604   23175578.6354
  -3800337.10344  -2961300.54744  24177034.5554   24177035.3724
 -25291848.86744 -19707923.61144  20496737.2044   20496736.1294
 -11293817.89244  -8800370.73344  22894460.5664   22894460.9194
 -19847179.47244 -15465320.56944  20492098.7774   20492098.3014
 96  2 25  3  2  0.0000000  0  8G 4G20G 7G16G 6G 5G 9G24
  -7620940.99144  -5938382.10244  22562939.3604   22562937.2074
 -16912289.89344 -13178402.24644  21984336.4534   21984336.3874
        -0.60254                  24727736.2304
  -5574578.50944  -4343825.21244  23158422.1394   23158422.0734
  -3869653.05144  -3015312.90144  24163843.8874   24163843.3444
 -25327589.76244 -19735773.66044  20489935.8884   20489935.0424
 -11207996.49244  -8733496.92544  22910790.9774   22910791.1394
 -19819947.80144 -15444101.07844  20497280.7534   20497280.3984
 96  2 25  3  2 30.0000000  0  8G 4G20G 7G16G 6G 5G 9G24
  -7533088.16744  -5869925.35044  22579657.2064   22579656.2834
 -16993758.70344 -13241884.42444  21968833.6034   21968832.9574
     71386.23744                  24741321.2424
  -5664566.15144  -4413945.42744  23141297.9554   23141298.4034
  -3938928.84844  -3069294.07344  24150659.7074   24150661.1464
 -25362871.86344 -19763266.20444  20483221.8514   20483220.9014
 -11121988.70144  -8666477.89044  22927158.1814   22927157.6724
 -19792260.15044 -15422526.28344  20502549.7064   20502549.3324
 96  2 25  3  3  0.0000000  0  8G 4G20G 7G16G 6G 5G 9G24
  -7445079.83644  -5801347.43644  22596404.5074   22596403.5184
 -17075019.50544 -13305204.52644  21953370.4284   21953369.7174
    142761.82944                  24754903.3544
  -5754433.12744  -4483971.62844  23124197.1964   23124196.6764
  -4008227.04244  -3123292.61444  24137474.1384   24137474.4914
 -25397776.13744 -19790464.34144  20476579.7254   20476578.6174
 -11035857.06244  -8599362.33744  22943548.6144   22943547.8774
 -19764160.95944 -15400630.80444  20507896.8294   20507896.2314
 96  2 25  3  3 30.0000000  0  8G 4G20G 7G16G 6G 5G 9G24
  -7356905.15844  -5732639.91444  22613183.8114   22613182.5944
 -17156050.65844 -13368345.67444  21937950.5344   21937949.9024
    214146.19044                  24768487.5014
  -5844148.70344  -4553879.83744  23107124.3144   23107125.6114
  -4077514.01644  -3177282.43044  24124289.8434   24124287.2504
 -25432286.60744 -19817355.61344  20470012.6474   20470011.8104
 -10949564.20444  -8532121.15744  22959970.0794   22959968.7414
 -19735627.62844 -15378397.03444  20513326.3704   20513325.9294
 96  2 25  3  4  0.0000000  0  8G 4G20G 7G16G 6G 5G 9G24
  -7268556.40344  -5663796.72044  22629996.1974   22629994.9854
 -17236811.90744 -13431276.51044  21922582.2334   21922582.3734
    285585.34644                  24782081.5184
  -5933669.44344  -4623636.23244  23090088.7644   23090089.0504
  -4146750.53644  -3231232.94044  24111114.9564   24111113.9984
 -25466362.29144 -19843908.09144  20463528.4264   20463527.1724
 -10863058.31744  -8464713.97944  22976431.4024   22976431.0574
 -19706619.38844 -15355793.20844  20518846.4864   20518845.9624
 96  2 25  3  4 30.0000000  0  8G 4G20G 7G16G 6G 5G 9G24
  -7180050.69044  -5594831.22844  22646837.6134   22646836.8134
 -17317320.76444 -13494010.67344  21907261.8764   21907262.0944
    357059.27644                  24795682.3734
  -6023012.40444  -4693254.11544  23073087.9864   23073087.4454
  -4215949.42844  -3285154.12844  24097945.7084   24097946.6964
 -25500017.39144 -19870132.84744  20457123.9904   20457123.2454
 -10776328.21944  -8397132.09844  22992935.8794   22992935.6154
 -19677153.99744 -15332833.15744  20524453.4394   20524453.0474
 96  2 25  3  5  0.0000000  0  8G 4G20G 7G16G 6G 5G 9G24
  -7091384.13944  -5525740.42744  22663710.4854   22663709.0484
 -17397576.68544 -13556547.73944  21891989.5774   21891989.0694
    428564.61444                  24809290.3614
  -6112195.75444  -4762747.61444  23056116.3624   23056116.8754
  -4285113.93244  -3339048.50644  24084784.3154   24084786.1534
 -25533245.20844 -19896024.64744  20450800.9364   20450799.9384
 -10689383.29044  -8329382.81944  23009480.4544   23009481.0704
 -19647254.51844 -15309534.86044  20530143.3564   20530142.8494
 96  2 25  3  5 30.0000000  0  8G 4G20G 7G16G 6G 5G 9G24
  -7002541.34244  -5456512.27044  22680617.0044   22680615.6764
 -17477548.61744 -13618863.52244  21876771.6164   21876770.7834
    500096.53744                  24822899.9904
  -6201207.29244  -4832107.22844  23039178.6454   23039179.2894
  -4354226.03844  -3392902.05244  24071633.4174   24071632.8874
 -25566019.68144 -19921563.20144  20444564.2354   20444563.3794
 -10602218.67944  -8261462.37244  23026066.4824   23026067.0634
 -19616918.14144 -15285896.12144  20535916.0994   20535915.4714
 96  2 25  3  6  0.0000000  0  8G 4G20G 7G16G 6G 5G 9G24
  -6913503.50044  -5387132.12044  22697560.1564   22697559.2944
 -17557207.05944 -13680935.02944  21861612.6964   21861612.5104
    571658.53644                  24836519.1804
  -6290026.27044  -4901316.81444  23022276.5754   23022276.4064
  -4423285.62644  -3446714.67544  24058491.9414   24058488.8664
 -25598322.22644 -19946734.01344  20438417.0674   20438416.1644
 -10514847.04144  -8193380.59644  23042693.0974   23042692.5164
 -19586135.58044 -15261909.70244  20541773.8064   20541773.3054
 96  2 25  3  6 30.0000000  0  8G 4G20G 7G16G 6G 5G 9G24
  -6824283.07544  -5317609.71944  22714538.3504   22714538.1484
 -17636574.62344 -13742779.86844  21846509.7874   21846509.6184
    643223.27344                  24850138.7074
  -6378675.14844  -4970393.83444  23005407.2414   23005407.4654
  -4492317.04844  -3500505.39844  24045355.8094   24045356.2564
 -25630180.59544 -19971558.71644  20432354.6414   20432353.5804
 -10427324.26944  -8125181.05344  23059348.7034   23059347.4034
 -19554949.40344 -15237608.78744  20547708.2174   20547707.7304
 96  2 25  3  7  0.0000000  0  8G 4G20G 7G16G 6G 5G 9G24
  -6734879.96944  -5247944.95444  22731552.3024   22731551.0994
 -17715633.17844 -13804383.93344  21831465.5644   21831465.5264
    714805.51544                  24863760.0664
  -6467142.57044  -5039329.46544  22988572.4644   22988573.8234
  -4561299.34344  -3554257.78444  24032227.7244   24032230.8814
 -25661585.03844 -19996029.71344  20426378.7804   20426377.6324
 -10339676.74144  -8056884.27844  23076027.4584   23076025.9984
 -19523361.10544 -15212994.52144  20553719.3494   20553718.7294
 96  2 25  3  7 30.0000000  0  8G 4G20G 7G16G 6G 5G 9G24
  -6645297.45144  -5178140.38044  22748598.3354   22748596.6294
 -17794378.69944 -13865744.07244  21816480.6284   21816480.4764
    786419.19244                  24877387.6084
  -6555417.46444  -5108115.07644  22971774.6594   22971774.2714
  -4630228.33444  -3607968.60444  24019110.3234   24019111.7044
 -25692535.38344 -20020146.86344  20420488.9774   20420487.9814
 -10251904.30044  -7988490.17844  23092730.1514   23092729.5134
 -19491371.19544 -15188067.31744  20559806.9094   20559806.4024
 96  2 25  3  8  0.0000000  0  8G 4G20G 7G16G 6G 5G 9G24
  -6555543.48844  -5108202.24444  22765678.0224   22765676.3854
 -17872829.27644 -13926874.38144  21801552.0314   21801552.0804
    858091.39544                  24891025.8814
  -6643506.73244  -5176756.05744  22955011.4434   22955011.0114
  -4699098.75944  -3661633.82444  24006005.0444   24006006.5124
 -25723036.39244 -20043913.88544  20414684.7864   20414683.7104
 -10164000.45344  -7919993.69144  23109457.4814   23109458.2654
 -19458984.02744 -15162830.55744  20565969.8334   20565969.3714
 96  2 25  3  8 30.0000000  0  8G 4G20G 7G16G 6G 5G 9G24
  -6465622.72144  -5038134.12044  22782789.7234   22782787.9694
 -17950991.90444 -13987780.31444  21786678.3464   21786677.7124
    929837.89844                  24904679.2414
  -6731405.33344  -5245248.45844  22938285.3044   22938285.4344
  -4767901.88544  -3715246.63344  23992912.4744   23992911.9334
 -25753083.60144 -20067327.29544  20408967.0154   20408966.1834
 -10075944.26744  -7851378.49244  23126214.4784   23126213.3754
 -19426194.39344 -15137280.18944  20572209.4994   20572209.1014
 96  2 25  3  9  0.0000000  0  7G 4G20G16G 6G 5G 9G24
  -6375545.39644  -4967943.99744  22799930.9844   22799928.5554
 -18028865.94244 -14048461.37944  21771859.6304   21771858.9614
  -6819107.32344  -5313587.64444  22921595.7494   22921596.0884
  -4836663.79744  -3768827.35344  23979827.4544   23979826.5634
 -25782682.78444 -20090391.59444  20403334.5324   20403333.4354
  -9987722.38044  -7782634.18344  23143002.2934   23143002.0834
 -19392989.71544 -15111406.41244  20578528.0864   20578527.7164
 96  2 25  3  9 30.0000000  0  7G 4G20G16G 6G 5G 9G24
  -6285340.64644  -4897654.58344  22817095.9184   22817094.9324
 -18106483.26244 -14108942.39544  21757089.0384   21757088.5764
  -6906644.28844  -5381798.25444  22904938.0584   22904938.1334
  -4905433.84344  -3822414.36144  23966739.9874   23966741.5634
 -25811866.34944 -20113132.03544  20397781.0814   20397780.0704
  -9899355.52744  -7713776.92344  23159817.5424   23159817.3244
 -19359391.20244 -15085225.74844  20584921.7304   20584921.2974
 96  2 25  3 10  0.0000000  0  7G20G 4G16G 6G 5G 9G24
 -18183826.10944 -14169209.54244  21742371.0424   21742370.8124
  -6194999.86044  -4827259.16944  22834287.5834   22834285.9084
  -6993994.55844  -5449863.37244  22888315.1494   22888315.4404
  -4974210.52944  -3876006.51244  23953652.9924   23953655.6694
 -25840610.07244 -20135529.74144  20392311.2434   20392310.3764
  -9810838.90044  -7644802.92744  23176662.2724   23176661.8594
 -19325378.31844 -15058722.20044  20591394.0964   20591394.0074
 96  2 25  3 10 30.0000000  0  8G20G 4G 7G16G 6G 5G 9G24
 -18260836.87844 -14229217.92244  21727716.2964   21727715.9814
  -6104477.41844  -4756722.20144  22851512.7344   22851511.7094
        -0.39354                  24959369.4744
  -7081093.82844  -5517732.90044  22871741.1634   22871741.4424
  -5042965.60044  -3929581.84744  23940569.6964   23940571.0514
 -25868858.64644 -20157541.61944  20386936.0074   20386934.6294
  -9722148.19444  -7575693.29944  23193539.3324   23193539.4964
 -19290904.91644 -15031859.80844  20597954.1664   20597953.8194
 96  2 25  3 11  0.0000000  0  8G20G 4G 7G16G 6G 5G 9G24
 -18337525.45644 -14288975.25244  21713123.0444   21713122.6254
  -6013796.24244  -4686061.55344  22868768.8474   22868767.9614
     71912.36344                  24973054.8744
  -7167967.58544  -5585426.71944  22855209.6434   22855210.1154
  -5111708.92044  -3983148.01644  23927488.2384   23927489.7814
 -25896632.64144 -20179183.69344  20381650.7254   20381650.0534
  -9633310.88944  -7506469.44044  23210443.7854   23210443.8934
 -19255991.65744 -15004654.66744  20604597.9694   20604597.5424
 96  2 25  3 11 30.0000000  0  8G20G 4G 7G16G 6G 5G 9G24
 -18413914.50844 -14348499.18044  21698586.5544   21698586.0754
  -5922968.07544  -4615286.35844  22886053.2874   22886050.5084
    143824.81244                  24986738.3264
  -7254641.65344  -5652964.94344  22838715.9924   22838716.5904
  -5180444.56344  -4036708.22744  23914408.1694   23914408.5794
 -25923946.79144 -20200467.44644  20376452.9714   20376452.0124
  -9544356.40244  -7437154.27344  23227371.9344   23227369.9104
 -19220668.85644 -14977130.40644  20611319.7894   20611319.3284
 96  2 25  3 12  0.0000000  0  8G20G 4G 7G16G 6G 5G 9G24
 -18489980.52644 -14407771.38844  21684111.9494   21684111.6224
  -5831971.59044  -4544379.99144  22903368.8684   22903368.1274
    215763.48444                  25000428.7694
  -7341090.38144  -5720327.56344  22822265.3634   22822265.3554
  -5249146.04044  -4090241.83344  23901333.7234   23901332.7524
 -25950775.12344 -20221372.64444  20371347.4334   20371346.5874
  -9455261.88644  -7367729.97444  23244326.4904   23244326.4024
 -19184928.37844 -14949280.67844  20618120.8974   20618120.5054
 96  2 25  3 12 30.0000000  0  8G20G 4G 7G16G 6G 5G 9G24
 -18565723.87344 -14466792.16444  21669698.5814   21669698.7424
  -5740806.69044  -4473342.41444  22920716.9994   22920715.8624
    287749.05944                  25014126.9104
  -7427315.50544  -5787515.94444  22805857.8834   22805858.3034
  -5317805.87144  -4143742.95344  23888268.5334   23888271.7104
 -25977127.15944 -20241906.69544  20366332.9714   20366331.9684
  -9366019.43844  -7298190.41544  23261308.3624   23261308.6094
 -19148783.24544 -14921115.63644  20624998.9184   20624998.6684
 96  2 25  3 13  0.0000000  0  8G20G 4G 7G16G 6G 5G 9G24
 -18641139.11644 -14525557.27944  21655347.5164   21655347.1844
  -5649475.05644  -4402174.89144  22938097.1194   22938094.8764
    359790.65244                  25027835.6224
  -7513330.46744  -5854540.56944  22789488.9604   22789489.5234
  -5386410.77144  -4197201.27544  23875214.3754   23875214.8714
 -26003005.12044 -20262071.34344  20361408.6404   20361407.4604
  -9276627.30944  -7228534.23744  23278318.5224   23278319.5794
 -19112240.22044 -14892640.55144  20631952.9764   20631952.5104
 96  2 25  3 13 30.0000000  0  7G20G 4G16G 6G 5G 9G24
 -18716235.75044 -14584074.14444  21641057.0784   21641056.4094
  -5557989.68044  -4330887.60344  22955506.0744   22955504.6274
  -7599127.34544  -5921395.27144  22773162.8124   22773162.4734
  -5454980.41144  -4250632.12444  23862166.0274   23862167.1554
 -26028403.58044 -20281862.34944  20356575.4724   20356574.5674
  -9187104.09844  -7158775.90944  23295354.9994   23295354.0014
 -19075318.82944 -14863870.63144  20638978.8074   20638978.3524
 96  2 25  3 14  0.0000000  0  7G20G 4G16G 6G 5G 9G24
 -18791042.26744 -14642364.93344  21626822.0444   21626821.4264
  -5466407.26844  -4259524.66244  22972933.7914   22972932.7184
  -7684729.57244  -5988098.28544  22756873.2474   22756874.1704
  -5523557.71044  -4304068.91844  23849116.1124   23849116.0234
 -26053349.83644 -20301300.99144  20351828.3174   20351827.3244
  -9097486.04044  -7088943.66244  23312408.0124   23312408.1774
 -19038053.73344 -14834832.89544  20646070.2584   20646069.9084
 96  2 25  3 14 30.0000000  0  7G20G 4G16G 6G 5G 9G24
 -18865493.78844 -14700379.09044  21612654.2334   21612653.9404
  -5374671.22344  -4188042.04544  22990390.8044   22990389.9064
  -7770074.10244  -6054600.49844  22740632.3984   22740632.7394
  -5592082.41444  -4357464.72244  23836076.4024   23836077.2854
 -26077793.81244 -20320348.24644  20347176.9054   20347175.9404
  -9007721.90844  -7018997.59944  23329489.0844   23329488.8624
 -19000377.71344 -14805474.95544  20653239.7934   20653239.3144
 96  2 25  3 15  0.0000000  0  7G20G 4G16G 6G 5G 9G24
 -18939559.85844 -14758092.90044  21598559.8384   21598559.5264
  -5282742.43444  -4116409.21844  23007883.8984   23007882.9494
  -7855123.11444  -6120872.43744  22724448.0984   22724447.2054
  -5660516.99944  -4410790.35044  23823053.4994   23823054.5784
 -26101700.52144 -20338976.84944  20342627.5594   20342626.5544
  -8917781.66844  -6948914.32144  23346604.5134   23346605.9614
 -18962245.38944 -14775761.44844  20660496.1184   20660495.8054
 96  2 25  3 15 30.0000000  0  7G20G 4G16G 6G 5G 9G24
 -19013311.76344 -14815561.91444  21584524.8654   21584524.5834
  -5190682.81244  -4044674.46444  23025402.3724   23025401.4184
  -7939931.15544  -6186956.60144  22708309.9814   22708309.7094
  -5728933.12544  -4464101.59044  23810034.1724   23810035.7244
 -26125144.34244 -20357244.76444  20338166.1704   20338165.1144
  -8827722.72044  -6878738.54444  23363742.1504   23363741.8854
 -18923713.26644 -14745736.41744  20667828.6734   20667828.3094
 96  2 25  3 16  0.0000000  0  7G20G 4G16G 6G 5G 9G24
 -19086748.52944 -14872785.36844  21570550.4134   21570550.0374
  -5098491.14544  -3972836.78644  23042946.1014   23042944.5554
  -8024509.34244  -6252861.66144  22692215.9794   22692215.4024
  -5797326.51044  -4517395.08344  23797019.1424   23797018.1814
 -26148147.99844 -20375169.68744  20333788.8794   20333787.8654
  -8737552.36544  -6808475.94444  23380902.0564   23380900.7094
 -18884781.94644 -14715400.32044  20675236.9974   20675236.6584
 96  2 25  3 16 30.0000000  0  7G20G 4G16G 6G 5G 9G24
 -19159873.37344 -14929765.75844  21556635.6404   21556635.2124
  -5006155.57244  -3900886.99744  23060516.5934   23060515.7964
  -8108856.04944  -6318586.34344  22676164.9014   22676164.4284
  -5865685.05444  -4570661.42144  23784011.0734   23784011.0514
 -26170706.22444 -20392747.53044  20329496.2414   20329495.1744
  -8647274.29544  -6738129.41044  23398081.0314   23398079.4034
 -18845452.41844 -14684753.93244  20682721.0594   20682720.6404
 96  2 25  3 17  0.0000000  0  7G20G 4G16G 6G 5G 9G24
 -19232686.72544 -14986503.42044  21542779.6314   21542779.1354
  -4913690.27144  -3828836.12144  23078112.1344   23078110.7224
  -8192962.14844  -6384123.54944  22660159.4044   22660159.5194
  -5933999.73044  -4623893.61144  23771011.4344   23771012.4694
 -26192794.46144 -20409959.14344  20325292.9214   20325292.0334
  -8556900.60844  -6667708.37844  23415278.8724   23415279.3644
 -18805736.27044 -14653806.28044  20690278.8154   20690278.3694
 96  2 25  3 17 30.0000000  0  7G20G 4G16G 6G 5G 9G24
 -19305176.61844 -15042989.04244  21528985.2644   21528984.7934
  -4821119.96744  -3756703.41044  23095727.9554   23095725.7064
  -8276831.33544  -6449476.14544  22644200.1624   22644199.6724
  -6002281.54244  -4677100.16444  23758017.6704   23758017.1284
 -26214405.24144 -20426798.71444  20321180.5744   20321179.4034
  -8466442.75244  -6597221.75044  23432491.5104   23432491.4384
 -18765655.65944 -14622574.63044  20697905.8484   20697905.3184
 96  2 25  3 18  0.0000000  0  7G20G 4G16G 6G 5G 9G24
 -19377342.52544 -15099222.22544  21515252.4864   21515251.7894
  -4728452.66744  -3684495.13444  23113361.9344   23113360.3044
  -8360455.85844  -6514638.09444  22628286.8364   22628286.1644
  -6070531.68444  -4730282.01644  23745029.8984   23745030.3884
 -26235524.86444 -20443255.56444  20317161.5324   20317160.4284
  -8375918.05844  -6526683.03944  23449717.7424   23449717.3984
 -18725226.45044 -14591071.34444  20705599.5904   20705599.1024
 96  2 25  3 18 30.0000000  0  7G 4G20G16G 6G 5G 9G24
  -4635686.27144  -3612209.61544  23131014.8444   23131013.1734
 -19449181.11944 -15155200.35344  21501581.8714   21501582.1494
  -8443824.81344  -6579600.90644  22612422.1554   22612422.3984
  -6138754.29444  -4783442.43244  23732047.7314   23732047.7554
 -26256136.91144 -20459316.90144  20313239.2754   20313238.3254
  -8285327.93144  -6456093.35144  23466957.3774   23466957.5494
 -18684449.22244 -14559296.88244  20713358.9484   20713358.8314
 96  2 25  3 19  0.0000000  0  7G20G 4G16G 6G 5G 9G24
 -19520658.26444 -15210896.82244  21487980.6634   21487980.1954
  -4542790.49544  -3539823.28744  23148692.2154   23148690.9304
  -8526918.17644  -6644348.95444  22596609.9524   22596609.7484
  -6206926.93544  -4836563.96244  23719075.0164   23719074.2894
 -26276231.15744 -20474974.75844  20309415.5424   20309414.3804
  -8194646.34644  -6385432.40044  23484213.8254   23484214.6104
 -18643311.97444 -14527241.88044  20721187.0694   20721186.5964
 96  2 25  3 19 30.0000000  0  7G20G 4G16G 6G 5G 9G24
 -19591780.63244 -15266316.85144  21474446.5344   21474445.8954
  -4449753.62244  -3467327.03044  23166396.5574   23166395.3924
  -8609747.18144  -6708891.03244  22580847.6544   22580847.8724
  -6275063.80244  -4889657.62144  23706108.7444   23706108.9614
 -26295834.24244 -20490249.89344  20305685.1064   20305684.3034
  -8103870.28544  -6314697.84444  23501487.8184   23501487.9054
 -18601813.42444 -14494905.34244  20729083.6534   20729083.2194
 96  2 25  3 20  0.0000000  0  7G 4G20G16G 6G 5G 9G24
  -4356572.39444  -3394718.28344  23184128.6584   23184126.8574
 -19662553.76844 -15321464.74644  21460978.6664   21460978.0504
  -8692314.11244  -6773228.88344  22565135.8714   22565136.1274
  -6343164.33744  -4942722.89844  23693150.4474   23693149.4914
 -26314961.67844 -20505154.39044  20302045.4224   20302044.3884
  -8013004.50644  -6243893.34344  23518779.0314   23518778.5464
 -18559943.22344 -14462279.20844  20737051.6274   20737051.1804
 96  2 25  3 20 30.0000000  0  7G20G 4G16G 6G 5G 9G24
 -19732978.07844 -15376340.82144  21447577.5584   21447577.1814
  -4263265.22344  -3322011.39344  23201884.3124   23201882.1914
  -8774634.64244  -6837374.74044  22549471.2994   22549471.2544
  -6411233.73844  -4995763.94144  23680196.5114   23680197.5554
 -26333618.52544 -20519692.19544  20298495.1004   20298493.9354
  -7922045.53844  -6173016.23444  23536087.4294   23536086.9914
 -18517703.21744 -14429364.91644  20745089.5584   20745089.1464
 96  2 25  3 21  0.0000000  0  7G20G 4G16G 6G 5G 9G24
 -19803046.25244 -15430939.39444  21434243.8814   21434243.1864
  -4169841.81544  -3249213.92144  23219662.4534   23219661.0464
  -8856700.58344  -6901322.21044  22533854.5514   22533854.3234
  -6479274.25944  -5048782.47644  23667248.7664   23667248.2874
 -26351798.92644 -20533858.74244  20295035.4424   20295034.3324
  -7830981.51844  -6102057.25644  23553417.1574   23553416.5344
 -18475082.00344 -14396153.57844  20753200.0364   20753199.6404
 96  2 25  3 21 30.0000000  0  7G20G 4G16G 6G 5G 9G24
 -19872767.16544 -15485267.37844  21420975.8414   21420975.3574
  -4076330.32644  -3176347.84944  23237456.4364   23237456.0104
  -8938511.69944  -6965071.10944  22518285.8634   22518286.7054
  -6547308.05944  -5101795.77744  23654302.8014   23654302.2054
 -26369500.15844 -20547651.91444  20291666.8524   20291665.8744
  -7739824.84544  -6031026.11244  23570762.4164   23570763.7884
 -18432069.29844 -14362637.18244  20761384.8554   20761384.6384
 96  2 25  3 22  0.0000000  0  7G20G 4G16G 6G 5G 9G24
 -19942144.33344 -15539327.50144  21407774.3414   21407773.8644
  -3982739.66044  -3103420.04544  23255266.6094   23255263.5374
  -9020061.08244  -7028616.06944  22502767.9374   22502768.5504
  -6615349.46044  -5154815.00744  23641355.1264   23641353.7524
 -26386708.05944 -20561060.67344  20288392.3184   20288391.3624
  -7648579.60544  -5959925.94444  23588125.6444   23588127.1504
 -18388668.30444 -14328818.22644  20769644.0824   20769644.0284
 96  2 25  3 22 30.0000000  0  7G20G 4G16G 6G 5G 9G24
 -20011168.89044 -15593112.85444  21394639.9064   21394639.3404
  -3889060.23744  -3030423.08544  23273092.6004   23273090.3024
  -9101336.64044  -7091947.66144  22487301.6394   22487302.0804
  -6683397.46044  -5207839.39144  23628404.7984   23628403.6994
 -26403412.21844 -20574076.90444  20285213.6614   20285212.5754
  -7557240.92744  -5888752.98244  23605508.2744   23605507.9894
 -18344891.73344 -14294706.60644  20777974.6394   20777974.1054
 96  2 25  3 23  0.0000000  0  7G20G 4G16G 6G 5G 9G24
 -20079828.31444 -15646613.69244  21381574.1084   21381573.7714
  -3795275.90644  -2957344.38444  23290939.0804   23290937.0784
  -9182317.89144  -7155049.92544  22471890.9894   22471891.7434
  -6751436.96944  -5260857.14344  23615457.6644   23615457.3554
 -26419613.34844 -20586701.16244  20282130.7564   20282129.8454
  -7465807.62344  -5817506.24844  23622907.3914   23622906.9214
 -18300734.90744 -14260298.68844  20786377.3384   20786377.1314
 96  2 25  3 23 30.0000000  0  7G20G 4G16G 6G 5G 9G24
 -20148109.49444 -15699819.79644  21368580.3004   21368580.0524
  -3701372.03244  -2884172.52744  23308808.8644   23308807.6744
  -9262986.43044  -7217908.51944  22456540.8224   22456540.3694
  -6819451.64144  -5313855.12544  23602514.7084   23602514.2974
 -26435309.37644 -20598931.83944  20279143.9454   20279142.8834
  -7374286.74844  -5746191.29644  23640323.3554   23640323.2374
 -18256203.24944 -14225598.69344  20794851.3394   20794851.2274
 96  2 25  3 24  0.0000000  0  7G20G 4G16G 6G 5G 9G24
 -20215995.40644 -15752717.90844  21355662.2844   21355661.8244
  -3607340.42344  -2810901.16244  23326702.4604   23326701.4614
  -9343329.29244  -7280513.32744  22441252.3994   22441252.1624
  -6887411.09844  -5366811.02044  23589582.2044   23589583.1964
 -26450489.83144 -20610760.76844  20276255.0664   20276254.1214
  -7282679.37644  -5674808.96544  23657755.0054   23657753.4094
 -18211315.08044 -14190620.89544  20803393.4084   20803393.0074
 96  2 25  3 24 30.0000000  0  7G 4G20G16G 6G 5G 9G24
  -3513217.08844  -2737558.29644  23344613.2084   23344612.0454
 -20283506.83444 -15805324.20744  21342815.3474   21342814.9544
  -9423367.98244  -7342881.12544  22426021.0914   22426021.4404
  -6955308.61244  -5419718.06244  23576661.5554   23576662.9334
 -26465178.79344 -20622206.71644  20273459.8864   20273458.8054
  -7191021.03244  -5603386.87044  23675197.7174   23675196.6754
 -18166106.57044 -14155393.48044  20811996.1374   20811995.7044
 96  2 25  3 25  0.0000000  0  7G20G 4G16G 6G 5G 9G24
 -20350663.62444 -15857654.16044  21330035.7054   21330035.2644
  -3419023.12244  -2664160.39544  23362537.9724   23362536.0054
  -9503114.85644  -7405021.53644  22410845.9224   22410845.7794
  -7023156.69044  -5472586.66644  23563750.9184   23563750.7224
 -26479377.62444 -20633270.74344  20270758.1084   20270757.0504
  -7099344.68944  -5531950.78244  23692641.9504   23692641.5394
 -18120582.56144 -14119920.22644  20820659.3024   20820658.9104
 96  2 25  3 25 30.0000000  0  7G20G 4G16G 6G 5G 9G24
 -20417455.30744 -15909699.62644  21317325.5324   21317324.9404
  -3324758.20944  -2590707.22844  23380476.4004   23380475.5224
  -9582574.92144  -7466938.45544  22395725.2164   22395725.6064
  -7090956.67944  -5525417.78244  23550848.7654   23550850.0854
 -26493068.74544 -20643939.15244  20268152.5254   20268151.3484
  -7007648.44444  -5460499.19244  23710091.4924   23710091.9184
 -18074741.53544 -14084199.94244  20829382.4484   20829382.0954
 96  2 25  3 26  0.0000000  0  7G20G 4G16G 6G 5G 9G24
 -20483867.22244 -15961449.17144  21304687.5634   21304687.1624
  -3230396.50944  -2517178.65844  23398431.7944   23398431.2684
  -9661739.86744  -7528625.41044  22380660.5524   22380660.3614
  -7158677.61444  -5578187.29544  23537962.0074   23537961.8174
 -26506219.68944 -20654186.64944  20265650.1244   20265649.1264
  -6915897.96344  -5389005.32644  23727551.6634   23727551.0894
 -18028560.96744 -14048215.08144  20838170.4124   20838170.0634
 96  2 25  3 26 30.0000000  0  7G20G 4G16G 6G 5G 9G24
 -20549898.23044 -16012901.89444  21292122.5004   21292121.9904
  -3135926.19844  -2443565.43144  23416409.7754   23416407.3744
  -9740594.35344  -7590070.43844  22365654.9024   22365654.9244
  -7226331.10144  -5630904.27144  23525087.9044   23525087.2864
 -26518835.09044 -20664016.83344  20263249.4204   20263248.3534
  -6824088.68744  -5317465.65444  23745021.7764   23745022.0384
 -17982015.40344 -14011945.80444  20847027.7634   20847027.2904
 96  2 25  3 27  0.0000000  0  7G20G 4G16G 6G 5G 9G24
 -20615560.33244 -16064067.16244  21279627.7374   21279627.1214
  -3041370.09744  -2369885.35744  23434403.0984   23434401.9614
  -9819160.57344  -7651290.85644  22350704.4864   22350704.4924
  -7293964.61744  -5683605.67944  23512217.8604   23512217.4374
 -26530951.88744 -20673458.49844  20260943.7924   20260942.6794
  -6732240.58444  -5245895.70744  23762500.7824   23762500.5974
 -17935122.27044 -13975405.70144  20855951.0304   20855951.0084
 96  2 25  3 27 30.0000000  0  7G20G 4G16G 6G 5G 9G24
 -20680842.49444 -16114936.37844  21267204.8764   21267204.2744
  -2946725.56644  -2296136.37044  23452413.1744   23452413.0594
  -9897429.75244  -7712279.81244  22335810.3334   22335809.9664
  -7361577.89744  -5736291.33044  23499350.7364   23499350.2714
 -26542584.02844 -20682522.50544  20258730.2524   20258729.2054
  -6640336.16244  -5174281.88844  23779988.8414   23779986.5234
 -17887876.00444 -13938590.42944  20864941.9094   20864941.7294
 96  2 25  3 28  0.0000000  0  7G20G 4G16G 6G 5G 9G24
 -20745715.33744 -16165486.64044  21254859.9744   21254859.5494
  -2851967.87844  -2222299.22744  23470445.2674   23470445.2874
  -9975357.86344  -7773003.00444  22320980.7744   22320980.9694
  -7429143.10644  -5788939.50544  23486493.6704   23486493.6224
 -26553707.56044 -20691190.19844  20256613.2864   20256612.3334
  -6548353.36044  -5102606.99344  23797493.6234   23797492.9834
 -17840236.37144 -13901468.62944  20874007.2554   20874006.8484
 96  2 25  3 28 30.0000000  0  7G20G16G 4G 6G 5G 9G24
 -20810208.24344 -16215740.84744  21242587.4384   21242586.7844
 -10052980.88044  -7833488.45144  22306209.8214   22306209.5544
  -2757153.06144  -2148417.56144  23488487.9384   23488486.0884
  -7496721.86444  -5841598.25344  23473634.4264   23473633.1574
 -26564370.65244 -20699499.10544  20254584.3524   20254583.1254
  -6456344.68644  -5030911.92444  23815002.2534   23815002.0044
 -17792246.17344 -13864073.67044  20883139.3644   20883138.9934
 96  2 25  3 29  0.0000000  0  7G20G16G 4G 6G 5G 9G24
 -20874350.83644 -16265722.08144  21230381.1574   21230380.5694
 -10130338.52744  -7893767.12544  22291489.1964   22291489.6974
  -2662310.01644  -2074513.90144  23506535.8974   23506535.2914
  -7564340.76344  -5894288.30344  23460767.3954   23460767.3214
 -26574584.44444 -20707457.90844  20252640.6914   20252639.7104
  -6364329.25744  -4959211.60744  23832510.7144   23832511.1894
 -17743947.06744 -13826437.99844  20892330.5954   20892330.1844
 96  2 25  3 29 30.0000000  0  7G20G 4G16G 6G 5G 9G24
 -20938103.65244 -16315399.59544  21218249.9364   21218249.3584
  -2567399.87044  -2000557.91644  23524596.2314   23524595.4154
 -10207382.64144  -7953801.48944  22276827.7694   22276827.8354
  -7631957.13444  -5946976.33544  23447900.1004   23447900.1904
 -26584293.05844 -20715023.06344  20250793.1964   20250792.2814
  -6272276.79444  -4887482.42844  23850028.8384   23850028.0714
 -17695311.96344 -13788540.50944  20901585.6114   20901585.2664
 96  2 25  3 30  0.0000000  0  7G20G 4G16G 6G 5G 9G24
 -21001448.13944 -16364758.93444  21206195.6074   21206195.1804
  -2472412.61644  -1926541.89944  23542671.7684   23542671.3984
 -10284091.36544  -8013574.50544  22262230.5544   22262230.9644
  -7699544.10344  -5999641.46244  23435039.0424   23435037.9394
 -26593467.39644 -20722171.90344  20249047.4224   20249046.3904
  -6180178.52044  -4815717.54244  23867554.3824   23867554.1944
 -17646342.06844 -13750382.14944  20910904.2374   20910903.8514
 96  2 25  3 30 30.0000000  0  7G20G 4G16G 6G 5G 9G24
 -21064393.01044 -16413806.88344  21194217.3824   21194216.9234
  -2377356.56744  -1852472.25644  23560760.2304   23560759.2354
 -10360450.34944  -8073075.00544  22247700.5234   22247700.2954
  -7767105.41644  -6052286.61744  23422182.1214   23422181.1944
 -26602109.95844 -20728906.36844  20247402.7904   20247401.9874
  -6088034.69344  -4743917.20144  23885088.9794   23885089.3874
 -17597064.46044 -13711984.00844  20920281.5684   20920281.1654
 96  2 25  3 31  0.0000000  0  7G20G 4G16G 6G 5G 9G24
 -21126932.85644 -16462539.23144  21182316.1754   21182315.7984
  -2282232.43244  -1778349.52944  23578862.0854   23578860.5294
 -10436441.05844  -8132288.53344  22233239.6564   22233239.3924
  -7834624.89144  -6104899.15744  23409333.8244   23409332.7914
 -26610212.64444 -20735220.15444  20245860.9044   20245859.8794
  -5995858.52944  -4672091.63944  23902629.3024   23902629.5754
 -17547475.25144 -13673343.06244  20929717.6674   20929717.4944
 96  2 25  3 31 30.0000000  0  7G20G16G 4G 6G 5G 9G24
 -21189056.14544 -16510946.98044  21170495.1074   21170494.5224
 -10512054.46644  -8191208.06344  22218851.0684   22218851.1054
  -2187045.99944  -1704178.28544  23596975.3644   23596974.1914
  -7902094.60744  -6157472.92944  23396494.4524   23396493.8714
 -26617782.86044 -20741119.02644  20244420.3134   20244419.3874
  -5903651.06744  -4600241.66444  23920175.5174   23920175.7914
 -17497561.61844 -13634449.32344  20939216.0654   20939215.7334
 96  2 25  3 32  0.0000000  0  7G20G 4G16G 6G 5G 9G24
 -21250768.51344 -16559034.53744  21158751.2374   21158750.7134
  -2091801.47644  -1629961.77144  23615099.4594   23615099.6944
 -10587309.13944  -8249848.05444  22204530.0344   22204530.2174
  -7969517.29544  -6210010.07244  23383663.9514   23383663.9114
 -26624827.32444 -20746608.22344  20243079.8604   20243078.6264
  -5811414.15744  -4528368.80244  23937727.8444   23937729.0444
 -17447329.90944 -13595307.72844  20948775.1404   20948774.5554
 96  2 25  3 32 30.0000000  0  7G20G16G 4G 6G 5G 9G24
 -21312075.55644 -16606806.25444  21147084.7124   21147084.6374
 -10662226.06644  -8308224.86944  22190274.0024   22190273.6454
  -1996503.62444  -1555703.72344  23633235.1264   23633233.6584
  -8036903.16144  -6262518.49644  23370840.4004   23370840.6684
 -26631352.81844 -20751693.02644  20241838.1904   20241837.1774
  -5719171.71144  -4456491.57244  23955280.8884   23955280.7684
 -17396782.25644 -13555919.94444  20958394.0914   20958393.5614
 96  2 25  3 33  0.0000000  0  7G20G16G 4G 6G 5G 9G24
 -21372949.91744 -16654240.81644  21135501.1284   21135500.7944
 -10736811.91144  -8366343.69144  22176080.7224   22176081.0684
  -1901122.30644  -1481380.61844  23651384.7724   23651382.7004
  -8104236.86244  -6314986.29344  23358027.8424   23358027.4174
 -26637348.43744 -20756364.94244  20240697.1114   20240696.0464
  -5626911.36844  -4384600.42644  23972837.4164   23972838.4664
 -17345899.38344 -13516270.95044  20968076.3374   20968076.0524
 96  2 25  3 33 30.0000000  0  7G20G 4G16G 6G 5G 9G24
 -21433398.59344 -16701343.68044  21123997.6164   21123997.3444
  -1805659.45844  -1406993.97544  23669550.0744   23669549.8724
 -10811083.35344  -8424217.52944  22161947.5454   22161947.6324
  -8171529.94844  -6367422.42944  23345222.7564   23345222.7064
 -26642818.67344 -20760627.46744  20239656.2374   20239655.1814
  -5534634.83144  -4312696.65044  23990397.6764   23990398.3234
 -17294709.09144 -13476382.41244  20977817.5884   20977817.0604
 96  2 25  3 34  0.0000000  0  7G 4G20G16G 6G 5G 9G24
  -1710113.39444  -1332542.48844  23687733.1794   23687732.6044
 -21493412.88744 -16748108.06444  21112577.4114   21112577.1184
 -10885027.81744  -8481836.57644  22147876.2324   22147875.8244
  -8238779.60144  -6419824.73044  23332425.2874   23332425.5584
 -26647747.50744 -20764468.12244  20238718.4024   20238717.3914
  -5442360.30944  -4240794.46344  24007957.5474   24007956.0514
 -17243222.53444 -13436263.01344  20987615.2564   20987614.7594
 96  2 25  3 34 30.0000000  0  7G 4G20G16G 6G 5G 9G24
  -1614489.98244  -1258030.71944  23705930.2544   23705929.3354
 -21552991.15844 -16794532.68744  21101240.1034   21101239.7724
 -10958632.70244  -8539191.02344  22133869.7964   22133869.8004
  -8305999.46144  -6472203.82044  23319633.0524   23319633.4164
 -26652142.32644 -20767892.65844  20237882.0874   20237881.0684
  -5350091.81544  -4168896.92544  24025514.5594   24025515.3234
 -17191426.29844 -13395902.31244  20997471.8294   20997471.3824
 96  2 25  3 35  0.0000000  0  7G 4G20G16G 6G 5G 9G24
  -1518796.24744  -1183464.18644  23724138.8474   23724137.0844
 -21612134.98044 -16840618.78344  21089985.8554   21089985.3334
 -11031885.44644  -8596271.06444  22119930.5164   22119930.1394
  -8373198.49344  -6524566.68144  23306845.5474   23306845.0904
 -26655993.11344 -20770893.27544  20237149.3274   20237148.2654
  -5257814.52144  -4096992.58544  24043074.3194   24043072.3444
 -17139314.45944 -13355295.69044  21007388.2704   21007387.7014
 96  2 25  3 35 30.0000000  0  7G 4G20G16G 6G 5G 9G24
  -1423066.41844  -1108869.52044  23742355.7644   23742354.0484
 -21670868.85844 -16886385.44344  21078809.0354   21078808.6394
 -11104791.34644  -8653080.83944  22106056.7754   22106057.3654
  -8440388.03044  -6576922.12244  23294059.6934   23294059.9934
 -26659309.80444 -20773477.71444  20236517.9704   20236516.9954
  -5165554.64744  -4025101.79544  24060631.6364   24060631.5674
 -17086892.40744 -13314447.33444  21017363.9214   21017362.9044
 96  2 25  3 36  0.0000000  0  7G 4G20G16G 6G 5G 9G24
  -1327298.07744  -1034244.83344  23760580.8594   23760579.3274
 -21729185.69244 -16931827.12444  21067711.5014   21067711.3564
 -11177340.80644  -8709612.87744  22092250.7944   22092250.3274
  -8507556.62344  -6629261.25044  23281277.7484   23281277.7484
 -26662091.09244 -20775644.95444  20235988.7344   20235987.6494
  -5073296.58144  -3953212.40244  24078187.7824   24078186.2484
 -17034130.83044 -13273334.41644  21027403.9484   21027403.3954
 96  2 25  3 36 30.0000000  0  7G 4G20G16G 6G 5G 9G24
  -1231498.86144   -959596.08544  23778809.8384   23778808.0144
 -21787101.39044 -16976956.23844  21056690.5844   21056690.0274
 -11249529.37644  -8765863.69644  22078513.8184   22078514.2024
  -8574703.02444  -6681583.10544  23268500.4814   23268501.0784
 -26664352.68244 -20777407.23844  20235558.5244   20235557.4204
  -4981027.97144  -3881314.79244  24095745.0024   24095743.5654
 -16981040.05144 -13231964.97944  21037506.7774   21037506.3464
 96  2 25  3 37  0.0000000  0  7G 4G20G16G 6G 5G 9G24
  -1135678.68244   -884931.01444  23797043.7274   23797042.2334
 -21844617.50744 -17021773.99844  21045745.7404   21045745.2404
 -11321354.01444  -8821830.93044  22064845.8804   22064846.3894
  -8641807.60944  -6733872.39444  23255731.0374   23255731.3694
 -26666102.69944 -20778770.89344  20235225.4704   20235224.3614
  -4888756.46344  -3809414.94844  24113304.7844   24113303.7124
 -16927646.56444 -13190359.66944  21047667.4054   21047666.8814
 96  2 25  3 37 30.0000000  0  7G 4G20G16G 6G 5G 9G24
  -1039785.02844   -810208.68644  23815292.0664   23815291.4054
 -21901667.44944 -17066228.49444  21034889.5174   21034889.2234
 -11392757.64644  -8877470.11344  22051258.5454   22051258.4834
  -8708811.90844  -6786083.51944  23242980.1934   23242980.7414
 -26667302.03344 -20779705.44344  20234997.3144   20234996.4694
  -4796434.78844  -3737476.02144  24130872.2714   24130871.9704
 -16873915.35144 -13148491.18644  21057891.8694   21057891.2424
 96  2 25  3 38  0.0000000  0  7G 4G20G16G 6G 5G 9G24
   -943851.35044   -735455.16944  23833547.9734   23833545.7844
 -21958276.70644 -17110339.60244  21024117.0754   21024116.3844
 -11463758.61044  -8932795.52844  22037747.1004   22037747.3834
  -8775761.16944  -6838251.73744  23230240.4574   23230240.5974
 -26667974.63844 -20780229.55444  20234869.2104   20234868.2064
  -4704096.93844  -3665524.46844  24148443.4274   24148443.6654
 -16819889.58644 -13106393.18744  21068172.5324   21068172.2624
 96  2 25  3 38 30.0000000  0  7G 4G20G16G 6G 5G 9G24
   -847888.89944   -660679.25644  23851809.2544   23851807.7304
 -22014448.81044 -17154110.07244  21013428.0334   21013427.4754
 -11534352.47844  -8987803.71744  22024313.9324   22024314.4104
  -8842674.85644  -6890392.24044  23217507.4774   23217506.4424
 -26668127.65544 -20780348.79444  20234840.1164   20234839.3254
  -4611770.40444  -3593581.74944  24166013.2024   24166014.4054
 -16765592.80544 -13064084.01344  21078505.1434   21078504.7934
 96  2 25  3 39  0.0000000  0  7G 4G20G16G 6G 5G 9G24
   -751913.45844   -585893.19844  23870072.2664   23870069.4234
 -22070186.66044 -17197542.16244  21002821.4944   21002821.0674
 -11604569.77944  -9042518.48944  22010951.7074   22010951.7824
  -8909580.73344  -6942526.67544  23204775.7014   23204775.5504
 -26667770.85844 -20780070.77544  20234907.9424   20234906.9964
  -4519488.06744  -3521673.44144  24183573.1834   24183574.6994
 -16711031.12844 -13021568.42144  21088887.7744   21088887.4074
 96  2 25  3 39 30.0000000  0  7G 4G20G16G 6G 5G 9G24
   -655913.85344   -511088.32544  23888340.2914   23888339.1474
 -22125490.37144 -17240635.96544  20992297.1294   20992297.0304
 -11674411.89044  -9096940.90244  21997661.3154   21997661.4494
  -8976489.66344  -6994663.49544  23192044.1404   23192043.6274
 -26666884.74544 -20779380.30244  20235076.6874   20235075.8374
  -4427248.23544  -3449798.27244  24201125.0904   24201124.5554
 -16656192.77944 -12978837.24044  21099323.2954   21099322.8394
 96  2 25  3 40  0.0000000  0  7G16G 4G 6G20G 5G 9G24
 -11743872.37544  -9151065.94444  21984443.3754   21984443.4244
   -559875.82844   -436253.46944  23906615.6734   23906613.7484
  -9043383.32244  -7046788.41044  23179314.5214   23179313.8914
 -22180353.92744 -17283386.78544  20981857.0294   20981856.5734
 -26665458.94744 -20778269.29744  20235347.8784   20235346.8434
  -4335048.63144  -3377954.47044  24218671.1124   24218670.6424
 -16601063.38544 -12935879.27244  21109813.9894   21109813.5764
 96  2 25  3 40 30.0000000  0  7G16G 4G20G 6G 5G 9G24
 -11812966.67244  -9204905.64744  21971295.4634   21971295.8294
   -463787.04144   -361379.13944  23924900.6174   23924899.0934
 -22234762.93444 -17325783.41644  20971503.5444   20971503.0714
  -9110236.92544  -7098882.11344  23166592.7104   23166591.5834
 -26663493.36544 -20776737.68244  20235722.0074   20235721.2564
  -4242876.75644  -3306132.19344  24236210.6084   24236210.9914
 -16545634.23344 -12892687.72544  21120361.6914   21120361.3564
 96  2 25  3 41  0.0000000  0  7G16G 4G 6G20G 5G 9G24
 -11881709.93344  -9258471.80944  21958213.5694   21958213.6304
   -367648.10944   -286465.69544  23943195.5534   23943192.4824
  -9177048.24244  -7150942.85344  23153878.6684   23153877.4674
 -22288728.87744 -17367834.80244  20961234.2794   20961233.7944
 -26660990.17044 -20774787.14344  20236198.2634   20236197.2414
  -4150727.48444  -3234327.60844  24253745.9124   24253744.5684
 -16489907.90544 -12849264.61444  21130966.2644   21130965.8434
 96  2 25  3 41 30.0000000  0  7G 4G16G 6G20G 5G 9G24
   -271460.90044   -211514.57944  23961499.5274   23961495.7204
 -11950090.03444  -9311754.99444  21945201.2584   21945200.9614
  -9243814.27844  -7202968.31144  23141173.3494   23141172.7134
 -22342249.22844 -17409538.97444  20951049.5554   20951049.1184
 -26657958.05244 -20772424.46044  20236775.4264   20236774.5054
  -4058603.27544  -3162542.55244  24271277.1274   24271277.8664
 -16433895.97844 -12805618.95644  21141624.8654   21141624.2914
 96  2 25  3 42  0.0000000  0  7G 4G16G 6G20G 5G 9G24
   -175220.46544   -136522.05944  23979813.6294   23979812.3264
 -12018087.68444  -9364740.16644  21932261.8664   21932262.3254
  -9310527.14044  -7254952.34244  23128478.6294   23128478.5064
 -22395309.63244 -17450884.74344  20940952.5804   20940952.1504
 -26654394.34244 -20769647.54744  20237453.5054   20237452.4524
  -3966497.06444  -3090771.50544  24288804.2754   24288802.7994
 -16377584.74044 -12761740.06544  21152340.4604   21152339.8484
 96  2 25  3 42 30.0000000  0  7G 4G16G 6G20G 5G 9G24
    -78946.22244    -61503.15044  23998133.6974   23998130.1314
 -12085691.30544  -9417418.29644  21919397.2854   21919397.4364
  -9377212.09444  -7306914.62244  23115788.9794   23115788.5144
 -22447922.08544 -17491881.46144  20930940.7934   20930940.2424
 -26650305.07044 -20766461.10744  20238231.6524   20238230.8064
  -3874418.42344  -3019021.88744  24306326.3884   24306325.8044
 -16320985.42244 -12717636.70344  21163111.1664   21163110.6564
 96  2 25  3 43  0.0000000  0  7G 4G16G 6G20G 5G 9G24
     17351.05944     13533.67944  24016458.2554   24016456.4954
 -12152878.94244  -9469772.29144  21906611.9124   21906612.2124
  -9443886.04944  -7358868.33644  23103101.3124   23103100.6774
 -22500091.55244 -17532532.98944  20921013.2634   20921012.7744
 -26645698.19544 -20762871.34144  20239108.3624   20239107.2074
  -3782391.22544  -2947312.40444  24323838.7424   24323839.3564
 -16264117.26144 -12673323.84944  21173932.9384   21173932.3244
 96  2 25  3 43 30.0000000  0  7G 4G16G 6G20G 5G 9G24
    113671.02144     88588.18144  24034787.5134   24034785.5744
 -12219630.67944  -9521786.63244  21893909.4494   21893909.7994
  -9510543.56344  -7410809.24844  23090416.1454   23090416.4164
 -22551789.71744 -17572817.27244  20911175.4754   20911174.9464
 -26640558.08344 -20758866.06644  20240086.5134   20240085.7574
  -3690427.33944  -2875652.27444  24341338.8764   24341340.0914
 -16206974.73744 -12628797.20044  21184806.7924   21184806.2054
 96  2 25  3 44  0.0000000  0  7G 4G16G 6G20G 5G 9G24
    210007.18744    163655.31344  24053118.5834   24053113.7314
 -12285955.00744  -9573467.90344  21881288.1264   21881288.4364
  -9577185.37744  -7462737.92444  23077734.0984   23077733.8014
 -22603020.81944 -17612737.60544  20901426.3214   20901426.0284
 -26634872.56544 -20754435.79944  20241168.3334   20241167.3634
  -3598532.91644  -2804046.27944  24358825.9794   24358828.2294
 -16149566.07044 -12584063.17744  21195731.0734   21195730.6694
 96  2 25  3 44 30.0000000  0  7G 4G16G 6G20G 5G 9G24
    306352.14344    238729.28044  24071453.1054   24071450.7374
 -12351856.64344  -9624819.81644  21868747.6554   21868747.8814
  -9643811.91144  -7514654.67244  23065055.9634   23065055.8314
 -22653773.62544 -17652285.24744  20891768.2444   20891767.9234
 -26628640.20644 -20749579.42244  20242354.5784   20242353.6194
  -3506720.55344  -2732504.17444  24376296.5414   24376294.9944
 -16091902.70844 -12539130.68944  21206704.2414   21206703.7164
 96  2 25  3 45  0.0000000  0  7G 4G16G 6G20G 5G 9G24
    402720.86544    313821.81144  24089790.9544   24089788.0044
 -12417341.75244  -9675847.16444  21856286.5314   21856286.3374
  -9710402.83344  -7566543.67644  23052384.0724   23052383.0964
 -22704027.71844 -17691444.29044  20882205.8354   20882204.9964
 -26621844.44544 -20744284.03044  20243647.4444   20243646.6024
  -3414984.99544  -2661021.95544  24393752.9854   24393752.2884
 -16033981.78644 -12493997.50444  21217725.9714   21217725.5494
 96  2 25  3 45 30.0000000  0  7G 4G16G20G 6G 5G 9G24
    499117.41244    388936.01944  24108134.9984   24108131.8474
 -12482420.70744  -9726558.02744  21843902.0834   21843902.2974
 -22753781.04244 -17730213.10744  20872737.5744   20872737.1894
  -9776953.57544  -7618401.37144  23039719.7134   23039719.3834
 -26614475.46444 -20738541.97144  20245049.8494   20245048.8854
  -3323306.38844  -2589584.08944  24411199.7664   24411199.8284
 -15975795.86944 -12448657.82144  21228798.6674   21228797.8884
 96  2 25  3 46  0.0000000  0  7G 4G16G20G 6G 5G 9G24
    595546.26944    464075.38644  24126484.9654   24126483.0784
 -12547090.49244  -9776950.05044  21831596.0954   21831596.4014
 -22803060.02744 -17768612.31244  20863360.2764   20863359.9654
  -9843458.99844  -7670223.76444  23027064.0174   23027063.2664
 -26606540.96844 -20732359.25344  20246559.8574   20246558.6894
  -3231656.78244  -2518168.83544  24428639.4864   24428639.6694
 -15917345.17244 -12403111.81944  21239921.3994   21239920.8614
 96  2 25  3 46 30.0000000  0  7G 4G16G20G 6G 5G 9G24
    692002.22044    539235.85444  24144840.2074   24144837.4134
 -12611342.23444  -9827016.33344  21819369.3994   21819369.0364
 -22851871.72944 -17806647.40244  20854071.3784   20854071.0274
  -9909916.92444  -7722009.13444  23014417.7894   23014416.9894
 -26598051.50444 -20725744.09144  20248175.2714   20248174.2984
  -3140022.85144  -2446765.79044  24446076.7614   24446077.1374
 -15858617.61444 -12357350.08944  21251097.1584   21251096.6834
 96  2 25  3 47  0.0000000  0  7G 4G20G16G 6G 5G 9G24
    788472.75344    614407.71844  24163198.1974   24163196.7714
 -22900233.90544 -17844332.21244  20844868.5404   20844868.0614
 -12675174.47144  -9876755.72544  21807222.8954   21807222.5324
  -9976329.67444  -7773759.29544  23001780.0454   23001779.2174
 -26589016.91744 -20718704.16244  20249894.4514   20249893.5074
  -3048390.74244  -2375364.18544  24463513.8154   24463514.0074
 -15799609.08844 -12311369.41544  21262326.0144   21262325.4944
 96  2 25  3 47 30.0000000  0  7G 4G16G20G 6G 5G 9G24
    884935.98144    689573.86744  24181554.6844   24181553.7064
 -12738585.40644  -9926166.83344  21795155.8014   21795155.9444
 -22948168.55844 -17881683.89344  20835746.9004   20835746.4464
 -10042702.79644  -7825478.58544  22989150.2434   22989149.2104
 -26579459.21744 -20711256.60844  20251713.2464   20251712.2224
  -2956766.75044  -2303968.90144  24480948.5454   24480949.5964
 -15740324.23944 -12265173.42944  21273607.3074   21273606.9464
 96  2 25  3 48  0.0000000  0  7G 4G16G20G 6G 5G 9G24
    981374.53944    764720.78944  24199906.2164   24199906.1504
 -12801564.27244  -9975241.25944  21783171.3364   21783171.4444
 -22995677.67344 -17918703.98544  20826706.6284   20826706.1794
 -10109043.35444  -7877172.49444  22976525.5684   22976525.0324
 -26569403.96244 -20703421.35344  20253626.7234   20253625.8974
  -2865180.13144  -2232602.69644  24498378.3534   24498376.8334
 -15680777.55544 -12218773.41344  21284938.3484   21284938.0134
 96  2 25  3 48 30.0000000  0  7G 4G20G16G 6G 5G 9G24
   1077783.89944    839844.96044  24218251.4594   24218250.5764
 -23042718.91844 -17955359.50344  20817754.5894   20817754.1954
 -12864101.62844 -10023971.65744  21771270.9324   21771270.5914
 -10175343.37244  -7928834.82544  22963908.7404   22963907.7544
 -26558847.24544 -20695195.34644  20255635.5634   20255634.5504
  -2773660.17544  -2161288.48744  24515792.7494   24515790.5404
 -15620971.80944 -12172171.52944  21296319.2034   21296318.7754
 96  2 25  3 49  0.0000000  0  7G 4G20G16G 6G 5G 9G24
   1174156.92844    914940.85944  24236591.3454   24236588.9664
 -23089288.02444 -17991647.11944  20808892.9954   20808892.4364
 -12926213.67944 -10072370.65144  21759451.4454   21759451.2484
 -10241606.16944  -7980468.14744  22951299.9884   22951299.7614
 -26547793.53944 -20686582.07644  20257738.6864   20257737.9424
  -2682236.95944  -2090049.65044  24533190.9214   24533188.6734
 -15560944.15844 -12125396.73944  21307742.0924   21307741.7694
 96  2 25  3 49 30.0000000  0  7G 4G20G16G 6G 5G 9G24
   1270517.77444    990027.25944  24254927.6654   24254924.6654
 -23135355.97444 -18027544.22344  20800126.3504   20800125.8214
 -12987894.36744 -10120433.51244  21747713.7624   21747713.8814
 -10307811.71144  -8032056.86544  22938701.0724   22938700.4284
 -26536216.54644 -20677561.04944  20259942.1024   20259941.1444
  -2590924.55144  -2018897.13444  24550567.6734   24550567.3674
 -15500709.70444 -12078460.80044  21319204.3204   21319203.7174
 96  2 25  3 50  0.0000000  0  7G 4G20G16G 6G 5G 9G24
   1366876.24644   1065111.74644  24273263.1414   24273262.1064
 -23180899.08344 -18063032.36344  20791459.9514   20791459.3734
 -13049136.89344 -10168154.94644  21736059.4634   21736059.7694
 -10373957.71144  -8083599.17544  22926113.9914   22926113.1254
 -26524082.66844 -20668106.08944  20262251.1724   20262250.2714
  -2499712.54344  -1947822.82544  24567924.3244   24567925.3594
 -15440248.18444 -12031347.92444  21330709.8134   21330709.2834
 96  2 25  3 50 30.0000000  0  7G16G 4G20G 6G 5G 9G24
 -13109960.67044 -10215550.08744  21724485.4324   21724485.7954
   1463220.93144   1140185.53044  24291597.7734   24291598.1104
 -23225926.50044 -18098118.66144  20782891.2984   20782890.8274
 -10440048.50844  -8135098.48744  22913537.1864   22913537.2424
 -26511368.45644 -20658198.91744  20264670.5324   20264669.5754
  -2408594.55944  -1876821.84344  24585263.6054   24585266.4964
 -15379555.27144 -11984054.74644  21342259.2184   21342258.7444
 96  2 25  3 51  0.0000000  0  7G16G 4G20G 6G 5G 9G24
 -13170347.85144 -10262605.01944  21712993.8114   21712993.7644
   1559572.18544   1215264.41244  24309930.9174   24309930.3784
 -23270443.74544 -18132807.42344  20774420.0224   20774419.6584
 -10506081.51744  -8186552.75344  22900971.2714   22900970.7144
 -26498051.35244 -20647821.96044  20267204.8774   20267203.9214
  -2317548.72644  -1805877.10244  24602589.1794   24602591.9954
 -15318608.57644 -11936563.81744  21353857.1534   21353856.9344
 96  2 25  3 51 30.0000000  0  7G 4G20G16G 6G 5G 9G24
   1655915.64944   1290337.22644  24328265.8454   24328264.4184
 -23314471.75144 -18167114.96244  20766041.8644   20766041.3874
 -13230292.42244 -10309315.06844  21701587.2504   21701587.1914
 -10572092.79644  -8237990.09644  22888409.5734   22888409.4124
 -26484157.30144 -20636995.43444  20269848.7444   20269847.8894
  -2226587.82444  -1734998.48044  24619899.6794   24619899.9144
 -15257395.22644 -11888865.09844  21365505.4904   21365505.1244
 96  2 25  3 52  0.0000000  0  7G 4G20G16G 6G 5G 9G24
   1752250.90844   1365403.67344  24346597.7554   24346595.2744
 -23358014.49444 -18201044.37444  20757755.8614   20757755.5754
 -13289788.99844 -10355676.02844  21690265.1774   21690264.9684
 -10638088.64044  -8289415.41644  22875851.7404   22875851.9924
 -26469699.34544 -20625729.50344  20272599.9704   20272599.0784
  -2135708.52144  -1664183.44444  24637191.3364   24637189.0494
 -15195895.90844 -11840943.54944  21377208.5424   21377208.2144
 96  2 25  3 52 30.0000000  0  7G 4G20G16G 6G 5G 9G24
   1848600.15944   1440481.05344  24364932.5584   24364933.7344
 -23401068.09444 -18234592.63944  20749563.1274   20749562.6634
 -13348835.15344 -10401686.00744  21679029.0484   21679029.1174
 -10704063.48244  -8340824.37344  22863296.4784   22863295.7694
 -26454700.26244 -20614041.91444  20275454.2084   20275453.2994
  -2044920.79744  -1593439.83044  24654468.1194   24654469.8364
 -15134132.51944 -11792816.23444  21388961.6164   21388961.1404
 96  2 25  3 53  0.0000000  0  7G16G 4G20G 6G 5G 9G24
 -13407422.68944 -10447338.61944  21667880.2864   21667879.7414
   1944985.64644   1515586.56744  24383274.2914   24383273.6404
 -23443615.74644 -18267746.65544  20741466.3764   20741465.9494
 -10770012.32144  -8392213.06144  22850746.7684   22850746.5684
 -26439178.77644 -20601947.25744  20278407.8594   20278406.7474
  -1954221.92544  -1522765.41644  24671728.2194   24671727.2434
 -15072120.52944 -11744495.20244  21400762.4244   21400762.0544
 96  2 25  3 53 30.0000000  0  7G16G 4G20G 6G 5G 9G24
 -13465560.54744 -10492640.82944  21656816.9904   21656817.2044
   2041395.65244   1590711.20544  24401620.5754
 -23485649.80744 -18300500.46844  20733467.7834   20733467.1624
 -10835921.24244  -8443570.63644  22838205.0464   22838204.7754
 -26423132.49044 -20589443.66444  20281461.3454   20281460.3614
  -1863607.37744  -1452156.66344  24688971.0454   24688972.1294
 -15009871.69544 -11695989.62044  21412607.5394   21412607.3834
 96  2 25  3 54  0.0000000  0  7G16G 4G20G 6G 5G 9G24
 -13523233.17444 -10537580.51844  21645841.8884   21645842.1364
   2137836.24044   1665859.79244  24419974.1414   24419967.9184
 -23527145.36444 -18332834.66844  20725571.6314   20725571.2364
 -10901753.56944  -8494868.52444  22825677.4814   22825676.1904
 -26406532.44744 -20576508.57444  20284620.1924   20284619.3294
  -1773058.02344  -1381598.73944  24706200.7414   24706203.8964
 -14947395.34344 -11647306.74744  21424496.5574   21424496.2394
 96  2 25  3 54 30.0000000  0  8G16G 4G20G17G 6G 5G 9G24
 -13580432.81444 -10582151.66344  21634957.1744   21634957.2334
   2234294.77344   1741022.28144  24438328.8014   24438326.1154
 -23568113.02744 -18364757.52044  20717775.6794   20717775.3944
        -0.26254                  25539236.3284
 -10967517.37144  -8546113.02144  22813163.3884   22813162.8774
 -26389376.80144 -20563140.54744  20287884.7954   20287883.8664
  -1682571.16744  -1311089.52344  24723421.1214   24723423.0564
 -14884701.47644 -11598454.38044  21436426.8084   21436426.7724
 96  2 25  3 55  0.0000000  0  8G16G 4G20G17G 6G 5G 9G24
 -13637219.96444 -10626401.37844  21624150.9144   21624151.2604
   2330667.81644   1816118.11144  24456667.7584   24456665.6994
 -23608633.37644 -18396331.82144  20710064.4354   20710063.9684
    -98543.43144                  25520485.9924
 -11033288.37544  -8597363.14044  22800646.8594   22800646.6674
 -26371726.12644 -20549386.78244  20291243.6384   20291242.6004
  -1592229.22944  -1240693.21544  24740611.9534
 -14821852.56144 -11549481.20344  21448386.7014   21448386.4094
 96  2 25  3 55 30.0000000  0  8G16G 4G20G17G 6G 5G 9G24
 -13693510.06544 -10670263.78044  21613439.4934   21613439.5294
   2427009.72044   1891189.74844  24475000.8894   24474999.4344
 -23648653.27144 -18427516.16044  20702449.2364   20702448.7444
   -196961.59344                  25501759.3004
 -11099006.28244  -8648571.88244  22788141.3994   22788141.5034
 -26353503.97844 -20535187.71144  20294711.1614   20294710.0484
  -1501977.85844  -1170367.50844  24757787.7204   24757791.0044
 -14758771.64144 -11500327.23644  21460390.3934   21460389.9904
 96  2 25  3 56  0.0000000  0  8G16G 4G20G17G 6G 5G 9G24
 -13749273.79344 -10713716.02244  21602828.0294   21602827.7144
   2523349.81944   1966259.92744  24493334.4884   24493333.3384
 -23688159.02244 -18458299.85844  20694931.5074   20694931.0214
   -295209.78444                  25483065.1584
 -11164660.46944  -8699730.96744  22775647.4754   22775647.7324
 -26334706.76444 -20520540.54044  20298288.2554   20298287.2454
  -1411800.24144  -1100099.25544  24774947.1954   24774948.7704
 -14695431.54744 -11450971.31644  21472443.9554   21472443.5774
 96  2 25  3 56 30.0000000  0  8G16G 4G20G17G 6G 5G 9G24
 -13804610.83144 -10756835.77844  21592297.7914   21592297.8224
   2619595.18744   2041256.32044  24511649.5984   24511648.2774
 -23727241.87444 -18488754.02944  20687494.4154   20687493.8064
   -393389.77944                  25464379.9774
 -11230348.07444  -8750916.09944  22763147.5654   22763147.8974
 -26315431.06744 -20505520.52144  20301956.2974   20301955.3454
  -1321807.13344  -1029974.76244  24792072.5984   24792069.7834
 -14631902.29444 -11401468.00344  21484533.0864   21484532.5304
 96  2 25  3 57  0.0000000  0  7G16G 4G20G 6G 5G 9G24
 -13859491.01344 -10799599.54844  21581854.1534   21581854.0944
   2715779.86344   2116205.46944  24529952.4114   24529952.1034
 -23765845.83044 -18518835.02944  20680148.0094   20680147.6174
 -11296023.38644  -8802091.65644  22750650.3134   22750649.6434
 -26295640.21844 -20490099.08644  20305722.3004   20305721.4724
  -1231967.66244   -959970.00944  24809168.0684   24809165.6204
 -14568155.80944 -11351795.41644  21496663.3284   21496662.9224
 96  2 25  3 57 30.0000000  0  7G 4G20G16G 6G 5G 9G24
   2811969.28944   2191158.24044  24548257.4074   24548255.8094
 -23803906.47144 -18548492.67144  20672905.3444   20672904.7684
 -13913869.26544 -10841972.19944  21571506.5484   21571506.3724
 -11361626.51744  -8853210.96244  22738166.7624   22738166.4764
 -26275298.11644 -20474248.10544  20309593.2914   20309592.6774
  -1142229.48944   -890044.18144  24826246.1714   24826246.0984
 -14504155.14044 -11301924.76344  21508842.1184   21508841.7724
 96  2 25  3 58  0.0000000  0  7G16G 4G20G 6G 5G 9G24
 -13967765.68044 -10883969.40444  21561250.4654   21561250.1704
   2908146.36244   2266101.40344  24566558.1604   24566556.8624
 -23841417.33444 -18577721.92144  20665767.3464   20665767.3194
 -11427152.95444  -8904270.50644  22725697.7004   22725696.8944
 -26254416.63444 -20457976.82944  20313566.8584   20313566.1204
  -1052608.30544   -820209.51644  24843298.2214   24843298.1704
 -14439913.59544 -11251866.41444  21521066.8554   21521066.7564
 96  2 25  3 58 30.0000000  0  8G16G 4G20G17G 6G 5G 9G24
 -14021179.15144 -10925590.28444  21551085.8784   21551085.7444
   3004307.69944   2341032.32744  24584857.2824   24584855.8834
 -23878362.65044 -18606510.47544  20658737.1034   20658736.5544
        -0.54254                  25389883.1064
 -11492598.72044  -8955267.19344  22713243.7124   22713242.5204
 -26232982.75344 -20441275.11044  20317645.8614   20317644.9534
   -963110.38244   -750470.90644  24860330.3734   24860329.6214
 -14375448.49844 -11201633.87444  21533334.1704   21533334.0314
 96  2 25  3 59  0.0000000  0  8G16G 4G20G17G 6G 5G 9G24
 -14074106.85044 -10966832.63944  21541014.3234   21541014.5244
   3100459.03844   2415955.43844  24603153.5264   24603151.6854
 -23914750.29144 -18634864.49444  20651812.6304   20651812.2444
    -96861.95944                  25371320.4274
 -11557983.18844  -9006216.11344  22700801.2684   22700800.1904
 -26211000.68944 -20424146.23744  20321828.5854   20321827.9144
   -873722.25544   -680817.82844  24877339.5044   24877339.3294
 -14310798.54544 -11151257.28444  21545636.8444   21545636.5364
 96  2 25  3 59 30.0000000  0  7G16G 4G20G 6G 5G 9G24
 -14126564.37444 -11007708.62244  21531032.0944   21531032.0964
   3196584.79344   2490858.61944  24621447.0794   24621446.5924
 -23950617.94044 -18662813.31144  20644987.0664   20644986.6484
 -11623332.70044  -9057137.79344  22688365.8814   22688365.7144
 -26188486.55844 -20406602.76544  20326113.0454   20326112.1594
   -784466.67044                  24894324.2704
 -14245973.96344 -11100744.62444  21557972.6594   21557972.2174
 96  2 25  4  0  0.0000000  0  8G16G 6G 4G20G17G 5G 9G24
 -14178544.95644 -11048212.96144  21521140.4954   21521140.4734
 -11688660.80644  -9108042.80244  22675933.8284   22675933.4514
   3292683.51144   2565740.74944  24639733.1364   24639731.5444
 -23985968.42844 -18690359.15144  20638260.1194   20638259.5834
        -1.02954                  25334188.3004
 -26165418.96244 -20388628.02044  20330502.7914   20330501.6494
   -695331.28444   -541811.88044  24911285.8214   24911286.5304
 -14180976.48244 -11050097.23344  21570341.2304   21570340.8774
 96  2 25  4  0 30.0000000  0  8G16G 6G 4G20G17G 5G 9G24
 -14230010.50744 -11088315.97744  21511346.8964   21511346.8604
 -11753936.02844  -9158906.59044  22663512.4614   22663512.6014
   3388796.16344   2640633.74044  24658023.5464   24658021.9814
 -24020760.70344 -18717470.01644  20631639.4844   20631638.9274
    -97382.71644    -75882.51744  25315657.5344   25315650.2594
 -26141752.16944 -20370186.37244  20335006.4364   20335005.5264
   -606274.33444   -472416.91644  24928233.7274   24928234.7244
 -14115774.11044 -10999290.18844  21582748.7334   21582748.2864
 96  2 25  4  1  0.0000000  0  8G16G 4G20G17G 6G 5G 9G24
 -14280972.70844 -11128026.77144  21501649.0084   21501649.1864
   3484900.80244   2715520.48644  24676311.9794   24676310.5734
 -24055014.11744 -18744160.99144  20625121.1594   20625120.8594
   -194589.92844                  25297159.3624
 -11819162.44044  -9209732.35344  22651100.4214   22651099.3704
 -26117494.62744 -20351284.39944  20339622.4334   20339621.6654
   -517317.20144   -403099.69244  24945161.0984   24945159.0524
 -14050361.55744 -10948319.36744  21595196.3224   21595195.9284
 96  2 25  4  1 30.0000000  0  8G16G 4G20G17G 6G 5G 9G24
 -14331477.35944 -11167381.03244  21492038.2624   21492038.2714
   3580929.03744   2790347.70844  24694583.5994   24694585.0104
 -24088768.20344 -18770462.88244  20618698.2724   20618697.7144
   -291658.79244                  25278682.3464
 -11884360.21144  -9260535.78844  22638693.5564   22638692.4424
 -26092703.29444 -20331966.48844  20344339.9004   20344339.1804
   -428531.56044   -333916.05444  24962058.1634   24962058.0914
 -13984765.28044 -10897205.37844  21607679.0774   21607678.5424
 96  2 25  4  2  0.0000000  0  8G16G 6G 4G20G17G 5G 9G24
 -14381505.10244 -11206363.68044  21482518.4174   21482518.2804
 -11949508.34744  -9311300.56244  22626296.4064   22626295.5444
   3676889.92644   2865122.42544  24712844.8044   24712844.9544
 -24121991.50144 -18796351.16644  20612375.9234   20612375.4844
   -388563.54144                  25260236.6814
 -26067368.67844 -20312225.23444  20349161.0924   20349160.2034
   -339909.64044   -264860.08044  24978921.6274   24978920.5664
 -13918968.73944 -10845935.34644  21620199.5064   21620199.1844
 96  2 25  4  2 30.0000000  0  8G16G 6G24G 4G20G17G 5G 9
 -14431032.43744 -11244956.39944  21473093.4094   21473093.3484
 -12014566.39644  -9361995.12644  22613916.2974   22613915.1024
 -13852929.06844 -10794475.86244  21632766.3734   21632766.2544
   3772802.63644   2939859.51544  24731096.5134   24731095.6234
 -24154672.31644 -18821816.74244  20606156.8544   20606156.3684
   -485301.63644                  25241827.7244
 -26041475.61844 -20292048.83344  20354088.1964   20354087.3554
   -251443.08344   -195925.13244  24995756.6094
 96  2 25  4  3  0.0000000  0  8G16G 6G 4G20G17G 5G 9G24
 -14480069.64144 -11283167.20144  21463762.2084   21463761.8964
 -12079561.12544  -9412640.35444  22601548.2694   22601547.1154
   3868663.82944   3014556.57344  24749337.2174   24749338.1594
 -24186843.98544 -18846885.57644  20600034.7624   20600034.2834
   -581931.37444   -453452.77944  25223444.0254
 -26015057.38644 -20271463.20744  20359115.4384   20359114.5314
   -163147.36644   -127123.30644  25012558.5464   25012556.4964
 -13786658.78344 -10742836.67644  21645377.3284   21645376.8904
 96  2 25  4  3 30.0000000  0  8G16G 6G 4G20G17G 5G 9G24
 -14528620.95544 -11320999.38844  21454522.9854   21454522.9364
 -12144517.40444  -9463255.61444  22589187.7094   22589186.7454
   3964484.48144   3089221.95944  24767571.1094
 -24218516.89044 -18871565.76744  20594007.7394   20594007.3324
   -678485.85744   -528689.98744  25205074.5394
 -25988136.83344 -20250486.16044  20364238.4114   20364237.7594
    -75018.21644    -58451.28144  25029329.3204   25029329.3854
 -13720181.95644 -10691036.55244  21658027.7874   21658027.2174
 96  2 25  4  4  0.0000000  0  8G16G 6G24G 4G20G17G 5G 9
 -14576638.16744 -11358415.39344  21445385.8304   21445385.9674
 -12209409.73444  -9513821.05844  22576838.9434   22576837.5954
 -13653464.19744 -10639048.68644  21670723.4804   21670723.0174
   4060340.39244                  24785812.8194
 -24249649.38644 -18895824.85544  20588083.5894   20588083.0184
   -774918.39944   -603832.19544  25186727.1574   25186724.1774
 -25960652.01444 -20229069.42844  20369468.7054   20369467.6834
     13015.29144     10146.25744  25046082.1584   25046082.7104
 96  2 25  4  4 30.0000000  0  8G16G 6G24G 4G20G17G 5G 9
 -14624144.79944 -11395433.54244  21436345.6904   21436345.4624
 -12274269.31944  -9564360.97644  22564496.8304   22564495.4584
 -13586539.77944 -10586899.78344  21683458.8524   21683458.5404
   4156204.52444   3238614.28244  24804056.3664   24804055.3734
 -24280260.65644 -18919677.79844  20582258.5554   20582258.1384
   -871254.68644   -678899.39644  25168394.9474   25168389.7714
 -25932629.75944 -20207233.91244  20374801.1624   20374800.3944
    100939.33844     78658.49644  25062812.4624
 96  2 25  4  5  0.0000000  0  8G16G 6G24G 4G20G17G 5G 9
 -14671176.65344 -11432081.72844  21427395.5484   21427395.5484
 -12339156.94044  -9614922.75344  22552148.6824   22552147.3264
 -13519483.11844 -10534647.83544  21696219.2324   21696219.0554
   4252025.50444   3313279.99744  24822290.9004   24822289.8964
 -24310374.46444 -18943143.10544  20576527.7484   20576527.3584
   -967529.52944   -753918.75144  25150074.8194   25150069.6394
 -25904122.79944 -20185020.70644  20380225.7144   20380224.8284
    188706.56644    147048.50644  25079514.5624
 96  2 25  4  5 30.0000000  0  8G16G 6G24G 4G20G17G 5G 9
 -14717713.75944 -11468344.39544  21418539.5024   21418539.6284
 -12404041.91544  -9665482.45644  22539801.6404   22539800.2594
 -13452294.50044 -10482293.07444  21709004.8214   21709004.4164
   4347788.94144   3387900.85444  24840514.2224   24840511.6244
 -24339953.48144 -18966191.69544  20570899.2764   20570898.8264
  -1063707.31944   -828862.51244  25131771.8224   25131767.1674
 -25875104.15344 -20162408.78244  20385747.8534   20385747.0784
    276318.09944    215317.11744  25096184.2724
 96  2 25  4  6  0.0000000  0  8G16G 6G24G 4G20G17G 5G 9
 -14763732.11244 -11504202.83944  21409782.9124   21409782.5784
 -12468881.52044  -9716006.81744  22527462.7124   22527462.1804
 -13384942.17944 -10429810.74244  21721821.6814   21721821.1534
   4443497.75144   3462479.15144  24858726.8274   24858725.8824
 -24368955.93544 -18988791.00844  20565380.3504   20565379.9944
  -1159752.78644   -903703.14644  25113494.8994   25113494.3624
 -25845533.27044 -20139366.54344  20391374.8994   20391374.1654
    363789.03944    283476.30944  25112832.1184
 96  2 25  4  6 30.0000000  0  8G16G 6G24G 4G20G17G 5G 9
 -14809230.00544 -11539655.73344  21401125.0004   21401124.7964
 -12533677.49244  -9766497.17744  22515132.2994   22515131.8074
 -13317430.27344 -10377204.06044  21734668.2714   21734668.3284
   4539119.18544   3536989.37344  24876923.2224
 -24397381.21344 -19010940.57944  20559970.8094   20559970.4824
  -1255673.38544   -978446.47244  25095235.6214
 -25815418.70244 -20115900.65744  20397105.4624   20397104.6184
    451085.72244                  25129442.3804
 96  2 25  4  7  0.0000000  0  8G16G 6G24G 4G20G17G 5G 9
 -14854182.06844 -11574683.30444  21392570.6964   21392570.6654
 -12598405.74344  -9816934.76644  22502815.0514   22502814.3604
 -13249740.39044 -10324458.69344  21747549.5904   21747549.1734
   4634686.66244                  24895108.7424
 -24425214.16444 -19032628.59544  20554674.7434   20554674.2944
  -1351441.84644                  25077006.6564
 -25784732.13244 -20091989.05644  20402944.9214   20402944.1024
    538227.54644    419402.34544  25146025.9854
 96  2 25  4  7 30.0000000  0  8G16G 6G24G 4G20G17G 5G 9
 -14898615.51944 -11609306.76344  21384115.2474   21384115.4214
 -12663069.13144  -9867321.81744  22490509.9644   22490508.8354
 -13181862.71744 -10271566.99544  21760466.0804   21760465.7314
   4730193.61444   3685878.52544  24913283.1274   24913283.5434
 -24452492.38544 -19053884.35744  20549483.7094   20549483.2474
  -1447073.74744  -1127589.51544  25058811.5484
 -25753489.01244 -20067643.77344  20408890.5414   20408889.5424
    625198.73444    487172.08244  25162576.0944   25162575.7234
 96  2 25  4  8  0.0000000  0  8G16G 6G24G 4G20G17G 5G 9
 -14942517.17244 -11643515.83144  21375761.0064   21375761.2524
 -12727665.73944  -9917656.81944  22478217.9054   22478216.8054
 -13113761.18244 -10218500.87044  21773425.3884   21773425.3214
   4825680.49844   3760283.89244  24931453.1274
 -24479218.45144 -19074709.86644  20544397.8194   20544397.5934
  -1542556.89544  -1201991.89244  25040644.3304   25040646.2134
 -25721678.39544 -20042856.29044  20414943.6544   20414942.8154
    712023.65144    554827.84344  25179097.7564
 96  2 25  4  8 30.0000000  0  8G16G 6G24G 4G20G17G 5G 9
 -14985889.57644 -11677312.49844  21367507.4564   21367507.5524
 -12792206.79444  -9967948.53944  22465936.2984   22465935.1664
 -13045449.47344 -10165270.97444  21786424.9324   21786424.6294
   4921141.77844                  24949619.4984
 -24505411.01644 -19095119.66444  20539413.7014   20539413.2034
  -1637898.51844  -1276284.10544  25022502.7134
 -25689329.12944 -20017649.08044  20421099.5464   20421098.7824
    798699.46544    622367.38344  25195593.0964
 96  2 25  4  9  0.0000000  0  8G16G 6G24G 4G20G17G 5G 9
 -15028698.66244 -11710670.21644  21359361.3024   21359361.2614
 -12856634.43544 -10018151.88644  22453676.1504   22453675.5804
 -12976894.57144 -10111851.56344  21799470.3664   21799470.0034
   5016619.78644                  24967787.1064
 -24531029.63044 -19115082.21944  20534538.5014   20534538.3144
  -1733060.45144  -1350436.24444  25004396.6334   25004392.6354
 -25656408.72444 -19991996.82244  20427364.1974   20427363.3824
    885278.05044    689831.20944  25212067.9314   25212071.4034
 96  2 25  4  9 30.0000000  0  8G16G 6G24G 4G20G17G 5G 9
 -15070971.10544 -11743609.76944  21351316.9884   21351317.3224
 -12920970.12444 -10068283.57044  22441433.3374   22441431.9954
 -12908136.40144 -10058273.76444  21812554.7364   21812554.2764
   5112061.90444                  24985948.9534
 -24556093.09844 -19134612.19544  20529769.1224   20529768.8394
  -1828073.59444  -1424472.42344  24986316.6094   24986314.4834
 -25622940.31544 -19965917.55044  20433733.1604   20433732.2764
    971711.68144    757182.10044  25228515.7484
 96  2 25  4 10  0.0000000  0  7G16G 6G24G20G17G 5G 9
 -15112750.58044 -11776165.19044  21343366.9444   21343366.5324
 -12985269.04544 -10118386.61044  22429197.4754   22429196.5274
 -12839264.33944 -10004607.21344  21825660.1854   21825659.6724
 -24580631.37644 -19153732.93944  20525099.7664   20525099.2784
  -1922990.55544  -1498433.69444  24968254.1034   24968253.3414
 -25588967.00044 -19939444.84744  20440197.6554   20440196.9074
   1057944.71644    824376.65344  25244924.7774   25244923.4794
 96  2 25  4 10 30.0000000  0  7G16G 6G24G20G17G 5G 9
 -15154048.82744 -11808345.63444  21335507.9764   21335507.7414
 -13049525.53344 -10168456.59844  22416969.6854   22416969.0194
 -12770316.13444  -9950881.34444  21838780.8574   21838780.2854
 -24604642.36644 -19172442.80344  20520530.6574   20520529.9234
  -2017815.47344  -1572323.22444  24950208.0124   24950204.3384
 -25554494.76544 -19912583.37444  20446757.6134   20446757.0064
   1143954.42144    891397.13644  25261291.8384   25261291.3704
 96  2 25  4 11  0.0000000  0  8G16G 6G24G25G20G17G 5G 9
 -15194855.47044 -11840143.00244  21327742.7784   21327742.8664
 -13113734.68844 -10218489.68544  22404751.2854   22404750.0774
 -12701286.29444  -9897091.85944  21851917.2154   21851916.9304
        -0.28654                  25099013.3224
 -24628118.62944 -19190736.00044  20516063.0494   20516062.5984
  -2112534.96944  -1646130.57944  24932181.7824   24932181.0714
 -25519491.63944 -19885308.22244  20453418.5954   20453417.9744
   1229731.94244    958236.67344  25277615.1484
 96  2 25  4 11 30.0000000  0  8G16G 6G24G25G20G17G 5G 9
 -15235096.50344 -11871499.64444  21320085.0754   21320084.9864
 -13177847.20144 -10268447.48044  22392551.1914   22392550.0634
 -12632094.58644  -9843176.24744  21865083.6544   21865083.3344
    -28433.33144                  25093604.6284
 -24650999.64044 -19208565.35944  20511709.1584   20511708.8284
  -2207073.80644  -1719797.15844  24914188.4724
 -25483893.22644 -19857569.20844  20460192.8834   20460191.9824
   1315332.91744   1024938.75444  25293905.1454
 96  2 25  4 12  0.0000000  0  8G16G 6G24G25G20G17G 5G 9
 -15274753.22444 -11902400.97244  21312538.7074   21312538.8694
 -13241853.03244 -10318322.14244  22380371.4244   22380370.1904
 -12562697.49044  -9789100.58944  21878289.4974   21878288.9604
    -56374.78444                  25088291.3654
 -24673270.93644 -19225919.62044  20507470.9644   20507470.6684
  -2301409.89244                  24896235.7364
 -25447700.68244 -19829367.23244  20467080.1254   20467079.5044
   1400792.41244   1091530.56044  25310166.7524   25310167.0664
 96  2 25  4 12 30.0000000  0  8G16G 6G24G25G20G17G 5G 9
 -15313869.53144 -11932881.20344  21305095.0724   21305094.9594
 -13305812.54944 -10368160.71544  22368199.9464   22368199.3144
 -12493116.92544  -9734881.96544  21891530.1384   21891529.7964
    -83870.87244                  25083064.2394
 -24694994.77444 -19242847.28844  20503336.9684   20503336.5424
  -2395592.93544  -1866695.06744  24878315.2864
 -25410979.07044 -19800752.99644  20474068.0474   20474067.3364
   1486057.19444   1157970.62344  25326392.0894
 96  2 25  4 13  0.0000000  0  7G16G 6G20G17G 5G 9G24
 -15352483.42944 -11962969.94644  21297747.1354   21297746.9954
 -13369787.67744 -10418011.45344  22356025.8714   22356025.4134
 -24716218.54144 -19259385.29544  20499298.4654   20499297.8004
  -2489670.20544  -1940002.00444  24860415.5684
 -25373792.13944 -19771776.17444  20481144.3704   20481143.7254
   1571084.89344   1224225.97744  25342572.7994
 -12423376.38744  -9680538.68444  21904801.4364   21904801.1674
 96  2 25  4 13 30.0000000  0  7G16G 6G24G20G17G 5G 9
 -15390588.28644 -11992662.03244  21290495.8904   21290495.6184
 -13433767.90344 -10467866.16444  22343850.3924   22343849.6854
 -12353460.51344  -9626058.78444  21918106.1024   21918105.3114
 -24736919.88544 -19275516.21244  20495359.1394   20495358.5934
  -2583649.52644  -2013232.64944  24842532.6564
 -25336150.04744 -19742444.68144  20488307.5544   20488306.8614
   1655892.10344   1290309.47244  25358710.5224
 96  2 25  4 14  0.0000000  0  8G16G 6G24G25G20G17G 5G 9
 -15428150.15344 -12021931.01344  21283347.9304   21283347.7344
 -13497717.37944 -10517696.91444  22331681.3744   22331680.6124
 -12283352.68744  -9571429.30844  21931447.2804   21931446.8124
        -0.07954                  25067858.0884
 -24757046.97944 -19291199.66744  20491528.8274   20491528.4034
  -2677508.61744  -2086369.62844  24824672.5394   24824665.5144
 -25298015.58544 -19712729.52544  20495564.3284   20495563.6514
   1740514.98744   1356249.43744  25374813.3744
 96  2 25  4 14 30.0000000  0  8G16G 6G24G25G20G17G 5G 9
 -15465139.08844 -12050753.55044  21276309.4924   21276309.1464
 -13561589.54444 -10567467.43044  22319526.7544   22319525.9844
 -12213055.94044  -9516652.62644  21944824.1394   21944823.6024
    -25651.63044                  25062978.6034
 -24776577.49544 -19306418.25544  20487812.4934   20487812.0304
  -2771221.60044  -2159392.69444  24806838.1004   24806837.2114
 -25259340.73444 -19682593.28644  20502923.6644   20502922.9594
   1824968.65944   1422057.48344  25390884.6214
 96  2 25  4 15  0.0000000  0  8G16G 6G24G25G20G17G 5G 9
 -15501567.83444 -12079139.58044  21269377.1474   21269376.8904
 -13625364.29744 -10617162.02744  22307391.1984   22307389.9814
 -12142590.12544  -9461744.20144  21958233.6424   21958232.5654
    -50758.79544                  25058194.4844
 -24795499.82544 -19321162.93044  20484211.7374   20484211.2434
  -2864783.65244  -2232298.20444  24789034.9514   24789030.6714
 -25220116.99244 -19652029.33944  20510387.8524   20510387.3094
   1909252.79144                  25406922.7044
 96  2 25  4 15 30.0000000  0  8G16G 6G24G25G20G17G 5G 9
 -15537477.33344 -12107121.00044  21262543.8324   21262543.9954
 -13689065.83244 -10666799.56944  22295268.8764   22295268.3224
 -12072015.81244  -9406751.23644  21971663.1744   21971662.4364
    -75356.44244                  25053509.2374
 -24813849.80644 -19335461.62344  20480719.7874   20480719.2514
  -2958233.16244  -2305115.98344  24771251.7444   24771253.5624
 -25180360.51744 -19621050.27444  20517953.1504   20517952.5314
   1993326.69244                  25422923.0274
 96  2 25  4 16  0.0000000  0  8G16G 6G24G25G20G17G 5G 9
 -15572870.96944 -12134700.44444  21255808.6414   21255808.3874
 -13752692.29544 -10716378.61044  22283161.3214   22283160.7574
 -12001352.60644  -9351688.99644  21985109.4924   21985108.8834
    -99449.38744                  25048923.9754
 -24831639.80244 -19349323.96044  20477334.2514   20477333.7974
  -3051543.46844  -2377825.30944  24753495.5454   24753494.1874
 -25140068.51444 -19589653.91544  20525620.4864   20525619.6814
   2077187.60244                  25438880.2844
 96  2 25  4 16 30.0000000  0  8G16G 6G24G25G20G17G 5G 9
 -15607724.58544 -12161859.10044  21249176.1354   21249176.2914
 -13816214.87144 -10765876.71844  22271073.4274   22271072.0814
 -11930564.26744  -9296529.25244  21998580.1404   21998579.9374
   -122999.69144                  25044443.8874
 -24848858.14044 -19362740.85244  20474058.1464   20474057.9084
  -3144676.07344  -2450396.13044  24735771.9724   24735771.7164
 -25099216.57244 -19557821.23944  20533394.4994   20533393.6484
   2160862.48944                  25454804.6704
 96  2 25  4 17  0.0000000  0  8G16G 6G24G25G20G17G 5G 9
 -15642025.59144 -12188587.14444  21242648.6354   21242648.9744
 -13879648.10244 -10815305.19144  22259002.8924   22259002.0984
 -11859625.73344  -9241252.47244  22012079.8104   22012079.3264
   -146019.08244   -113780.13844  25040063.2704   25040056.4044
 -24865492.19544 -19375702.45744  20470892.6564   20470892.1664
  -3237621.10344  -2522820.81744  24718084.9194   24718092.7024
 -25057810.69444 -19525556.92344  20541273.6644   20541272.8454
   2244357.02944                  25470692.7054
 96  2 25  4 17 30.0000000  0  7G16G 6G25G20G17G 5G24
 -15675746.95344 -12214863.51944  21236232.0724   21236231.7704
 -13943008.98944 -10864677.30444  22246945.6534   22246944.9254
   -168538.97644   -131328.05844  25035777.5474   25035770.5594
 -24881546.11844 -19388212.01044  20467837.6314   20467837.0524
  -3330368.38844  -2595091.37644  24700432.8624   24700437.5974
 -25015844.76044 -19492856.20144  20549259.3894   20549258.6754
 -11788526.39944  -9185850.38144  22025609.9344   22025608.9714
 96  2 25  4 18  0.0000000  0  7G16G 6G24G25G20G17G 5
 -15708887.64044 -12240687.41844  21229925.6944   21229925.6944
 -14006310.75644 -10914003.34944  22234899.6744   22234899.0654
 -11717266.78844  -9130323.40944  22039169.6744   22039169.3074
   -190574.43744   -148498.60644  25031583.0224   25031576.9474
 -24897029.24844 -19400276.79144  20464891.1844   20464890.7974
  -3422921.17944  -2667210.41844  24682822.6094   24682825.5354
 -24973331.95044 -19459729.34244  20557349.5404   20557348.8334
 96  2 25  4 18 30.0000000  0  8G16G 6G24G25G20G17G 5G 4
 -15741437.46144 -12266050.90344  21223731.4694   21223731.2704
 -14069564.20244 -10963291.73944  22222862.7084   22222861.9904
 -11645843.43544  -9074668.86144  22052760.8944   22052760.4544
   -212142.49044   -165304.79144  25027476.8084   25027472.9944
 -24911943.43344 -19411898.24144  20462053.2934   20462052.8604
  -3515298.27444  -2739192.55644  24665244.4404   24665246.9734
 -24930275.25144 -19426178.67544  20565543.0394   20565542.3304
        -0.42554                  25310292.1284
 96  2 25  4 19  0.0000000  0  8G16G 6G24G25G20G17G 5G 4
 -15773423.63244 -12290975.18744  21217644.8324   21217644.4924
 -14132797.65644 -11012564.54944  22210829.7794   22210828.6094
 -11574293.47144  -9018915.63744  22066376.7614   22066376.2034
   -233285.03944   -181778.69044  25023452.8704   25023450.9334
 -24926302.67344 -19423087.26444  20459320.6724   20459320.2364
  -3607529.32144  -2811060.86044  24647692.3524   24647697.6434
 -24886700.84644 -19392224.60244  20573835.0514   20573834.2954
     94102.82344                  25328198.1754
 96  2 25  4 19 30.0000000  0  8G16G 6G24G25G20G17G 5G 4
 -15804870.97344 -12315479.59944  21211660.4954   21211660.2474
 -14196013.50044 -11061823.63744  22198800.2484   22198799.6364
 -11502644.85544  -8963085.54844  22080010.7824   22080010.7554
   -253997.79144   -197918.40044  25019510.0944   25019507.3284
 -24940119.67344 -19433853.76544  20456691.4774   20456690.8534
  -3699638.68844  -2882834.37044  24630164.2394   24630166.1964
 -24842622.39844 -19357877.76944  20582222.6894   20582222.0724
    188095.08144                  25346085.4654
 96  2 25  4 20  0.0000000  0  7G16G 6G24G25G20G17G 5
 -15835779.02444 -12339563.78444  21205778.7454   21205778.6334
 -14259177.98344 -11111042.70544  22186780.4214   22186779.1734
 -11430885.65444  -8907169.28444  22093666.0664   22093665.6804
   -274244.77144   -213695.25044  25015658.3904   25015656.4254
 -24953375.14944 -19444182.71244  20454168.9864   20454168.6674
  -3791624.66344  -2954511.74144  24612660.4934   24612664.0444
 -24798040.30944 -19323138.49144  20590706.1494   20590705.4304
 96  2 25  4 20 30.0000000  0  7G16G 6G24G25G20G17G 5
 -15866165.11444 -12363241.24644  21199996.3174   21199996.3634
 -14322296.83144 -11160226.21844  22174769.1294   22174768.3034
 -11359027.95844  -8851176.27944  22107339.9354   22107339.5954
   -294033.26844   -229114.82244  25011893.1484   25011890.2994
 -24966076.98244 -19454080.25044  20451751.8614   20451751.2984
  -3883500.67344  -3026103.42144  24595177.7514   24595178.6024
 -24752977.49444 -19288024.61744  20599281.7874   20599281.1374
 96  2 25  4 21  0.0000000  0  7G16G 6G24G25G20G17G 5
 -15896021.43944 -12386505.90644  21194314.7894   21194315.0034
 -14385347.78244 -11209356.82644  22162771.4184   22162770.2114
 -11287058.19444  -8795095.94644  22121035.6314   22121034.8264
   -313340.93044   -244159.78044  25008220.4794   25008213.0974
 -24978214.72644 -19463538.24044  20449442.1664   20449441.7884
  -3975248.23844  -3097595.01744  24577719.6654   24577719.3494
 -24707418.00544 -19252523.72944  20607951.2374   20607950.3474
 96  2 25  4 21 30.0000000  0  7G16G 6G24G25G20G17G 5
 -15925308.11844 -12409326.68344  21188742.1644   21188741.8584
 -14448287.98244 -11258401.12944  22150793.9684   22150792.8884
 -11214947.52544  -8738905.81744  22134757.7804   22134757.1054
   -332123.30444                  25004648.6154
 -24989767.06244 -19472540.06644  20447243.7914   20447243.3214
  -4066833.73844  -3168960.34744  24560292.4494   24560291.2724
 -24661334.23944 -19216614.31444  20616720.8544   20616720.0434
 96  2 25  4 22  0.0000000  0  7G16G 6G24G25G20G17G 5
 -15954017.57744 -12431697.68344  21183278.7044   21183278.4254
 -14511120.93244 -11307361.85544  22138837.4154   22138836.6554
 -11142695.86144  -8682605.81744  22148506.5384   22148506.3244
   -350391.83444                  25001171.0244
 -25000730.29844 -19481082.85544  20445157.6744   20445157.1444
  -4158249.30444  -3240193.22244  24542897.5224   24542895.9774
 -24614728.14944 -19180297.89044  20625589.4454   20625588.8254
 96  2 25  4 22 30.0000000  0  7G16G 6G25G20G17G 5G24
 -15982178.87244 -12453641.54444  21177920.1224   21177919.7144
 -14573893.40944 -11356275.45944  22126892.0924   22126891.1344
   -368176.01644                  24997789.6634
 -25011130.94744 -19489187.26344  20443178.3884   20443178.0224
  -4249521.57244  -3311314.49244  24525527.2774   24525526.8444
 -24567621.55044 -19143591.45944  20634553.5664   20634552.8864
 -11070334.56244  -8626220.39444  22162276.1684   22162276.3824
 96  2 25  4 23  0.0000000  0  7G16G 6G24G25G20G17G 5
 -16009790.26144 -12475156.90044  21172665.7124   21172665.5454
 -14636607.53544 -11405143.60044  22114958.0424   22114957.3944
 -10997870.07344  -8569754.55744  22176066.0694   22176066.3074
   -385477.13844                  24994499.4744
 -25020966.01844 -19496850.96244  20441306.8794   20441306.5574
  -4340660.59744  -3382331.83944  24508183.4174   24508183.0764
 -24520019.18944 -19106498.72144  20643612.0544   20643611.5074
 96  2 25  4 23 30.0000000  0  7G16G 6G24G25G20G17G 5
 -16036835.86844 -12496231.38944  21167519.0434   21167518.8014
 -14699253.80844 -11453958.86344  22103036.6224   22103035.7744
 -10925293.41344  -8513201.31644  22189877.1684   22189876.8984
   -402294.46244                  24991293.5094
 -25030202.95344 -19504048.58344  20439549.1504   20439548.6614
  -4431662.17444  -3453242.15144  24490865.0694   24490865.7864
 -24471917.69844 -19069017.05144  20652765.6304   20652764.7294
 96  2 25  4 24  0.0000000  0  7G16G 6G24G25G20G17G 5
 -16063274.43444 -12516832.86144  21162487.9754   21162487.8284
 -14761797.22644 -11502693.98944  22091134.8764   22091134.1254
 -10852560.71744  -8456526.49644  22203717.4624   22203717.0464
   -418593.35044                  24988191.7344
 -25038785.73544 -19510736.46844  20437916.0134   20437915.4724
  -4522482.85544  -3524011.47744  24473583.0524   24473584.7454
 -24423287.41844 -19031123.33844  20662019.3544   20662018.7904
 96  2 25  4 24 30.0000000  0  7G16G 6G25G20G17G 5G24
 -16089125.90744 -12536976.85444  21157568.4074   21157568.0594
 -14824250.18844 -11551358.62844  22079250.4094   22079249.6214
   -434391.29344                  24985183.5404
 -25046739.38644 -19516934.12544  20436402.4304   20436401.9624
  -4613135.29844  -3594649.74944  24456331.6004   24456337.5264
 -24374153.76244 -18992837.38244  20671369.3774   20671368.7844
 -10779684.43644  -8399739.78944  22217585.4294   22217584.8964
 96  2 25  4 25  0.0000000  0  7G16G 6G25G20G17G 5G24
 -16114392.43344 -12556665.04944  21152760.5354   21152760.5544
 -14886608.12444 -11599949.22944  22067384.3674   22067383.7554
   -449704.63844                  24982269.9584
 -25054073.37244 -19522648.92844  20435006.8184   20435006.4274
  -4703624.02944  -3665160.40444  24439111.6244   24439116.3554
 -24324517.34944 -18954159.66844  20680814.8234   20680814.2884
 -10706672.80744  -8342847.61044  22231479.3544   22231478.7104
 96  2 25  4 25 30.0000000  0  7G16G 6G25G17G20G 5G24
 -16139074.78044 -12575898.03744  21148063.8094   21148063.3344
 -14948877.53744 -11648470.83244  22055534.7694   22055533.9344
   -464527.48844   -361967.74444  24979451.0764
  -4793938.57244  -3735535.32644  24421925.5014   24421928.8584
 -25060802.59744 -19527892.49144  20433726.2884   20433725.9424
 -24274364.99944 -18915079.92844  20690358.6924   20690358.1324
 -10633527.84644  -8285851.53344  22245398.3794   22245398.3494
 96  2 25  4 26  0.0000000  0  7G16G 6G25G20G17G 5G24
 -16163149.78144 -12594657.76844  21143482.3184   21143482.1254
 -15011038.90444 -11696908.25444  22043706.0634   22043705.2484
   -478833.44944                  24976730.2864
 -25066938.28244 -19532673.55244  20432558.6864   20432558.2374
  -4884054.73744  -3805755.73544  24404777.9324   24404781.3604
 -24223672.88044 -18875579.58944  20700004.9874   20700004.3664
 -10560231.15244  -8228737.23144  22259346.3604   22259346.1814
 96  2 25  4 26 30.0000000  0  7G16G 6G25G20G17G 5G24
 -16186631.81044 -12612955.44044  21139014.0114   21139013.7334
 -15073105.21144 -11745271.59644  22031895.4234   22031894.0764
   -492641.95744                  24974105.1404
 -25072502.03444 -19537008.94944  20431499.8804   20431499.6154
  -4973990.10044  -3875835.19844  24387663.8944   24387668.2564
 -24172427.15444 -18835647.86744  20709757.0374   20709756.0784
 -10486805.16644  -8171522.17044  22273318.6194   22273318.2904
 96  2 25  4 27  0.0000000  0  7G16G 6G25G20G17G 5G24
 -16209534.99444 -12630802.06944  21134655.5984   21134655.7924
 -15135102.86744 -11793581.45044  22020097.5084   22020096.3764
   -505976.52144                  24971568.6144
 -25077511.83344 -19540912.69544  20430546.6244   20430546.3024
  -5063772.15044  -3945795.18744  24370578.7734   24370580.6534
 -24120640.99744 -18795295.03044  20719611.5064   20719610.6774
 -10413286.53144  -8114234.93244  22287309.0464   22287307.9784
 96  2 25  4 27 30.0000000  0  7G16G 6G25G20G17G 5G24
 -16231862.20144 -12648199.88244  21130406.6864   21130406.8214
 -15197025.00844 -11841832.46144  22008313.6824   22008313.0434
   -518840.60044   -404289.73844  24969118.8874   24969113.3964
 -25081965.59844 -19544383.16744  20429699.1504   20429698.8424
  -5153396.21644  -4015632.12544  24353524.9234   24353524.4714
 -24068337.15044 -18754538.79644  20729564.3304   20729563.3384
 -10339680.92044  -8056879.91344  22301315.5054   22301315.0494
 96  2 25  4 28  0.0000000  0  7G16G 6G25G20G17G 5G24
 -16253631.75844 -12665163.16344  21126263.9994   21126263.7584
 -15258876.19644 -11890028.17944  21996544.2364   21996542.9224
   -531253.40444   -413962.10444  24966754.9614   24966751.8334
 -25085849.70444 -19547409.74944  20428959.8544   20428959.2654
  -5242871.46344  -4085353.09644  24336497.8374   24336495.9804
 -24015549.76544 -18713405.78244  20739609.6524   20739608.9364
 -10266001.59144  -7999467.45344  22315336.7474   22315336.2044
 96  2 25  4 28 30.0000000  0  7G16G25G17G 6G20G 5G24
 -16274832.15444 -12681682.93944  21122229.8254   21122229.5054
   -543199.88844   -423271.04044  24964480.5944
  -5332169.76144  -4154936.18244  24319505.6314   24319503.3184
 -15320638.92044 -11938154.95844  21984791.5844   21984790.5944
 -25089124.87044 -19549961.83144  20428336.8244   20428336.4494
 -23962269.30744 -18671888.55444  20749748.5004   20749747.8694
 -10192233.32744  -7941985.69744  22329373.6574   22329373.6044
 96  2 25  4 29  0.0000000  0  7G16G 6G25G17G20G 5G24
 -16295468.37244 -12697763.09644  21118302.8934   21118302.5414
 -15382318.46044 -11986216.92544  21973054.0774   21973052.7794
   -554680.07844   -432216.67044  24962293.1974   24962289.9794
  -5421277.15544  -4224370.46344  24302548.8774   24302550.1504
 -25091788.23844 -19552037.19144  20427830.0154   20427829.4504
 -23908531.61044 -18630015.03744  20759974.2614   20759973.7764
 -10118367.61744  -7884427.99744  22343430.1724   22343429.5584
 96  2 25  4 29 30.0000000  0  7G16G 6G25G17G20G 5G24
 -16315522.55944 -12713389.72444  21114486.5774   21114486.5884
 -15443896.32944 -12034199.67344  21961336.2904   21961335.2854
   -565670.16044   -440780.41844  24960204.2794   24960203.5824
  -5510162.95644  -4293632.11744  24285635.3714   24285633.6434
 -25093825.41644 -19553624.61044  20427442.7134   20427442.1114
 -23854331.46544 -18587781.16844  20770288.4724   20770287.8054
 -10044378.88344  -7826774.43744  22357509.9334   22357509.3244
 96  2 25  4 30  0.0000000  0  7G16G 6G25G17G20G 5G24
 -16334982.44444 -12728553.26044  21110783.6994   21110783.6294
 -15505386.06344 -12082113.74344  21949634.7124   21949634.0524
   -576164.20844   -448957.54644  24958204.1044   24958202.1514
  -5598824.70344  -4362719.15444  24268762.9174   24268761.8354
 -25095236.11944 -19554723.86444  20427173.6224   20427173.0554
 -23799642.72944 -18545166.57844  20780695.3334   20780694.7504
  -9970261.97044  -7769020.99944  22371613.5454   22371612.5714
 96  2 25  4 30 30.0000000  0  7G16G 6G25G17G20G 5G24
 -16353855.19244 -12743259.29344  21107192.2294   21107192.0354
 -15566794.58844 -12129964.53944  21937948.9494   21937948.3394
   -586168.15144                  24956300.2414
  -5687282.14044  -4431647.01944  24251929.4644   24251930.2164
 -25096052.19944 -19555359.77544  20427018.6224   20427018.2934
 -23744458.07744 -18502165.56444  20791196.5874   20791196.0454
  -9896034.21444  -7711181.19744  22385739.1334   22385738.5644
 96  2 25  4 31  0.0000000  0  7G16G 6G25G17G20G 5G24
 -16372137.32744 -12757505.10044  21103712.8634   21103712.6574
 -15628128.71544 -12177757.36344  21926277.4074   21926276.7414
   -595680.27944                  24954488.6584
  -5775562.10644  -4500436.60144  24235130.2014   24235131.8114
 -25096290.80644 -19555545.70944  20426972.9994   20426972.6344
 -23688776.70344 -18458777.49744  20801792.4164   20801791.7634
  -9821716.35544  -7653271.17744  22399881.5204   22399880.8134
 96  2 25  4 31 30.0000000  0  7G16G25G17G 6G20G 5G24
 -16389878.58744 -12771329.45244  21100337.2464   21100337.0374
   -604758.43144   -471238.87344  24952756.9554
  -5863753.31044  -4569157.00144  24218348.1644   24218349.0674
 -15689444.97444 -12225536.25444  21914609.6034   21914608.5244
 -25096017.25344 -19555332.55444  20427025.2184   20427024.8324
 -23632632.23544 -18415028.56944  20812476.3304   20812475.7504
  -9747383.13044  -7595349.17944  22414025.5544   22414025.2254
 96  2 25  4 32  0.0000000  0  7G16G25G17G 6G20G 5G24
 -16407046.35544 -12784706.92444  21097070.1914   21097069.8744
   -613371.43544   -477950.32944  24951120.3674   24951122.1674
  -5951839.66744  -4637795.68544  24201583.6574   24201584.9404
 -15750710.01544 -12273275.23944  21902950.9724   21902950.2024
 -25095191.35044 -19554689.00144  20427182.3734   20427181.8944
 -23575980.81344 -18370884.61944  20823256.9574   20823255.9494
  -9673004.96444  -7537392.16644  22428179.5144   22428178.9494
 96  2 25  4 32 30.0000000  0  7G16G25G17G 6G20G 5G24
 -16423572.62844 -12797584.52844  21093925.1904   21093925.0504
   -621453.77844   -484248.26844  24949582.9814   24949584.1724
  -6039761.39544  -4706306.10144  24184854.1754   24184853.9114
 -15811848.17844 -12320915.35744  21891316.5644   21891315.8274
 -25093749.58144 -19553565.54944  20427456.8154   20427456.4584
 -23518780.58644 -18326313.02544  20834141.9204   20834141.1574
  -9598518.93544  -7479351.11044  22442353.7414   22442353.5494
 96  2 25  4 33  0.0000000  0  7G16G25G17G 6G20G 5G24
 -16439435.62244 -12809945.29144  21090906.5324   21090906.1624
   -628997.81444   -490126.77744  24948151.0114   24948148.9214
  -6127495.39344  -4774670.26344  24168159.3254   24168159.2324
 -15872854.12344 -12368452.44744  21879707.6804   21879706.5974
 -25091664.08644 -19551940.49844  20427853.7934   20427853.4574
 -23461026.76544 -18281310.06144  20845131.6194   20845131.2224
  -9523904.22544  -7421209.78844  22456552.7684   22456551.6564
 96  2 25  4 33 30.0000000  0  7G16G 6G25G17G24G20G 5
 -16454702.05244 -12821841.20344  21088002.0364   21088001.4464
 -15933774.15544 -12415922.59344  21868115.6154   21868114.4704
   -636058.28144   -495628.46144  24946810.9654   24946806.0714
  -6215066.55944  -4842907.49644  24151495.4684   24151494.9464
  -9449189.49344  -7362990.51744  22470770.5184   22470770.1414
 -25088983.22144 -19549851.52244  20428364.0134   20428363.4614
 -23402778.15944 -18235921.55444  20856215.9914   20856215.4594
 96  2 25  4 34  0.0000000  0  7G16G25G17G 6G20G 5G24
 -16469387.42744 -12833284.34344  21085206.8884   21085206.7624
   -642642.00744   -500758.61344  24945556.1494   24945556.2524
  -6302449.65044  -4910998.18044  24134866.1984   24134867.3314
 -15994617.04244 -12463332.62744  21856537.2204   21856536.2704
 -25085715.42844 -19547305.19444  20428985.7374   20428985.3274
 -23344059.16744 -18190166.51044  20867389.7914   20867389.3384
  -9374376.67944  -7304694.83144  22485006.9254   22485007.1024
 96  2 25  4 34 30.0000000  0  7G16G25G17G 6G20G 5G24
 -16483500.99144 -12844281.91944  21082521.4774   21082521.0514
   -648741.62344   -505511.57944  24944395.8824   24944395.8614
  -6389632.29244  -4978932.70044  24118277.0654   24118277.5364
 -16055374.88544 -12510676.38944  21844975.3274   21844974.4824
 -25081864.94444 -19544304.82544  20429718.1034   20429717.6604
 -23284879.72344 -18144052.67344  20878651.3704   20878650.7554
  -9299472.09444  -7246327.62644  22499260.5294   22499259.8964
 96  2 25  4 35  0.0000000  0  7G16G25G17G 6G20G 5G24
 -16497057.01144 -12854845.04244  21079941.7094   21079941.6234
   -654346.12444   -509878.77044  24943327.6994   24943329.7334
  -6476607.96644  -5046705.95744  24101726.0644   24101727.6034
 -16116042.02744 -12557949.47244  21833430.8044   21833430.3354
 -25077431.30044 -19540850.04744  20430561.9844   20430561.5694
 -23225232.54444 -18097574.35744  20890002.1574   20890001.3074
  -9224480.86744  -7187892.90444  22513531.0944   22513531.0504
 96  2 25  4 35 30.0000000  0  7G16G25G17G 6G20G 5G24
 -16510068.16944 -12864983.59644  21077465.8024   21077465.2454
   -659462.47444   -513865.56044  24942354.6764   24942350.5334
  -6563381.71844  -5114321.82344  24085213.3014   24085213.7574
 -16176623.10444 -12605155.49344  21821902.4214   21821902.0284
 -25072430.68644 -19536953.47344  20431513.6634   20431513.2764
 -23165127.86244 -18050739.54944  20901439.9644   20901439.0154
  -9149416.03544  -7129400.82144  22527815.4464   22527815.1404
 96  2 25  4 36  0.0000000  0  7G16G25G17G 6G20G 5G24
 -16522530.96944 -12874694.86444  21075094.2564   21075093.9374
   -664102.48844   -517481.16244  24941473.1054   24941470.7264
  -6649977.88244  -5181799.31844  24068733.9114   24068734.9544
 -16237131.85744 -12652305.16844  21810388.0464   21810387.3304
 -25066856.36044 -19532609.85044  20432574.4424   20432574.0144
 -23104580.01144 -18003559.42144  20912961.5064   20912960.7434
  -9074299.81244  -7070868.70844  22542109.3044   22542108.9274
 96  2 25  4 36 30.0000000  0  7G16G25G17G 6G20G 5G24
 -16534438.05644 -12883973.10344  21072828.4814   21072827.8514
   -668270.91244   -520729.28144  24940677.5204   24940674.4714
  -6736426.07044  -5249161.54944  24052283.1194   24052283.4994
 -16297563.41444 -12699394.69044  21798887.8744   21798887.0554
 -25060702.68544 -19527814.78544  20433745.5454   20433745.3094
 -23043591.77744 -17956036.13344  20924567.3394   20924566.7554
  -8999132.50944  -7012296.78744  22556413.1284   22556413.4404
 96  2 25  4 37  0.0000000  0  7G17G25G16G 6G20G 5G24
  -6822713.86044  -5316398.75644  24035863.8844   24035864.3534
   -671986.17144   -523624.29444  24939971.2394
 -16545771.59744 -12892804.42444  21070671.5504   21070671.0984
 -16357913.70344 -12746420.88644  21787404.2624   21787403.2514
 -25053955.17944 -19522556.99944  20435029.5294   20435029.2114
 -22982154.87744 -17908163.23244  20936257.9764   20936257.4334
  -8923896.26244  -6953671.15444  22570729.4494   22570729.2884
 96  2 25  4 37 30.0000000  0  7G17G25G16G 6G20G 5G24
  -6908819.31744  -5383493.88944  24019479.4084   24019479.1454
   -675251.21544   -526168.54844  24939349.4354   24939346.2464
 -16556494.10244 -12901159.61144  21068630.8894   21068630.4384
 -16418168.46044 -12793372.64044  21775938.0714   21775936.9904
 -25046587.09544 -19516815.64044  20436431.6234   20436431.3394
 -22920252.89144 -17859927.92544  20948037.5944   20948037.0754
  -8848562.82444  -6894969.76544  22585065.6594   22585065.1484
 96  2 25  4 38  0.0000000  0  7G16G25G17G 6G24G20G 5
 -16566600.40644 -12909034.64744  21066708.0954   21066707.6244
   -678075.37044   -528369.25544  24938811.7724
  -6994746.04444  -5450449.77544  24003127.7644   24003128.2974
 -16478311.89644 -12840237.65544  21764493.4744   21764492.0344
  -8773135.28344  -6836195.07044  22599418.9954   22599417.9794
 -25038591.62544 -19510585.41444  20437953.2654   20437952.7344
 -22857891.78944 -17811334.86844  20959904.7334   20959904.3414
 96  2 25  4 38 30.0000000  0  7G17G25G16G 6G20G 5G24
  -7080511.70844  -5517280.14444  23986806.0704   23986804.5314
   -680491.78544                  24938351.1214
 -16576116.31044 -12916449.62944  21064897.3074   21064897.1324
 -16538347.69744 -12887018.78844  21753068.5384   21753067.0894
 -25030006.49744 -19503895.71144  20439586.7434   20439586.1884
 -22795084.00844 -17762393.75244  20971856.6294   20971856.1264
  -8697638.47044  -6777366.38044  22613785.8034   22613785.2684
 96  2 25  4 39  0.0000000  0  7G25G20G17G16G 6G 5G24
   -682446.71744   -531775.39344  24937977.9374   24937976.5294
 -25020788.58344 -19496712.92744  20441340.8514   20441340.4434
  -7166043.13044  -5583927.99244  23970530.1084   23970532.2114
 -16584994.24644 -12923367.49844  21063207.8314   21063207.4354
 -16598221.72044 -12933673.86344  21741674.7264   21741674.0034
 -22731768.75544 -17713057.20544  20983904.8694   20983904.4674
  -8622028.48944  -6718449.51744  22628173.8034   22628173.1584
 96  2 25  4 39 30.0000000  0  7G25G20G17G16G 6G 5G24
   -683965.28144   -532958.92944  24937688.2084   24937687.1274
 -25010994.37644 -19489081.08744  20443204.7354   20443204.3544
  -7251407.53144  -5650445.69244  23954286.2144   23954285.8794
 -16593292.59544 -12929833.73444  21061628.5014   21061628.1804
 -16657982.26444 -12980240.51744  21730302.8574   21730301.7474
 -22667988.24244 -17663358.11644  20996042.2814   20996041.5194
  -8546363.67644  -6659489.91944  22642572.9144   22642572.4044
 96  2 25  4 40  0.0000000  0  7G25G20G17G16G 6G 5G24
   -685027.79044   -533786.89644  24937486.1414   24937485.6084
 -25000626.91844 -19481002.55444  20445177.5184   20445177.1674
  -7336603.51144  -5716832.14544  23938073.7794   23938076.5154
 -16601007.32644 -12935845.20844  21060160.7144   21060160.2354
 -16717612.27144 -13026705.45444  21718955.5354   21718954.4304
 -22603721.64844 -17613280.25744  21008271.7214   21008271.4074
  -8470644.52344  -6600487.98544  22656982.0624   22656981.3524
 96  2 25  4 40 30.0000000  0  7G25G20G17G16G 6G 5G24
   -685583.62544   -534220.03244  24937380.6384
 -24989670.21744 -19472464.87244  20447262.3914   20447262.1044
  -7421603.05944  -5783065.54144  23921898.5564   23921898.7754
 -16608111.87344 -12941381.21044  21058808.8554   21058808.5374
 -16777095.76044 -13073056.21044  21707636.4064   21707635.5004
 -22538920.82144 -17562786.11244  21020602.8714   21020602.1934
  -8394839.91844  -6541419.45844  22671406.4654   22671405.5464
 96  2 25  4 41  0.0000000  0  7G25G20G17G16G 6G 5G24
   -685611.13244   -534241.47344  24937376.6854
 -24978122.27144 -19463466.48144  20449460.0974   20449459.6444
  -7506403.70644  -5849143.92844  23905761.4714   23905763.8394
 -16614608.49144 -12946443.50244  21057572.2764   21057571.9734
 -16836445.48844 -13119302.74544  21696342.8314   21696341.9754
 -22473594.91244 -17511882.81544  21033034.0884   21033033.0514
  -8318950.01944  -6482284.48644  22685847.4914   22685847.3904
 96  2 25  4 41 30.0000000  0  7G25G20G17G16G 6G 5G24
   -685145.82144   -533878.99444  24937463.1544
 -24966008.79144 -19454027.41544  20451765.1384   20451764.5834
  -7591041.07544  -5915095.11744  23889654.8884   23889656.4724
 -16620524.35944 -12951053.26244  21056446.6474   21056446.3184
 -16895688.00244 -13165465.74244  21685069.1004   21685068.0604
 -22407791.11044 -17460607.12944  21045556.2604   21045555.6154
  -8243002.14144  -6423104.32244  22700300.0794   22700298.9334
 96  2 25  4 42  0.0000000  0  7G25G20G17G16G 6G 5G24
   -684170.28644   -533118.80844  24937647.8834
 -24953301.72844 -19444125.81444  20454183.2364   20454182.6494
  -7675473.18544  -5980886.35444  23873587.7554   23873589.4504
 -16625825.26444 -12955183.83344  21055437.4734   21055437.2544
 -16954799.53744 -13211526.68044  21673820.4944   21673819.8394
 -22341503.18044 -17408954.20644  21058170.0984   21058169.5714
  -8166976.44144  -6363863.51044  22714768.0374   22714767.5214
 96  2 25  4 42 30.0000000  0  7G25G20G17G16G 6G 5G24
   -682702.71144   -531975.24044  24937927.4214   24937930.5904
 -24940011.48744 -19433769.78844  20456712.0854   20456711.6544
  -7759710.31944  -6046525.64744  23857557.8064   23857559.6924
 -16630540.47544 -12958858.01944  21054540.6134   21054540.2474
 -17013801.20644 -13257501.99944  21662592.5634   21662592.0434
 -22274777.66344 -17356960.30644  21070867.8634   21070867.3354
  -8090888.61544  -6304574.30144  22729246.5874   22729245.4294
 96  2 25  4 43  0.0000000  0  7G25G20G17G16G 6G 5G24
   -680766.01244   -530466.21344  24938298.8144   24938299.0654
 -24926119.38544 -19422944.78244  20459355.9044   20459355.5744
  -7843757.83544  -6112017.19344  23841564.8234   23841564.9794
 -16634668.01544 -12962074.28444  21053754.9694   21053754.7704
 -17072695.76844 -13303393.85544  21651385.4964   21651384.6804
 -22207646.81344 -17304650.56544  21083642.2394   21083641.8864
  -8014747.20044  -6245243.33344  22743735.6754   22743735.3024
